     2              OBSERVATION DATA    GPS                 RINEX VERSION / TYPE
ASRINEXO V2.4.4 UX USGS 09-FEB-95 10:09                     PGM / RUN BY / DATE
                                                            COMMENT
Original Marker Name: law1 LAPW1_USGS                       COMMENT
Campaign Name: usgs.landers.profile                         COMMENT
4-Character Station Name: LAW1                              COMMENT
6-Character Antenna Code: ASHL12                            COMMENT
Vertical Measurement Point: BBE                             COMMENT
Vertical Offset to Rinex Ref. Point: 0.0595                 COMMENT
Radial Measurement Point: EGP                               COMMENT
Radial Offset to Rinex Ref. Point: 0.1424                   COMMENT
Antenna Height from Field Measurement: 1.3030 m             COMMENT
Additional Antenna Identification Info.:                    COMMENT
Original Ashtech L1/L2                                      COMMENT
Original XYZ: -2353967.1700 -4703178.1600 3596691.6800      COMMENT
New XYZ position is based on association with SCEC monument COMMENT
E1F2J6T9+0011. Position of that monument is believed to be  COMMENT
valid to within 1 m horizontally; vertical accuracy         COMMENT
should be no worse than 3-times this value.                 COMMENT
                                                            COMMENT
Revised Rinex header created by UCSD GPS archive for        COMMENT
GSAC on 11-Nov-1999 (1999:315) 00:27:58 GMT                 COMMENT
For assistance contact dagnew@ucsd.edu or hjohnson@ucsd.edu COMMENT
                                                            COMMENT
LAW1 LAPW1_USGS                                             MARKER NAME
KWC US GEOLOGICAL SURVEY                                    OBSERVER / AGENCY
600 ASHTECH Z-XII3 1E00                                     REC # / TYPE / VERS
745 ASHTECH GEODETIC L                                      ANT # / TYPE
 -2354302.0000 -4703862.0000  3596685.0000                  APPROX POSITION XYZ
        1.2357        0.0000        0.0000                  ANTENNA: DELTA H/E/N
     1     1     0                                          WAVELENGTH FACT L1/2
     5    C1    L1    L2    P1    P2                        # / TYPES OF OBSERV
    30                                                      INTERVAL
  1995     2     4    16    15    0.000000                  TIME OF FIRST OBS
  1995     2     4    23     0   30.000000                  TIME OF LAST OBS
                                                            END OF HEADER
 95  2  4 16 15  0.0000000  0  8  1 29 25 22 21 20 14 15
  20028004.117       25783.01119
  20697943.051      -44744.85319
  17375808.231       -1551.36319
  21029223.811      -57766.12419
  20648678.939       36494.98219
  21200352.108       -2086.59719
  19249499.507      -26359.75119
  17657930.130        -853.86519      -452.65359                  17657936.1764
 95  2  4 16 15 30.0000000  0  8  1 29 25 22 21 20 14 15
  20037507.640       75695.06459     49813.04759  20037504.9984   20037509.2264
  20680569.682     -136045.07959    -90750.20559  20680571.7104   20680578.3584
  17375147.597       -5016.26559     -3384.99459  17375148.7374   17375152.6244
  21007323.468     -172884.52359   -114440.30359  21007318.7424   21007328.5674
  20662020.930      106617.12759     69904.24259  20662020.8784   20662027.1864
  21199222.072       -7973.79559     -4922.99859  21199226.0434   21199232.9944
  19229331.816     -132335.15059    -88883.73659  19229333.3684   19229339.8884
  17657655.514       -2298.82759     -1578.59549  17657655.6284   17657661.0074
 95  2  4 16 16  0.0000000  0  8  1 29 25 22 21 20 14 15
  23344552.544      124730.10849     88022.15149  23344551.8324   23344558.8654
  23960768.388     -228129.39249   -162504.24649  23960766.1664   23960770.6024
  20672136.942       -8838.12949     -6363.07049  20672138.5604   20672142.5694
  24282961.185     -288890.93249   -204834.87049  24282960.4274   24282967.2574
  23972938.825      176029.66349    123991.87249  23972945.5274   23972952.8114
  24495746.750      -14226.29849     -9795.15949  24495752.5354   24495760.4464
  22506741.922     -239059.29949   -172045.42749  22506741.9934   22506746.9534
  20955044.341       -4015.84349     -2916.54549  20955045.9004   20955051.2174
 95  2  4 16 16 30.0000000  0  8  1 29 25 22 21 20 14 15
  23353758.409      173114.67249    125724.35949  23353759.4074   23353765.4464
  23943111.220     -320887.60649   -234783.37349  23943114.8214   23943118.9604
  20671378.782      -12825.41849     -9470.05949  20671379.8684   20671383.9324
  24260738.642     -405671.46649   -295832.64549  24260738.4084   24260744.3584
  23986068.533      244953.57649    177698.73149  23986061.6914   23986069.1614
  24494520.149      -20673.40949    -14818.97549  24494526.2324   24494533.9084
  22486310.877     -346431.94149   -255712.42149  22486309.9254   22486314.6504
  20954700.648       -5831.37549     -4331.26049  20954700.3904   20954705.9044
 95  2  4 16 17  0.0000000  0  8  1 29 25 22 21 20 14 15
  23362861.359      220950.23949    162998.77249  23362862.0244   23362868.0334
  23925368.214     -414147.29249   -307453.23749  23925367.6594   23925372.5734
  20670609.642      -16867.50149    -12619.74849  20670610.5914   20670614.8064
  24238399.996     -523051.34249   -387297.41049  24238400.3874   24238407.8174
  23999097.947      313485.94749    231100.43449  23999103.5194   23999110.0704
  24493287.721      -27204.76149    -19908.41349  24493283.9484   24493291.3734
  22465785.514     -454283.31249   -339752.44649  22465786.2644   22465791.2084
  20954358.983       -7626.88749     -5730.38249  20954358.7194   20954364.1374
 95  2  4 16 17 30.0000000  0  8  1 29 25 22 21 20 14 15
  23371878.173      268339.17149    199925.17949  23371879.4894   23371885.9084
  23907543.613     -507804.69049   -380433.02849  23907545.2994   23907550.2234
  20669846.330      -20882.18549    -15748.08549  20669846.5654   20669850.6424
  24215964.403     -640933.66949   -479153.67049  24215968.4094   24215975.7694
  24012087.511      381719.12849    284269.07349  24012087.8104   24012094.4744
  24492037.776      -33728.88049    -24992.22549  24492042.8034   24492049.9764
  22445188.503     -562521.00249   -424093.50649  22445189.2954   22445193.8344
  20954037.784       -9312.27949     -7043.69449  20954037.9734   20954043.2894
 95  2  4 16 18  0.0000000  0  8  1 29 25 22 21 20 14 15
  23380822.162      315347.56349    236555.03149  23380825.4054   23380831.9764
  23889660.621     -601768.37049   -453651.47249  23889664.9324   23889669.4374
  20669098.916      -24806.87149    -18806.29749  20669099.6864   20669103.8274
  24193450.388     -759268.09249   -571362.25549  24193450.8624   24193456.9664
  24025022.744      449734.59049    337268.04449  24025030.1704   24025038.1174
  24490818.377      -40170.13549    -30011.47849  24490817.2944   24490824.8194
  22424530.181     -671089.75649   -508692.53849  22424529.2174   22424534.0784
  20953751.077      -10823.59749     -8221.37149  20953750.6984   20953756.0824
 95  2  4 16 18 30.0000000  0  8  1 29 25 22 21 20 14 15
  23389705.119      362010.51249    272915.72449  23389705.8284   23389710.5034
  23871736.056     -695966.32049   -527052.47349  23871740.1224   23871744.5454
  20668378.930      -28594.35649    -21757.59649  20668379.1244   20668383.1894
  24170862.328     -877996.67149   -663877.95849  24170856.8964   24170864.0024
  24037943.997      517583.57449    390137.26449  24037942.6614   24037948.4634
  24489610.397      -46465.47849    -34917.02349  24489618.6824   24489626.4554
  22403816.475     -779933.94149   -593506.18949  22403817.1034   22403821.6814
  20953506.542      -12102.31749     -9217.79849  20953507.1974   20953512.5264
 95  2  4 16 19  0.0000000  0  8  1 29 25 22 21 20 14 15
  23398519.756      408327.85849    309007.11149  23398519.2904   23398525.5454
  23853768.274     -790402.62149   -600639.17749  23853768.3174   23853774.4604
  20667682.021      -32249.19949    -24605.53849  20667683.4364   20667687.7084
  24148185.595     -997118.88249   -756700.36649  24148188.8204   24148195.3584
  24050819.446      585274.47449    442883.30349  24050822.9474   24050832.1404
  24488454.166      -52579.51249    -39681.28749  24488455.5764   24488463.0184
  22383053.301     -889040.24749   -678524.09649  22383055.0064   22383059.2964
  20953310.708      -13136.43249    -10023.62349  20953310.4724   20953316.0094
 95  2  4 16 19 30.0000000  0  8  1 29 25 22 21 20 14 15
  23407268.865      454310.37949    344837.58549  23407270.0784   23407275.2744
  23835751.965     -885068.89849   -674405.09849  23835754.2964   23835759.7264
  20667018.257      -35745.70249    -27330.10149  20667018.2654   20667022.1964
  24125450.589    -1116613.70249   -849813.10849  24125448.5764   24125455.6494
  24063673.917      652821.54249    495517.24449  24063677.9654   24063684.2594
  24487343.117      -58486.08949    -44283.88649  24487331.7994   24487338.9104
  22362247.198     -998380.55349   -763724.33849  22362248.2444   22362252.7004
  20953162.450      -13907.75149    -10624.68049  20953163.8634   20953169.1914
 95  2  4 16 20  0.0000000  0  8  1 29 25 22 21 20 14 15
  23415956.284      499948.43849    380399.65949  23415954.1894   23415960.1014
  23817700.169     -979942.32249   -748332.42149  23817700.5144   23817705.3024
  20666384.188      -39075.16149    -29924.49949  20666384.7284   20666388.6044
  24102641.736    -1236456.93749   -943197.41749  24102644.1144   24102650.0414
  24076507.679      720230.81549    548043.88449  24076504.5004   24076511.8654
  24486250.795      -64173.19849    -48715.46549  24486249.6484   24486257.0484
  22341401.814    -1107927.00949   -849085.22049  22341402.2094   22341406.7384
  20953069.647      -14400.67849    -11008.80049  20953070.1124   20953075.0384
 95  2  4 16 20 30.0000000  0  8  1 29 25 22 21 20 14 15
  23424575.906      545260.32349    415707.56749  23424576.9924   23424582.9124
  23799599.172    -1075026.61349   -822424.06649  23799606.8424   23799611.4214
  20665783.203      -42231.68049    -32384.13449  20665784.2354   20665788.2014
  24079781.403    -1356613.51949  -1036825.80449  24079778.3464   24079785.0734
  24089308.315      787507.84049    600467.42349  24089307.0104   24089314.3954
  24485209.637      -69628.12549    -52966.10149  24485211.6794   24485217.9404
  22320521.693    -1217649.35649   -934583.15249  22320522.7834   22320527.1954
  20953032.736      -14595.83349    -11160.88749  20953032.9074   20953038.2234
 95  2  4 16 21  0.0000000  0  8  1 29 25 22 21 20 14 15
  23433138.053      590255.68149    450768.83449  23433139.5004   23433144.4064
  23781475.608    -1170320.76449   -896679.22549  23781473.4134   23781477.9604
  20665213.723      -45222.33149    -34714.52649  20665214.9904   20665218.8264
  24056851.896    -1477093.01949  -1130705.84649  24056852.3254   24056858.8364
  24102083.510      854651.52949    652787.02949  24102084.5074   24102092.3764
  24484215.126      -74865.61149    -57047.31249  24484214.8054   24484220.4084
  22299607.093    -1327546.14549  -1020217.01749  22299610.0074   22299614.4234
  20953049.935      -14500.39149    -11086.54149  20953051.0094   20953056.3674
 95  2  4 16 21 29.9990000  0  8  1 29 25 22 21 20 14 15
  23441645.222      634959.44149    485602.89049  23441646.3954   23441652.1314
  23763305.510    -1265775.36849   -971059.43649  23763308.2204   23763313.1414
  20664683.241      -48009.45049    -36886.32149  20664684.7204   20664688.6404
  24033869.933    -1597864.95949  -1224813.76849  24033870.2244   24033876.4694
  24114841.932      921697.26249    705030.39449  24114843.0684   24114849.5944
  24483262.963      -79886.55049    -60959.76849  24483258.7834   24483266.8074
  22278665.682    -1437598.81649  -1105972.34749  22278667.7764   22278672.1454
  20953127.941      -14092.15749    -10768.45849  20953128.8304   20953134.1614
 95  2  4 16 21 59.9990000  0  8  1 29 25 22 21 20 14 15
  23450094.710      679374.80149    520212.20349  23450098.4864   23450104.0914
  23745107.004    -1361416.36549  -1045584.88449  23745108.3024   23745112.9474
  20664189.191      -50609.41649    -38912.27949  20664190.1224   20664193.9414
  24010822.665    -1718955.68649  -1319170.09349  24010826.9114   24010833.3044
  24127580.104      988638.95849    757192.67549  24127582.0954   24127589.4624
  24482345.498      -84702.80949    -64712.73549  24482343.4534   24482350.0554
  22257686.723    -1547840.43849  -1191874.91749  22257689.4714   22257693.7304
  20953263.211      -13387.93649    -10219.74149  20953262.7144   20953268.1294
 95  2  4 16 22 29.9990000  0  8  1 29 25 22 21 20 14 15
  23458505.558      723550.07449    554634.43949  23458504.4924   23458510.2604
  23726875.848    -1457219.60049  -1120236.75549  23726877.9834   23726883.2774
  20663736.554      -52981.19849    -40760.43149  20663738.6814   20663742.6484
  23987731.461    -1840329.19349  -1413746.74849  23987730.4424   23987737.5694
  24140304.055     1055513.52249    809302.53949  24140305.8624   24140315.2094
  24481473.679      -89282.90449    -68281.65849  24481472.0024   24481479.0014
  22236679.527    -1658241.30649  -1277901.56749  22236680.9744   22236685.4624
  20953457.813      -12360.78649     -9419.38849  20953458.2854   20953463.7474
 95  2  4 16 22 59.9990000  0  8  1 29 25 22 21 20 14 15
  23466860.908      767471.90449    588859.19549  23466862.8624   23466868.1494
  23708613.251    -1553183.19249  -1195013.57149  23708616.9894   23708621.1634
  20663329.972      -55120.02649    -42427.06549  20663331.7444   20663335.4344
  23964576.860    -1962005.93049  -1508559.71949  23964576.6224   23964582.7224
  24153017.354     1122312.53549    861353.66349  24153019.7304   24153025.7464
  24480639.411      -93637.63949    -71674.98049  24480643.7004   24480648.8694
  22215638.912    -1768812.56549  -1364060.99849  22215639.7214   22215644.0894
  20953712.569      -11021.91449     -8376.13949  20953712.8884   20953718.2604
 95  2  4 16 23 29.9990000  0  8  1 29 25 22 21 20 14 15
  23475174.997      811160.36749    622902.08849  23475176.5904   23475182.2054
  23690324.647    -1649302.69749  -1269911.88049  23690325.8764   23690330.2814
  20662973.182      -56996.86549    -43889.55249  20662974.5234   20662978.4814
  23941367.903    -2083951.70949  -1603582.31049  23941370.9784   23941376.7644
  24165720.871     1189053.98849    913359.86349  24165719.8764   24165727.3524
  24479849.293      -97732.16449    -74865.51949  24479864.2414   24479870.9044
  22194570.981    -1879532.24249  -1450336.07749  22194570.4624   22194574.7894
  20954029.726       -9348.15749     -7071.93749  20954031.2934   20954036.8234
 95  2  4 16 23 59.9990000  0  8  1 29 25 22 21 20 14 15
  23483440.911      854587.24449    656741.15649  23483439.9674   23483446.0704
  23671995.536    -1745617.91549  -1344962.70249  23671997.2774   23672001.9134
  20662658.698      -58653.81449    -45180.69449  20662659.2844   20662662.9914
  23918109.994    -2206186.56449  -1698830.16449  23918109.8004   23918117.1634
  24178400.435     1255702.28349    965293.53049  24178402.4364   24178409.0404
  24479115.516     -101590.70849    -77872.19749  24479129.2034   24479136.8094
  22173468.807    -1990428.68649  -1536748.89949  22173467.7084   22173472.1374
  20954407.752       -7370.45249     -5530.88949  20954407.6754   20954413.2934
 95  2  4 16 24 29.9990000  0  8  1 29 25 22 21 20 14 15
  23491656.721      897758.97149    690381.41249  23491656.0154   23491661.8824
  23653636.696    -1842100.43049  -1420143.87849  23653637.4844   23653642.6534
  20662389.518      -60064.01449    -46279.56949  20662391.1484   20662394.8494
  23894800.658    -2328680.41149  -1794279.83349  23894800.3674   23894807.1604
  24191068.385     1322282.55549   1017174.18449  24191071.0264   24191080.4504
  24478443.708     -105202.74049    -80686.81249  24478441.7614   24478449.5124
  22152335.321    -2101477.04249  -1623280.09249  22152336.0354   22152340.4814
  20954845.656       -5065.45849     -3734.81849  20954846.7074   20954852.0364
 95  2  4 16 24 59.9990000  0  8  1 29 25 22 21 20 14 15
  23499821.529      940681.82449    723827.73449  23499823.4704   23499828.9094
  23635248.647    -1938736.51549  -1495444.71249  23635249.0454   23635253.2284
  20662169.639      -61219.34649    -47179.84149  20662171.4924   20662175.0834
  23871446.579    -2451409.54749  -1889912.84849  23871445.7414   23871452.5284
  24203726.244     1388808.03149   1069012.04649  24203730.9884   24203739.9954
  24477807.766     -108551.24049    -83296.06649  24477805.2984   24477811.5094
  22131177.004    -2212655.67249  -1709912.79649  22131179.5454   22131184.1044
  20955350.538       -2419.12849     -1672.76849  20955350.3554   20955355.7464
 95  2  4 16 25 29.9990000  0  8  1 29 25 22 21 20 14 15
  23507940.471      983359.87749    757083.30349  23507944.5084   23507950.2334
  23616825.002    -2035523.95849  -1570863.48849  23616830.3634   23616834.6254
  20661995.640      -62134.14849    -47892.68849  20661997.0204   20662000.4734
  23848048.957    -2574363.07049  -1985720.70849  23848048.4464   23848054.7144
  24216380.765     1455284.60349   1120811.85549  24216381.6014   24216388.3934
  24477223.716     -111638.98449    -85702.09549  24477218.3794   24477224.8574
  22109997.148    -2323957.43149  -1796641.44249  22109998.8844   22110003.6454
  20955917.525         562.89249       650.86249  20955917.4244   20955922.8104
 95  2  4 16 25 59.9990000  0  8  1 29 25 22 21 20 14 15
  23516019.591     1025806.65349    790158.65449  23516022.6784   23516028.0184
  23598383.394    -2132440.65849  -1646383.00249  23598388.2814   23598393.0144
  20661868.595      -62804.05949    -48414.71149  20661869.7904   20661873.4974
  23824610.864    -2697532.93249  -2081697.17449  23824610.4274   23824616.4934
  24229021.637     1521723.56949   1172582.39449  24229025.8434   24229031.7274
  24476687.883     -114459.17649    -87899.67349  24476681.5624   24476688.6424
  22088799.891    -2435361.09449  -1883449.49749  22088799.9424   22088804.7094
  20956549.393        3888.55949      3242.26349  20956550.7784   20956556.1324
 95  2  4 16 26 29.9990000  0  7  1 29 25 22 21 14 15
  23524051.950     1068012.64549    823046.38349  23524053.9214   23524059.8744
  23579916.833    -2229497.95049  -1722012.06649  23579917.9034   23579923.1444
  20661784.403      -63243.78949    -48757.37449  20661786.0294   20661789.7244
  23801130.419    -2820933.85249  -2177853.66049  23801127.5314   23801133.6644
  24241656.473     1588107.71349   1224310.25149  24241657.5764   24241665.4214
  22067584.634    -2546845.57649  -1970320.52749  22067585.0644   22067589.7054
  20957246.382        7546.75149      6092.77249  20957246.8714   20957251.9194
 95  2  4 16 26 59.9990000  0  7  1 29 25 22 21 14 15
  23532046.255     1110005.58149    855768.10449  23532044.9134   23532050.8144
  23561420.761    -2326697.01049  -1797751.59349  23561421.9854   23561426.6434
  20661741.597      -63465.01849    -48929.77749  20661744.0024   20661747.8974
  23777602.660    -2944562.11549  -2274187.34849  23777602.0984   23777608.2684
  24254273.290     1654442.56349   1275999.60449  24254280.0474   24254288.7824
  22046356.963    -2658393.31749  -2057240.85049  22046358.3614   22046363.2474
  20958005.468       11541.67249      9205.67449  20958007.0474   20958012.4274
 95  2  4 16 27 29.9990000  0  7  1 29 25 22 21 14 15
  23539993.120     1151793.57149    888330.10549  23539996.6384   23540002.7314
  23542897.999    -2424032.24349  -1873597.22849  23542899.5674   23542903.7024
  20661742.636      -63460.65049    -48926.38649  20661744.7774   20661748.6474
  23754031.891    -3068419.22049  -2370699.30849  23754032.3714   23754038.7884
  24266895.110     1720733.15449   1327654.38149  24266895.3084   24266902.2834
  22025119.284    -2770002.37549  -2144208.95449  22025119.7974   22025124.6824
  20958832.362       15879.42749     12585.71349  20958832.6294   20958837.8684
 95  2  4 16 27 59.9990000  0  7  1 29 25 22 21 14 15
  23547905.256     1193361.92349    920720.97549  23547907.8144   23547912.2014
  23524349.187    -2521514.69649  -1949557.56849  23524349.1324   23524353.5034
  20661786.717      -63228.81849    -48745.75149  20661788.9094   20661792.8754
  23730420.866    -3192495.72449  -2467382.26949  23730421.4714   23730427.8684
  24279495.805     1786967.50749   1379265.50849  24279499.1854   24279506.8864
  22003867.726    -2881678.95249  -2231229.66649  22003868.3224   22003873.3024
  20959722.709       20560.53749     16233.30749  20959723.4184   20959728.6894
 95  2  4 16 28 29.9990000  0  7  1 29 25 22 21 14 15
  23555774.514     1234715.78249    952944.72149  23555776.5944   23555783.2334
  23505761.397    -2619144.43549  -2025632.69349  23505770.7194   23505774.6694
  20661877.754      -62757.67849    -48378.64349  20661878.6564   20661882.5194
  23706771.379    -3316776.76249  -2564224.60149  23706771.5414   23706777.7604
  24292085.668     1853154.42049   1430839.61949  24292093.7044   24292101.3764
  21982602.426    -2993425.83749  -2318305.16849  21982603.5294   21982608.6054
  20960680.147       25589.86349     20152.23349  20960680.4214   20960685.6834
 95  2  4 16 28 59.9990000  0  7  1 29 25 22 21 14 15
  23563598.446     1275851.74149    984998.64749  23563604.4314   23563610.1644
  23487168.639    -2716906.97249  -2101811.28649  23487167.6494   23487172.1304
  20662014.305      -62035.53349    -47815.94449  20662016.0414   20662019.7884
  23683089.140    -3441247.74949  -2661214.92249  23683085.9944   23683091.9214
  24304675.093     1919298.02149   1482380.02649  24304679.4324   24304689.1574
  21961320.216    -3105267.54949  -2405454.55849  21961320.9264   21961326.1064
  20961703.337       30970.60549     24344.99349  20961704.5554   20961709.7624
 95  2  4 16 29 29.9990000  0  6  1 29 25 22 14 15
  23571384.832     1316722.24449   1016845.73049  23571381.9364   23571387.7204
  23468537.686    -2814807.17149  -2178097.15249  23468538.0274   23468542.4534
  20662197.972      -61067.00649    -47061.26249  20662200.0504   20662204.0774
  23659363.837    -3565909.91649  -2758354.21749  23659363.1594   23659369.9034
  21940012.678    -3217232.54049  -2492700.01549  21940014.8974   21940019.8934
  20962790.044       36683.27549     28796.39649  20962791.6784   20962796.8614
 95  2  4 16 29 59.9990000  0  6  1 29 25 22 14 15
  23579108.450     1357335.46549   1048492.36149  23579110.7334   23579116.7474
  23449881.809    -2912835.75149  -2254483.06249  23449883.1864   23449887.9544
  20662432.082      -59839.27049    -46104.59649  20662434.0094   20662438.0484
  23635602.059    -3690745.75049  -2855628.81349  23635607.4984   23635613.5494
  21918685.872    -3329309.42249  -2580032.65549  21918687.3674   21918692.3204
  20963941.492       42733.17849     33510.57949  20963942.9334   20963948.1154
 95  2  4 16 30 29.9990000  0  6  1 29 25 22 14 15
  23586792.318     1397707.39449   1079950.95149  23586791.9504   23586799.1094
  23431199.001    -3010977.71449  -2330957.31149  23431208.3174   23431212.6444
  20662717.847      -58339.90249    -44936.27649  20662719.2784   20662723.3814
  23611818.234    -3815750.35749  -2953034.95149  23611820.4464   23611826.7094
  21897340.340    -3441472.43649  -2667432.41349  21897343.7564   21897348.6574
  20965158.650       49132.91549     38497.35749  20965160.7454   20965166.1444
 95  2  4 16 30 59.9990000  0  6  1 29 25 22 14 15
  23594424.079     1437832.95549   1111217.52549  23594429.2514   23594435.5424
  23412508.409    -3109222.83449  -2407511.95149  23412512.5684   23412516.7684
  20663053.381      -56577.84349    -43563.26249  20663054.5734   20663058.4604
  23587996.035    -3940915.94249  -3050566.48849  23588001.2024   23588008.0124
  21875986.117    -3553710.27549  -2754890.47949  21875985.5994   21875990.5844
  20966441.489       55886.79849     43760.09249  20966446.1024   20966451.3744
 95  2  4 16 31 29.9990000  0  6  1 29 25 22 14 15
  23602021.894     1477729.46849   1142305.69149  23602021.7454   23602026.3274
  23393795.566    -3207580.50749  -2484154.29049  23393795.0494   23393800.6364
  20663440.088      -54548.58849    -41982.04149  20663440.8854   20663445.0384
  23564153.485    -4066235.88349  -3148218.34349  23564153.9224   23564161.0534
  21854613.480    -3666008.79249  -2842395.82349  21854615.9574   21854620.9264
  20967798.024       62996.03449     49299.73149  20967798.8894   20967804.1224
 95  2  4 16 31 59.9990000  0  6  1 29 25 22 14 15
  23609574.078     1517420.61849   1173233.79949  23609574.3544   23609579.5834
  23375051.400    -3306058.12649  -2560890.09649  23375055.8884   23375060.4874
  20663871.236      -52275.99949    -40211.20949  20663873.3484   20663877.3204
  23540272.269    -4191729.55949  -3246005.56749  23540273.9204   23540280.0464
  21833237.334    -3778357.77949  -2929940.49849  21833236.5004   21833241.5334
  20969216.008       70456.00749     55112.66849  20969218.5284   20969223.9494
 95  2  4 16 32 29.9990000  0  6  1 29 25 22 14 15
  23617089.233     1556904.99149   1204000.77549  23617088.1734   23617094.1894
  23356291.199    -3404644.52949  -2637710.66849  23356295.7564   23356300.1824
  20664347.453      -49774.66349    -38262.12949  20664349.4084   20664353.4594
  23516357.870    -4317396.69749  -3343927.95249  23516360.0854   23516365.7314
  21811846.088    -3890752.88649  -3017521.11049  21811848.6474   21811853.7304
  20970702.686       78263.35249     61196.27949  20970704.2634   20970709.6544
 95  2  4 16 32 59.9990000  0  6  1 29 25 22 14 15
  23624569.603     1596219.72649   1234635.58749  23624568.8244   23624575.9854
  23337518.028    -3503311.70349  -2714594.17849  23337519.6464   23337524.7274
  20664872.137      -47022.08549    -36117.27849  20664873.0564   20664877.0994
  23492415.764    -4443208.36749  -3441962.96549  23492418.5454   23492424.6304
  21790452.672    -4003183.21649  -3105129.16849  21790453.7544   21790458.7174
  20972257.169       86435.02449     67563.78849  20972259.0994   20972264.4394
 95  2  4 16 33 29.9990000  0  6  1 29 25 22 14 15
  23632019.948     1635374.14149   1265145.45249  23632020.5764   23632025.1144
  23318728.128    -3602074.90549  -2791552.51449  23318725.9544   23318730.3104
  20665444.307      -44015.50349    -33774.50549  20665445.2134   20665449.1424
  23468442.295    -4569185.64249  -3540127.03049  23468446.5214   23468452.4384
  21769046.768    -4115657.50149  -3192771.47749  21769050.5384   21769055.6404
  20973879.819       94955.44949     74203.04549  20973880.5704   20973886.1504
 95  2  4 16 33 59.9990000  0  6  1 29 25 22 14 15
  23639435.930     1674369.93749   1295531.73949  23639440.8084   23639447.1604
  23299917.552    -3700909.58949  -2868566.55349  23299918.4204   23299923.2304
  20666065.848      -40746.17749    -31226.99949  20666067.4064   20666071.4614
  23444445.786    -4695311.57349  -3638406.92649  23444445.1724   23444451.1914
  21747642.617    -4228149.68949  -3280427.73549  21747643.9634   21747649.2804
  20975568.882      103838.03349     81124.50849  20975571.0084   20975576.4684
 95  2  4 16 34 29.9990000  0  6  1 29 25 22 14 15
  23646823.706     1713183.62449   1325776.10349  23646827.0104   23646833.2374
  23281096.085    -3799827.55049  -2945645.49049  23281095.2074   23281099.4564
  20666738.399      -37208.08649    -28470.06549  20666740.6854   20666745.0404
  23420418.937    -4821575.76749  -3736794.58349  23420417.8014   23420423.9804
  21726231.585    -4340664.40849  -3368101.54749  21726233.1694   21726238.5154
  20977327.436      113073.89549     88321.26549  20977328.5284   20977333.9414
 95  2  4 16 34 59.9990000  0  6  1 29 25 22 14 15
  23654182.516     1751840.94149   1355898.62149  23654183.3094   23654189.2794
  23262258.299    -3898827.42449  -3022788.25449  23262256.3414   23262260.7074
  20667468.743      -33374.64249    -25482.98349  20667470.2854   20667474.4804
  23396371.435    -4947949.82849  -3835267.83349  23396369.8164   23396375.5364
  21704821.132    -4453174.71049  -3455771.91549  21704823.2374   21704828.6624
  20979156.441      122685.95149     95811.15249  20979157.5014   20979163.4254
 95  2  4 16 35 29.9990000  0  6  1 29 25 22 14 15
  23661494.224     1790284.16749   1385854.31249  23661497.7734   23661504.7724
  23243389.819    -3997948.19849  -3100025.21849  23243394.1144   23243398.5604
  20668245.258      -29286.27349    -22297.26149  20668248.2624   20668252.6074
  23372292.086    -5074463.52849  -3933849.89949  23372294.0064   23372300.7294
  21683409.921    -4565699.02049  -3543453.20349  21683410.6624   21683415.9634
  20981051.170      132640.67749    103568.04949  20981052.2174   20981057.7924
 95  2  4 16 35 59.9990000  0  6  1 29 25 22 14 15
  23668771.181     1828510.54849   1415641.03949  23668772.5194   23668779.2314
  23224513.255    -4097161.22149  -3177334.08149  23224514.4124   23224519.0674
  20669076.599      -24931.14749    -18903.67549  20669077.0964   20669081.6004
  23348202.058    -5201070.09249  -4032504.32049  23348202.2884   23348209.0434
  21661997.283    -4678206.81149  -3631121.62149  21662001.2374   21662006.4484
  20983014.307      142962.72949    111611.18349  20983016.5494   20983021.9804
 95  2  4 16 36 29.9990000  0  6  1 29 25 22 14 15
  23676004.545     1866530.94549   1445267.24549  23676008.3604   23676014.5774
  23205614.368    -4196468.88849  -3254716.67649  23205616.7564   23205621.4974
  20669955.084      -20304.97249    -15298.88749  20669957.4144   20669961.8044
  23324098.094    -5327764.65749  -4131227.30849  23324092.4574   23324099.2534
  21640591.359    -4790697.28349  -3718776.54449  21640594.8464   21640600.0764
  20985052.523      153655.66649    119943.30849  20985051.3584   20985057.1354
 95  2  4 16 36 59.9990000  0  6  1 29 25 22 14 15
  23683202.387     1904354.84049   1474740.35949  23683205.1394   23683212.3344
  23186702.540    -4295863.02849  -3332166.66049  23186702.3684   23186707.1054
  20670889.444      -15398.44049    -11475.63349  20670891.2234   20670895.4034
  23299968.991    -5454536.55649  -4230010.56349  23299968.9514   23299975.7884
  21619189.916    -4903167.93849  -3806416.02349  21619192.6664   21619197.7054
  20987157.019      164724.39549    128568.26349  20987157.5874   20987163.0214
 95  2  4 16 37 29.9990000  0  6  1 29 25 22 14 15
  23690360.755     1941964.32149   1504046.35549  23690362.3734   23690369.1534
  23167772.441    -4395343.40849  -3409683.84649  23167772.1574   23167776.8554
  20671871.849      -10233.07049     -7450.68949  20671873.9164   20671878.1734
  23275829.975    -5581394.65049  -4328860.99149  23275828.6774   23275834.9634
  21597786.204    -5015646.81049  -3894061.90349  21597788.5184   21597793.5274
  20989329.532      176145.21649    137467.58249  20989330.9474   20989336.2944
 95  2  4 16 37 59.9990000  0  6  1 29 25 22 14 15
  23697485.467     1979404.68749   1533220.60549  23697486.9314   23697493.2184
  23148830.618    -4494880.68349  -3487245.37349  23148830.8794   23148835.2914
  20672911.218       -4773.91249     -3196.82149  20672912.9504   20672917.1394
  23251677.660    -5708301.95749  -4427749.75149  23251679.0794   23251685.5124
  21576383.159    -5128117.43349  -3981701.36049  21576385.9794   21576391.2204
  20991574.681      187945.47049    146662.55449  20991576.5004   20991582.3164
 95  2  4 16 38 29.9990000  0  6  1 29 25 22 14 15
  23704583.438     2016678.69049   1562265.23549  23704580.9404   23704587.3154
  23129869.940    -4594506.24249  -3564875.67849  23129872.4904   23129877.0964
  20674003.651         964.63649      1274.76149  20674004.9674   20674008.9934
  23227515.473    -5835279.11749  -4526692.95149  23227515.9174   23227522.2294
  21554978.974    -5240602.72949  -4069352.24449  21554980.8144   21554986.0324
  20993887.291      200102.77849    156135.75449  20993889.9934   20993895.3794
 95  2  4 16 38 59.9990000  0  6  1 29 25 22 14 15
  23711645.332     2053816.02049   1591203.34949  23711646.9184   23711654.5954
  23110902.620    -4694196.32049  -3642556.26349  23110901.6004   23110906.7294
  20675154.467        7013.48049      5988.12749  20675156.2354   20675160.3634
  23203345.123    -5962289.71149  -4625662.20249  23203346.7814   23203353.1814
  21533574.504    -5353078.32849  -4156995.57049  21533577.3364   21533582.2514
  20996274.475      212642.87049    165907.23449  20996276.2834   20996281.8064
 95  2  4 16 39 29.9990000  0  6  1 29 25 22 14 15
  23718686.088     2090813.57249   1620032.53649  23718687.3354   23718693.2354
  23091920.885    -4793946.85049  -3720283.95349  23091920.5064   23091924.9804
  20676364.756       13370.84649     10941.90049  20676365.9154   20676370.1754
  23179168.867    -6089347.81149  -4724668.46749  23179168.1834   23179174.5624
  21512176.233    -5465539.11349  -4244627.35549  21512176.8884   21512181.9894
  20998733.499      225565.50349    175976.78949  20998735.5364   20998741.2044
 95  2  4 16 39 59.9990000  0  6  1 29 25 22 14 15
  23725702.655     2127664.21249   1648747.26549  23725700.6814   23725706.6254
  23072919.092    -4893767.83849  -3798066.54849  23072924.9104   23072929.6204
  20677630.453       20023.85849     16126.04149  20677631.8524   20677635.9654
  23154976.349    -6216469.13949  -4823724.00549  23154977.6314   23154984.0934
  21490779.199    -5577979.36349  -4332243.14549  21490780.1634   21490785.2994
  21001264.785      238864.85249    186339.88449  21001266.2654   21001271.5944
 95  2  4 16 40 29.9990000  0  6  1 29 25 22 14 15
  23732688.409     2164388.25249   1677363.34949  23732688.6334   23732695.0964
  23053921.665    -4993629.87449  -3875881.12449  23053921.9454   23053926.5554
  20678952.595       26977.43649     21544.39349  20678955.2574   20678959.2054
  23130778.897    -6343637.77049  -4922816.39749  23130778.3444   23130785.4694
  21469391.673    -5690369.23249  -4419819.67049  21469393.0234   21469398.0904
  21003869.163      252558.09249    197009.91849  21003871.9434   21003877.4134
 95  2  4 16 40 59.9990000  0  6  1 29 25 22 14 15
  23739647.941     2200967.80049   1705866.81249  23739649.6064   23739656.2304
  23034913.245    -5093511.18049  -3953710.71449  23034915.8764   23034920.0764
  20680330.104       34212.38249     27181.99749  20680332.0844   20680336.1534
  23106571.534    -6470860.42449  -5021950.89449  23106568.7404   23106575.0604
  21448010.720    -5802714.04749  -4507361.08849  21448014.4044   21448019.4414
  21006549.154      266638.65249    207981.75749  21006551.5054   21006556.9784
 95  2  4 16 41 29.9990000  0  6  1 29 25 22 14 15
  23746583.293     2237409.35149   1734262.74949  23746584.6354   23746589.5954
  23015901.822    -5193397.56949  -4031544.26049  23015907.1714   23015912.1424
  20681757.991       41713.25949     33026.81349  20681759.3464   20681763.5014
  23082348.995    -6598127.60549  -5121120.09749  23082350.4254   23082357.0344
  21426645.792    -5914994.02649  -4594851.98849  21426648.1844   21426653.2084
  21009302.447      281107.09049    219255.83449  21009304.6994   21009309.9654
 95  2  4 16 41 59.9990000  0  6  1 29 25 22 14 15
  23753493.108     2273732.83549   1762566.72749  23753496.4694   23753503.4094
  22996896.887    -5293277.02449  -4109372.41349  22996900.8044   22996905.8914
  20683237.187       49488.53549     39085.44949  20683238.9714   20683243.2064
  23058134.775    -6725400.70949  -5220293.89649  23058131.6754   23058138.2094
  21405296.171    -6027192.30449  -4682279.22449  21405297.7364   21405302.6924
  21012132.976      295974.65249    230840.92649  21012133.9114   21012139.4914
 95  2  4 16 42 29.9990000  0  6  1 29 25 22 14 15
  23760381.624     2309924.31849   1790767.79949  23760384.5134   23760389.6054
  22977891.993    -5393160.87949  -4187203.99349  22977893.9704   22977898.5334
  20684769.362       57540.14449     45359.40949  20684771.1704   20684775.3884
  23033909.496    -6852686.06749  -5319477.25249  23033909.7574   23033916.4664
  21383962.107    -6139313.65149  -4769646.51049  21383961.8684   21383966.6344
  21015035.564      311231.52249    242729.36749  21015037.3764   21015042.8744
 95  2  4 16 42 59.9990000  0  6  1 29 25 22 14 15
  23767242.962     2345996.65649   1818876.05749  23767248.0564   23767254.6314
  22958884.801    -5493047.75949  -4265037.93749  22958886.1414   22958890.8174
  20686358.880       65893.17849     51868.24949  20686360.6764   20686364.9454
  23009691.009    -6979963.35049  -5418654.30449  23009689.5714   23009695.9734
  21362642.625    -6251335.95049  -4856936.62049  21362644.4934   21362649.4944
  21018015.391      326894.66049    254934.38049  21018018.0444   21018023.5844
 95  2  4 16 43 29.9990000  0  6  1 29 25 22 14 15
  23774094.146     2381957.75549   1846897.62049  23774091.0284   23774097.7154
  22939868.916    -5592960.72049  -4342892.19649  22939873.1564   22939877.6934
  20688008.829       74568.42349     58628.15549  20688011.4254   20688015.5894
  22985471.275    -7107224.50949  -5517818.80549  22985472.5834   22985479.3034
  21341345.989    -6363248.74049  -4944141.39749  21341348.2144   21341353.0094
  21021076.639      342966.63849    267457.96549  21021076.2824   21021081.8394
 95  2  4 16 43 59.9990000  0  6  1 29 25 22 14 15
  23780909.334     2417788.14849   1874817.32649  23780910.5884   23780915.5934
  22920853.110    -5692910.69649  -4420775.30549  22920853.5094   22920858.0704
  20689723.491       83572.15249     65644.02749  20689724.8934   20689728.9544
  22961255.934    -7234477.22649  -5616976.71849  22961257.3274   22961263.8624
  21320069.914    -6475061.01849  -5031267.84949  21320071.0874   21320075.9974
  21024208.472      359439.37449    280293.83449  21024211.1734   21024216.2814
 95  2  4 16 44 29.9990000  0  6  1 29 25 22 14 15
  23787701.822     2453494.60249   1902640.48749  23787704.1124   23787710.9744
  22901823.268    -5792899.11549  -4498688.36149  22901825.6314   22901830.6004
  20691500.494       92906.97849     72917.90449  20691500.9254   20691505.0494
  22937041.983    -7361706.93649  -5716116.69649  22937046.1954   22937051.9824
  21298815.560    -6586760.25749  -5118306.21949  21298815.0704   21298819.8894
  21027420.015      376318.12849    293446.08549  21027422.6724   21027427.8884
 95  2  4 16 44 59.9980000  0  6  1 29 25 22 14 15
  23794476.968     2489088.72949   1930376.11049  23794477.8254   23794483.4814
  22882792.925    -5892912.69449  -4576621.03249  22882793.9514   22882798.2754
  20693339.671      102580.19449     80455.45549  20693341.5554   20693345.4434
  22912847.436    -7488876.79249  -5815210.05649  22912846.6124   22912852.0164
  21277581.341    -6698333.33749  -5205246.28249  21277583.5124   21277588.4074
  21030712.239      393613.64449    306923.08049  21030714.0384   21030719.1224
 95  2  4 16 45 29.9980000  0  6  1 29 25 22 14 15
  23801227.975     2524575.67849   1958028.19049  23801230.5324   23801237.1764
  22863757.067    -5992932.11049  -4654558.24749  22863760.7984   22863765.4994
  20695247.990      112607.68949     88269.06249  20695250.1224   20695253.9344
  22888659.851    -7615976.91649  -5914249.07749  22888660.4224   22888665.7854
  21256374.820    -6809775.60949  -5292084.42549  21256377.0954   21256382.0864
  21034083.146      411331.38449    320729.08149  21034085.5134   21034090.9404
 95  2  4 16 45 59.9980000  0  6  1 29 25 22 14 15
  23807965.016     2559971.10049   1985608.97449  23807966.2004   23807972.5794
  22844729.673    -6092934.75049  -4732482.38249  22844730.8124   22844735.9264
  20697222.536      122976.97249     96349.00549  20697223.7204   20697227.6234
  22864487.222    -7742990.56849  -6013220.71149  22864490.1294   22864496.1984
  21235196.131    -6921075.47449  -5378811.59649  21235197.5004   21235202.5254
  21037534.743      429472.84149    334865.25049  21037537.8324   21037543.5654
 95  2  4 16 46 29.9980000  0  6  1 29 25 22 14 15
  23814690.333     2595295.98749   2013134.78949  23814687.1304   23814694.5924
  22825700.816    -6192920.55549  -4810393.40249  22825703.9844   22825708.3954
  20699259.164      133688.18849    104695.38649  20699261.8044   20699265.4234
  22840334.064    -7869920.77949  -6112127.32749  22840336.1064   22840341.3784
  21214043.066    -7032231.08649  -5465426.36349  21214044.9874   21214049.8924
  21041071.559      448039.61749    349332.83949  21041070.8424   21041076.4144
 95  2  4 16 46 59.9980000  0  6  1 29 25 22 14 15
  23821401.587     2630561.12249   2040614.05549  23821399.1324   23821405.7284
  22806683.556    -6292879.65449  -4888283.61849  22806682.9214   22806687.8944
  20701365.426      144751.63149    113316.22749  20701367.3994   20701371.0914
  22816194.245    -7996781.65049  -6210979.91649  22816195.2844   22816200.9554
  21192922.034    -7143232.88049  -5551921.27949  21192922.4324   21192927.3184
  21044683.302      467032.68549    364132.59849  21044685.2394   21044691.0984
 95  2  4 16 47 29.9980000  0  6  1 29 25 22 14 15
  23828099.455     2665787.21849   2068062.87449  23828102.2374   23828109.9764
  22787664.918    -6392803.52149  -4966146.36949  22787668.4844   22787672.8154
  20703537.273      156168.04549    122212.11249  20703539.9874   20703543.8204
  22792064.939    -8123574.21349  -6309779.28549  22792067.5694   22792073.4944
  21171829.122    -7254067.69149  -5638286.07549  21171831.1624   21171836.3504
  21048380.315      486458.59449    379269.64149  21048382.1294   21048387.6694
 95  2  4 16 47 59.9980000  0  6  1 29 25 22 14 15
  23834800.993     2700982.64949   2095487.79649  23834799.5324   23834806.3624
  22768655.031    -6492701.92449  -5043989.29149  22768658.0144   22768662.2004
  20705777.048      167932.65749    131379.32049  20705778.5284   20705782.2784
  22767949.178    -8250296.70749  -6408524.04049  22767953.2284   22767959.1694
  21150770.269    -7364731.19949  -5724517.38449  21150772.3084   21150777.3544
  21052158.188      506321.41649    394747.13249  21052161.7594   21052167.5214
 95  2  4 16 48 29.9980000  0  6  1 29 25 22 14 15
  23841492.101     2736131.08149   2122876.10949  23841488.9264   23841494.8064
  22749654.145    -6592569.55349  -5121808.22949  22749653.8744   22749658.6514
  20708083.539      180056.19649    140826.21249  20708085.4644   20708089.1274
  22743852.428    -8376944.22249  -6507210.37349  22743852.8134   22743858.5584
  21129748.454    -7475210.56949  -5810605.21449  21129748.9884   21129753.9924
  21056025.378      526628.18649    410570.55349  21056026.2624   21056031.8794
 95  2  4 16 48 59.9980000  0  6  1 29 25 22 14 15
  23848162.436     2771215.05649   2150214.20049  23848164.8664   23848171.0174
  22730654.326    -6692396.92849  -5199595.79249  22730657.2854   22730661.7864
  20710455.986      192527.93549    150544.42849  20710458.7654   20710462.3904
  22719768.439    -8503504.08149  -6605828.40349  22719768.7494   22719774.9514
  21108757.809    -7585505.39149  -5896549.23649  21108760.5284   21108765.4824
  21059971.848      547376.06149    426737.69949  21059974.3634   21059979.5784
 95  2  4 16 49 29.9980000  0  6  1 29 25 22 14 15
  23854830.387     2806239.22949   2177505.67449  23854829.3304   23854836.6824
  22711669.525    -6792167.34149  -5277338.97649  22711671.5974   22711675.6784
  20712896.930      205348.78349    160534.67449  20712898.6104   20712902.1394
  22695706.343    -8629954.41649  -6704361.08249  22695706.5644   22695712.1214
  21087807.165    -7695612.67249  -5982347.12349  21087807.7544   21087812.6754
  21064005.883      568572.02949    443254.00849  21064007.8554   21064012.8384
 95  2  4 16 49 59.9980000  0  6  1 29 25 22 14 15
  23861488.298     2841208.16249   2204754.10149  23861484.1134   23861491.2884
  22692696.260    -6891868.97049  -5355028.57249  22692698.9184   22692703.4314
  20715404.579      218525.56249    170802.27049  20715406.0344   20715409.6034
  22671665.633    -8756272.67649  -6802790.84949  22671668.5514   22671674.6754
  21066893.027    -7805520.96749  -6067989.95749  21066893.0044   21066897.9004
  21068127.812      590223.27349    460125.07349  21068128.1484   21068133.5094
 95  2  4 16 50 29.9980000  0  6  1 29 25 22 14 15
  23868130.255     2876134.22149   2231969.13349  23868129.9904   23868136.7594
  22673740.106    -6991480.16449  -5432647.67949  22673742.9444   22673747.7314
  20717979.110      232058.82749    181347.65649  20717980.7194   20717984.2974
  22647656.208    -8882446.52149  -6901108.07549  22647658.2024   22647664.4384
  21046015.756    -7915228.53649  -6153476.37549  21046015.8354   21046020.7104
  21072334.319      612332.64549    477353.12649  21072334.7524   21072340.0084
 95  2  4 16 50 59.9980000  0  6  1 29 25 22 14 15
  23874776.360     2911054.67349   2259179.79949  23874775.5054   23874781.9234
  22654803.099    -7090994.18549  -5510191.08449  22654805.9554   22654811.2484
  20720626.104      245962.71349    192181.82649  20720626.8694   20720630.4594
  22623680.789    -9008452.68449  -6999294.65049  22623680.1234   22623685.8094
  21025176.578    -8024726.45849  -6238799.43849  21025179.2664   21025184.0874
  21076629.162      634904.91049    494941.87149  21076630.0244   21076635.4984
 95  2  4 16 51 29.9980000  0  6  1 29 25 22 14 15
  23881420.538     2945979.97549   2286394.26549  23881421.1874   23881427.5414
  22635889.627    -7190404.92649  -5587654.00949  22635889.2004   22635893.9414
  20723345.138      260253.01149    203317.09849  20723346.4054   20723350.1464
  22599738.112    -9134260.37449  -7097326.57349  22599739.5814   22599746.0024
  21004384.874    -8133986.08649  -6323936.82249  21004388.0404   21004392.8314
  21081012.097      657949.83849    512898.91949  21081015.6644   21081021.3484
 95  2  4 16 51 59.9980000  0  6  1 29 25 22 14 15
  23888070.078     2980904.72549   2313608.25449  23888067.4954   23888075.0774
  22616989.515    -7289716.95149  -5665040.00849  22616991.3904   22616995.6434
  20726138.814      274935.65949    214758.09849  20726140.4114   20726144.1094
  22575835.721    -9259863.02049  -7195198.72049  22575838.0124   22575844.0204
  20983642.435    -8242994.09649  -6408878.13549  20983644.4574   20983649.3034
  21085490.422      681469.86049    531226.16949  21085491.4174   21085496.9554
 95  2  4 16 52 29.9980000  0  6  1 29 25 22 14 15
  23894715.599     3015837.73349   2340828.72049  23894715.0754   23894722.0594
  22598112.969    -7388914.66949  -5742336.93149  22598114.1474   22598118.8854
  20729011.940      290031.45249    226521.03249  20729012.9834   20729016.6744
  22551977.392    -9385249.83249  -7292902.67349  22551978.1264   22551984.2504
  20962952.643    -8351730.88049  -6493608.10149  20962952.5904   20962957.3934
  21090057.444      705474.30849    549930.90449  21090059.4514   21090064.6524
 95  2  4 16 52 59.9980000  0  6  1 29 25 22 14 15
  23901367.358     3050784.20349   2368059.66649  23901365.3514   23901372.3244
  22579252.434    -7488012.12049  -5819555.72449  22579256.4464   22579261.5964
  20731962.827      305544.48449    238609.07949  20731965.0914   20731969.0394
  22528158.951    -9510411.60349  -7390431.27849  22528160.4854   22528166.4494
  20942314.583    -8460174.18249  -6578109.38449  20942316.7584   20942321.4364
  21094717.786      729965.07849    569014.58849  21094719.9384   21094725.6464
 95  2  4 16 53 29.9980000  0  6  1 29 25 22 14 15
  23908016.963     3085745.64649   2395302.29649  23908018.0634   23908025.1304
  22560419.022    -7587008.13749  -5896695.48049  22560418.3894   22560422.6204
  20734996.089      321479.55649    251025.99749  20734997.4194   20735001.1164
  22504385.492    -9635350.49749  -7487786.21149  22504385.4474   22504391.1644
  20921735.241    -8568316.44049  -6662376.08449  20921737.8804   20921742.6154
  21099473.326      754950.20649    588483.47649  21099474.5054   21099480.0134
 95  2  4 16 53 59.9980000  0  6  1 29 25 22 14 15
  23914676.080     3120749.71649   2422578.10449  23914679.5284   23914686.2234
  22541600.295    -7685892.46449  -5973748.20349  22541600.9984   22541605.7124
  20738110.263      337849.46549    263781.74749  20738112.2284   20738116.0904
  22480649.612    -9760077.69349  -7584976.18349  22480650.2084   22480656.4624
  20901215.019    -8676158.58249  -6746408.92449  20901215.9224   20901220.6694
  21104322.511      780437.23549    608343.46349  21104324.3454   21104329.6024
 95  2  4 16 54 29.9980000  0  6  1 29 25 22 14 15
  23921348.926     3155828.54049   2449912.17549  23921355.1374   23921359.8944
  22522813.806    -7784643.73649  -6050697.24749  22522809.2694   22522814.5184
  20741311.664      354669.98649    276888.62349  20741313.2894   20741317.1614
  22456959.002    -9884569.37749  -7681982.63749  22456960.5904   22456966.5784
  20880752.330    -8783683.83949  -6830194.84449  20880754.7064   20880759.5534
  21109270.727      806440.63049    628605.81649  21109272.6704   21109278.1594
 95  2  4 16 54 59.9980000  0  6  1 29 25 22 14 15
  23928044.437     3190982.51349   2477304.84249  23928044.8064   23928050.9364
  22504042.879    -7883262.34149  -6127542.91749  22504043.1724   22504047.1944
  20744597.040      371934.02749    290341.09549  20744598.5334   20744602.3174
  22433314.654   -10008821.25449  -7778802.24049  22433316.1054   22433321.7344
  20860352.172    -8890894.09649  -6913735.31249  20860353.1214   20860357.9734
  21114316.182      832962.07649    649271.83849  21114319.6994   21114325.2104
 95  2  4 16 55 29.9980000  0  6  1 29 25 22 14 15
  23934748.270     3226202.49849   2504748.91649  23934747.0694   23934753.0754
  22485306.325    -7981725.16349  -6204267.20449  22485306.1344   22485310.4924
  20747968.180      389653.65149    304148.56649  20747970.6684   20747974.6004
  22409717.208   -10132835.98449  -7875437.06549  22409717.3104   22409722.8034
  20840010.823    -8997785.90749  -6997027.64049  20840012.6404   20840017.5594
  21119464.849      860002.19649    670342.01849  21119465.4514   21119470.9364
 95  2  4 16 55 59.9980000  0  6  1 29 25 22 14 15
  23941461.305     3261489.39149   2532245.12749  23941460.8204   23941469.0204
  22466600.401    -8080004.64049  -6280848.61549  22466604.4034   22466609.3124
  20751427.253      407827.84549    318310.24849  20751429.3004   20751433.1774
  22386165.926   -10256583.02249  -7971863.29349  22386169.0784   22386175.1034
  20819734.503    -9104345.21649  -7080060.87649  20819735.1694   20819740.1254
  21124708.317      887569.60249    691823.08349  21124711.3964   21124716.9124
 95  2  4 16 56 29.9980000  0  6  1 29 25 22 14 15
  23948182.842     3296832.50249   2559785.14149  23948186.5704   23948193.0694
  22447936.049    -8178092.54449  -6357280.73649  22447938.6814   22447942.8484
  20754972.349      426447.71749    332819.21949  20754972.1944   20754976.1494
  22362674.693   -10380045.02349  -8068067.40449  22362674.3944   22362679.9854
  20799519.532    -9210572.49549  -7162835.37649  20799520.2964   20799525.1624
  21130056.224      915663.94849    713714.75049  21130057.0394   21130062.8304
 95  2  4 16 56 59.9980000  0  6  1 29 25 22 14 15
  23954925.102     3332242.36349   2587377.17249  23954925.7434   23954931.8894
  22429310.265    -8275976.15749  -6433553.68849  22429312.2304   22429316.3944
  20758602.072      445525.17249    347684.73349  20758602.7864   20758606.8314
  22339236.456   -10503201.23449  -8164033.27049  22339238.7384   22339244.2374
  20779368.565    -9316456.26249  -7245342.21549  20779371.8284   20779376.5124
  21135506.346      944299.01149    736027.73549  21135506.6444   21135512.1034
 95  2  4 16 57 29.9980000  0  6  1 29 25 22 14 15
  23961684.373     3367740.30149   2615037.83149  23961681.2404   23961687.8584
  22410725.114    -8373654.47249  -6509666.65849  22410724.4414   22410729.1564
  20762318.468      465056.17149    362903.66949  20762319.5864   20762323.6254
  22315861.125   -10626030.93949  -8259744.69249  22315865.0614   22315871.0404
  20759285.346    -9421999.96149  -7327584.06249  20759287.3944   20759292.1614
  21141056.190      973476.19049    758763.16949  21141059.2504   21141064.1044
 95  2  4 16 57 59.9980000  0  6  1 29 25 22 14 15
  23968445.720     3403338.99649   2642776.99349  23968454.3444   23968460.1334
  22392171.415    -8471138.57349  -6585628.29349  22392173.4424   22392178.5154
  20766118.708      485031.26449    378468.65349  20766120.2494   20766124.2784
  22292553.358   -10748516.02349  -8355187.58349  22292556.5644   22292562.5444
  20739264.665    -9527212.80949  -7409568.10049  20739266.0084   20739270.5784
  21146714.989     1003194.10849    781919.96349  21146714.1474   21146719.4004
 95  2  4 16 58 29.9980000  0  6  1 29 25 22 14 15
  23975244.510     3439050.29349   2670603.95349  23975249.0054   23975256.8464
  22373654.785    -8568430.84449  -6661440.45249  22373659.6674   22373663.8604
  20770007.796      505470.52149    394395.32349  20770009.6144   20770013.8184
  22269312.668   -10870651.97149  -8450358.43349  22269314.7864   22269320.3094
  20719308.413    -9632071.85149  -7491276.44849  20719311.8564   20719316.4094
  21152471.443     1033456.01649    805500.62949  21152472.5864   21152478.1404
 95  2  4 16 58 59.9980000  0  6  1 29 25 22 14 15
  23982055.549     3474878.05349   2698521.58949  23982067.5314   23982076.0704
  22355177.312    -8665530.72949  -6737102.70249  22355181.6764   22355185.9094
  20773987.509      526382.24549    410690.14349  20773988.9294   20773993.0314
  22246143.018   -10992424.29749  -8545245.94749  22246142.1474   22246147.6104
  20699429.221    -9736541.55349  -7572681.41749  20699431.8604   20699436.3734
  21158334.390     1064264.98049    829507.57849  21158335.2194   21158340.6514
 95  2  4 16 59 29.9980000  0  6  1 29 25 22 14 15
  23988903.846     3510816.93849   2726525.78649  23988906.8604   23988913.3264
  22336740.861    -8762421.20249  -6812601.77949  22336744.5134   22336748.8764
  20778058.790      547775.30849    427360.03149  20778059.9074   20778064.0794
  22223034.677   -11113832.77449  -8639849.93649  22223039.1874   22223044.4664
  20679629.459    -9840602.49649  -7653767.87249  20679629.9534   20679634.3954
  21164299.570     1095623.94749    853943.09549  21164302.8084   21164308.3804
 95  2  4 16 59 59.9980000  0  6  1 29 25 22 14 15
  23995755.631     3546858.88649   2754610.38249  23995765.2924   23995773.3124
  22318348.087    -8859085.58749  -6887924.67849  22318349.7604   22318354.3974
  20782224.320      569669.01949    444420.03549  20782226.3064   20782230.4144
  22200007.069   -11234877.63549  -8734170.58849  22200005.4594   22200010.7814
  20659909.776    -9944223.84049  -7734511.78649  20659911.4594   20659916.0244
  21170373.019     1127536.12049    878809.67849  21170375.6324   21170381.2404
 95  2  4 17  0 29.9980000  0  6  1 29 25 22 14 15
  24002642.527     3583003.51049   2782774.90949  24002642.5674   24002650.7374
  22299998.325    -8955518.02049  -6963066.84249  22299999.2914   22300003.1634
  20786486.417      592062.54949    461869.51349  20786487.6244   20786491.5544
  22177038.281   -11355565.27349  -8828212.89649  22177038.9884   22177043.7314
  20640277.530   -10047389.88449  -7814900.91349  20640279.4354   20640284.0544
  21176550.720     1160002.61649    904108.20949  21176553.6984   21176559.0804
 95  2  4 17  0 59.9980000  0  6  1 29 25 22 14 15
  24009540.720     3619262.95749   2811028.96749  24009543.9794   24009551.9884
  22281691.817    -9051716.41149  -7038026.64549  22281694.3324   22281698.9804
  20790842.376      614953.14249    479706.30049  20790844.3264   20790848.6484
  22154140.342   -11475895.09449  -8921976.40449  22154141.6164   22154146.8774
  20620729.683   -10150113.92649  -7894945.63549  20620732.4414   20620737.4374
  21182838.101     1193030.13749    929843.89249  21182839.2644   21182844.9414
 95  2  4 17  1 29.9980000  0  6  1 29 25 22 14 15
  24016469.659     3655660.36349   2839390.45449  24016470.1514   24016478.0934
  22263430.890    -9147685.15449  -7112807.48249  22263431.3624   22263436.0034
  20795295.533      638347.95849    497936.00149  20795295.7274   20795299.7064
  22131310.299   -11595865.88549  -9015460.13649  22131311.6924   22131316.7904
  20601263.238   -10252408.87849  -7974655.99249  20601266.0274   20601270.5874
  21189230.790     1226622.74749    956019.91649  21189231.2894   21189236.6144
 95  2  4 17  1 59.9980000  0  6  1 29 25 22 14 15
  24023427.469     3692202.55849   2867864.79449  24023424.6154   24023430.4754
  22245207.976    -9243449.14849  -7187428.77449  22245207.8974   22245212.3624
  20799837.410      662229.43249    516544.91149  20799840.2544   20799844.3004
  22108550.663   -11715471.31849  -9108659.16949  22108551.0274   22108556.1654
  20581878.659   -10354284.29949  -8054039.44149  20581879.4484   20581884.1694
  21195727.847     1260770.25849    982628.32649  21195729.1684   21195734.6574
 95  2  4 17  2 29.9980000  0  6  1 29 25 22 14 15
  24030405.987     3728891.92749   2896453.84549  24030405.9844   24030414.3784
  22227022.325    -9339014.01649  -7261894.92649  22227023.0804   22227027.1024
  20804475.491      686588.29249    535525.80549  20804475.7494   20804479.7864
  22085860.425   -11834709.05649  -9201571.69849  22085861.2014   22085866.2804
  20562569.310   -10455751.42249  -8133104.74449  20562571.1614   20562575.9474
  21202331.094     1295471.66949   1009668.33849  21202332.9964   21202338.5584
 95  2  4 17  2 59.9980000  0  6  1 29 25 22 14 15
  24037416.968     3765729.94949   2925158.66149  24037416.8954   24037423.3304
  22208871.043    -9434378.53349  -7336204.94049  22208875.0714   22208879.9444
  20809199.919      711417.85749    554873.48849  20809200.4224   20809204.2894
  22063241.476   -11953568.06049  -9294189.09149  22063242.6714   22063248.1414
  20543339.703   -10556811.56149  -8211852.90749  20543339.8864   20543344.4244
  21209040.126     1330719.06049   1037133.79549  21209040.1124   21209045.6544
 95  2  4 17  3 29.9980000  0  6  1 29 25 22 14 15
  24044456.970     3802746.89449   2954002.99349  24044459.3374   24044467.0854
  22190774.003    -9529491.22949  -7410318.73049  22190775.7414   22190780.5164
  20814019.482      736752.40049    574614.65949  20814021.2714   20814025.2444
  22040702.737   -12071996.24249  -9386470.77449  22040706.1894   22040712.3854
  20524195.759   -10657411.46049  -8290242.44949  20524196.3334   20524200.8754
  21215855.980     1366541.06349   1065046.99849  21215856.9904   21215862.3954
 95  2  4 17  3 59.9980000  0  6  1 29 25 22 14 15
  24051541.338     3839959.92249   2983000.01849  24051541.6664   24051550.1934
  22172731.440    -9624301.65049  -7484197.00149  22172734.1834   22172738.6554
  20818942.656      762616.67549    594768.59549  20818943.6374   20818947.8794
  22018260.701   -12189947.74849  -9478381.02749  22018261.6514   22018267.2684
  20505148.743   -10757503.75449  -8368236.46149  20505149.8254   20505154.4624
  21222789.316     1402969.87349   1093433.03349  21222789.5014   21222795.0654
 95  2  4 17  4 29.9980000  0  6  1 29 25 22 14 15
  24058659.086     3877354.33649   3012138.40449  24058658.2844   24058664.7704
  22154748.146    -9718808.17249  -7557838.45749  22154750.5564   22154754.6194
  20823962.922      789002.39249    615328.86149  20823964.8104   20823969.0954
  21995905.278   -12307432.26249  -9569927.38949  21995905.4804   21995911.3224
  20486197.391   -10857092.02149  -8445837.71549  20486199.0704   20486203.7494
  21229833.660     1439993.95149   1122282.91549  21229835.0064   21229840.8604
 95  2  4 17  4 59.9980000  0  6  1 29 25 22 14 15
  24065808.042     3914927.70049   3041416.32849  24065808.3234   24065815.5094
  22136825.887    -9813010.89149  -7631243.18249  22136824.7054   22136829.0594
  20829083.980      815916.78949    636301.08649  20829086.4284   20829090.8434
  21973636.257   -12424440.83149  -9661102.88449  21973639.4014   21973645.8514
  20467344.681   -10956166.12349  -8523038.31949  20467345.7984   20467350.8634
  21236991.489     1477614.76349   1151597.78949  21236994.2094   21237000.1284
 95  2  4 17  5 29.9970000  0  6  1 29 25 22 14 15
  24072988.968     3952673.04449   3070828.19049  24072991.6884   24072998.4844
  22118955.779    -9906912.19549  -7704413.03849  22118955.8454   22118960.2544
  20834308.085      843365.78449    657689.87649  20834309.7864   20834314.1854
  21951462.656   -12540964.04949  -9751900.18249  21951465.7084   21951471.7194
  20448589.747   -11054722.51149  -8599835.51249  20448591.1204   20448596.1354
  21244266.833     1515837.83449   1181381.95449  21244267.7604   21244273.6044
 95  2  4 17  5 59.9970000  0  6  1 29 25 22 14 15
  24080201.370     3990599.40449   3100381.13149  24080208.0764   24080214.4614
  22101138.161   -10000532.07149  -7777363.60749  22101140.4744   22101144.5614
  20839633.798      871347.91549    679494.09349  20839634.7394   20839639.2374
  21929376.544   -12657027.10149  -9842338.91249  21929379.6464   21929385.1324
  20429931.411   -11152767.06349  -8676233.87549  20429933.7734   20429938.8364
  21251653.691     1554663.49249   1211635.66249  21251656.0014   21251661.7684
 95  2  4 17  6 29.9970000  0  6  1 29 25 22 14 15
  24087462.459     4028723.99649   3130088.45449  24087462.8474   24087470.7444
  22083377.021   -10093869.15249  -7850093.80949  22083379.0394   22083383.3974
  20845061.246      899866.94049    701716.67249  20845061.7914   20845066.2684
  21907378.470   -12772635.26249  -9932423.18049  21907379.7584   21907385.5344
  20411372.769   -11250296.59549  -8752230.92049  20411374.4284   20411379.4934
  21259157.246     1594085.87749   1242354.35049  21259157.9144   21259163.7764
 95  2  4 17  6 59.9970000  0  6  1 29 25 22 14 15
  24094763.825     4067062.13749   3159962.19449  24094759.0354   24094766.8254
  22065666.281   -10186923.20649  -7922603.46549  22065671.4034   22065675.9434
  20850591.990      928934.55049    724366.72249  20850593.1464   20850597.4274
  21885470.572   -12887778.19349 -10022144.92449  21885469.3284   21885474.7424
  20392912.536   -11347302.49149  -8827819.93849  20392914.9994   20392919.9484
  21266773.089     1634108.14649   1273540.48849  21266773.8674   21266779.7024
 95  2  4 17  7 29.9970000  0  6  1 29 25 22 14 15
  24102099.587     4105643.80349   3190025.71549  24102100.2004   24102106.3164
  22048021.282   -10279669.04949  -7994872.96149  22048022.3044   22048027.0504
  20856227.535      958555.79749    747448.17449  20856230.0964   20856234.3324
  21863648.836   -13002435.40049 -10111488.17949  21863650.5084   21863656.0264
  20374558.034   -11443757.93849  -8902980.03949  20374560.0604   20374565.1644
  21274502.926     1674739.21649   1305201.01249  21274505.9684   21274511.7424
 95  2  4 17  7 59.9970000  0  6  1 29 25 22 14 15
  24109489.661     4144484.21949   3220290.97949  24109490.7594   24109497.1794
  22030433.466   -10372087.15649  -8066887.07749  22030435.8394   22030440.3654
  20861972.043      988741.68449    770969.60549  20861974.1294   20861978.4544
  21841924.389   -13116593.05049 -10200442.17649  21841926.8584   21841932.6444
  20356311.168   -11539644.52749  -8977696.87549  20356313.4794   20356318.5044
  21282354.429     1715982.39549   1337338.50849  21282354.2504   21282360.2444
 95  2  4 17  8 29.9970000  0  6  1 29 25 22 14 15
  24116926.534     4183571.91649   3250748.81449  24116930.4574   24116937.7234
  22012910.723   -10464171.23849  -8138640.91149  22012912.5834   22012917.7814
  20867824.694     1019498.50549    794935.92249  20867827.1884   20867831.5624
  21820304.081   -13230221.45249 -10288983.75949  21820304.4094   21820309.9744
  20338171.119   -11634968.12249  -9051975.00849  20338174.0194   20338179.2284
  21290315.591     1757837.51749   1369952.83349  21290318.9544   21290325.2684
 95  2  4 17  8 59.9970000  0  5 29 25 22 14 15
  21995449.280   -10555928.16649  -8210139.82449  21995451.6494   21995456.9984
  20873782.372     1050812.70149    819336.55249  20873786.0174   20873790.4454
  21798784.879   -13343312.47349 -10377106.60749  21798783.4744   21798789.2424
  20320137.444   -11729738.38849  -9125821.98149  20320139.9714   20320144.9484
  21298397.890     1800301.78949   1403041.81749  21298399.7084   21298405.4724
 95  2  4 17  9 29.9970000  0  5 29 25 22 14 15
  21978053.541   -10647353.68949  -8281380.50149  21978054.1504   21978059.1084
  20879848.127     1082674.23849    844163.68249  20879849.0404   20879853.2904
  21777366.121   -13455866.37449 -10464810.91849  21777365.1594   21777370.4634
  20302209.439   -11823956.70749  -9199238.86449  20302210.8074   20302215.6834
  21306595.056     1843374.28149   1436604.74849  21306596.1584   21306602.0704
 95  2  4 17  9 59.9970000  0  5 29 25 22 14 15
  21960714.160   -10738455.48049  -8352368.92149  21960718.5174   21960722.7884
  20886014.246     1115083.88349    869417.91049  20886016.5914   20886020.8404
  21756049.611   -13567882.30749 -10552096.03349  21756049.5814   21756055.0354
  20284383.722   -11917632.40849  -9272232.92449  20284384.8364   20284389.9904
  21314906.421     1887055.53149   1470642.02649  21314908.6024   21314914.3984
 95  2  4 17 10 29.9970000  0  5 29 25 22 14 15
  21943444.106   -10829226.54449  -8423099.62949  21943444.9264   21943449.8954
  20892286.329     1148038.16149    895096.52749  20892287.3744   20892291.6134
  21734838.439   -13679350.44349 -10638954.29749  21734837.4584   21734842.7574
  20266661.060   -12010755.34649  -9344796.26549  20266664.0434   20266668.9744
  21323334.894     1931348.64249   1505156.08249  21323337.1574   21323342.8714
 95  2  4 17 10 59.9970000  0  5 29 25 22 14 15
  21926234.820   -10919669.16849  -8493574.40849  21926234.4954   21926239.6064
  20898659.197     1181532.12149    921195.67649  20898661.3254   20898665.6144
  21713730.605   -13790281.43549 -10725394.00849  21713728.4074   21713733.5594
  20249051.429   -12103303.59549  -9416911.79549  20249052.8754   20249057.9774
  21331881.330     1976249.29049   1540143.55349  21331881.8384   21331887.6164
 95  2  4 17 11 29.9970000  0  5 29 25 22 14 15
  21909083.742   -11009775.14949  -8563786.87349  21909088.0114   21909092.8384
  20905139.458     1215578.73849    947725.46849  20905140.2284   20905144.4134
  21692724.123   -13900657.78849 -10811401.53049  21692724.7614   21692729.7134
  20231553.633   -12195256.43949  -9488563.37549  20231554.5904   20231559.4994
  21340541.761     2021759.56649   1575606.04949  21340542.0494   21340548.2094
 95  2  4 17 11 59.9970000  0  5 29 25 22 14 15
  21892002.242   -11099555.00949  -8633745.21449  21892003.1684   21892008.1554
  20911722.457     1250181.52549    974688.63749  20911724.9404   20911729.2384
  21671825.274   -14010472.34149 -10896971.28949  21671827.3344   21671832.9984
  20214166.375   -12286618.30549  -9559754.45149  20214169.1804   20214173.9624
  21349315.942     2067870.04649   1611536.23449  21349316.7464   21349322.6294
 95  2  4 17 12 29.9970000  0  5 29 25 22 14 15
  21874982.405   -11188996.47849  -8703439.87349  21874983.3774   21874988.4544
  20918416.327     1285351.01749   1002093.39549  20918417.6564   20918422.0454
  21651040.491   -14119714.87949 -10982095.31849  21651039.2714   21651045.3844
  20196896.616   -12377383.32349  -9630480.44749  20196897.2814   20196902.4894
  21358203.051     2114580.29949   1647933.78549  21358205.3634   21358211.5874
 95  2  4 17 12 59.9970000  0  5 29 25 22 14 15
  21858024.849   -11278103.61549  -8772874.02149  21858026.7034   21858031.8734
  20925217.996     1321101.81049   1029951.11349  20925220.8334   20925225.3364
  21630360.713   -14228373.30349 -11066764.19649  21630361.8764   21630368.0464
  20179737.114   -12467548.38049  -9700738.94449  20179739.4904   20179744.6854
  21367207.600     2161897.58849   1684804.34449  21367209.7504   21367216.0964
 95  2  4 17 13 29.9970000  0  5 29 25 22 14 15
  21841127.942   -11366881.04549  -8842051.25349  21841133.0074   21841137.8144
  20932131.106     1357421.70549   1058252.28349  20932132.1714   20932136.5654
  21609794.396   -14336449.60849 -11150979.48249  21609795.9114   21609802.0454
  20162690.216   -12557141.11549  -9770551.47749  20162690.5204   20162695.7164
  21376324.710     2209812.16449   1722140.31649  21376327.2484   21376333.8744
 95  2  4 17 13 59.9970000  0  5 29 25 22 14 15
  21824298.044   -11455339.34649  -8910979.81149  21824299.8954   21824304.6084
  20939145.897     1394286.49849   1086978.04949  20939147.3324   20939151.7184
  21589333.509   -14443973.89549 -11234764.61849  21589334.4304   21589340.5254
  20145745.004   -12646174.68649  -9839928.30049  20145748.0364   20145753.0954
  21385554.308     2258306.06649   1759927.71149  21385555.5364   21385561.7744
 95  2  4 17 14 29.9970000  0  5 29 25 22 14 15
  21807527.766   -11543461.18049  -8979646.17849  21807530.8544   21807535.6334
  20946262.001     1431688.94749   1116122.77249  20946264.8834   20946269.1994
  21568976.962   -14550948.56149 -11318121.49149  21568977.7964   21568983.5334
  20128911.844   -12734633.66149  -9908857.38449  20128914.8574   20128919.8144
  21394891.121     2307383.78649   1798170.03549  21394894.7174   21394900.9624
 95  2  4 17 14 59.9970000  0  5 29 25 22 14 15
  21790821.792   -11631254.86849  -9048056.86049  21790824.4674   21790829.1254
  20953479.703     1469612.93949   1145673.88649  20953481.5894   20953486.0244
  21548724.432   -14657362.18449 -11401041.18449  21548727.8614   21548733.9504
  20112192.122   -12822502.52349  -9977326.64149  20112194.0974   20112199.1364
  21404344.855     2357046.42549   1836868.12949  21404345.2394   21404351.6974
 95  2  4 17 15 29.9970000  0  5 29 25 22 14 15
  21774176.943   -11718715.64749  -9116208.11949  21774181.3094   21774185.8144
  20960790.636     1508027.19449   1175607.02649  20960791.8904   20960795.9434
  21528584.090   -14763211.54349 -11483521.18449  21528585.5154   21528591.4194
  20095584.819   -12909774.03149 -10045330.42649  20095586.7824   20095591.8834
  21413905.193     2407288.77749   1876017.95449  21413906.4394   21413912.2584
 95  2  4 17 15 59.9970000  0  5 29 25 22 14 15
  21757600.180   -11805853.56249  -9184107.80649  21757599.5224   21757604.1934
  20968190.918     1546917.44349   1205911.06849  20968192.2154   20968196.5384
  21508552.602   -14868488.75549 -11565555.36049  21508552.0774   21508557.4904
  20079095.536   -12996426.87549 -10112852.14049  20079097.2234   20079102.5394
  21423575.783     2458105.48149   1915615.33549  21423576.5404   21423582.4564
 95  2  4 17 16 29.9970000  0  5 29 25 22 14 15
  21741074.208   -11892692.98849  -9251774.90249  21741074.5114   21741079.0964
  20975679.756     1586269.92749   1236575.29849  20975680.9644   20975685.1474
  21488629.985   -14973182.06749 -11647134.55349  21488629.6704   21488635.4064
  20062719.678   -13082475.50849 -10179903.03649  20062722.6144   20062727.9504
  21433347.422     2509475.17249   1955643.61049  21433351.8274   21433358.0904
 95  2  4 17 16 59.9970000  0  5 29 25 22 14 15
  21724603.866   -11979234.44349  -9319209.81149  21724606.1484   21724610.7314
  20983255.098     1626090.50049   1267604.26949  20983258.6064   20983262.8264
  21468816.946   -15077285.51149 -11728254.11049  21468819.3174   21468825.0144
  20046462.330   -13167918.40749 -10246481.93249  20046463.7194   20046468.8244
  21443230.704     2561392.47649   1996098.59049  21443231.0724   21443237.4974
 95  2  4 17 17 29.9970000  0  5 29 25 22 14 15
  21708196.100   -12065471.82649  -9386407.78049  21708195.8494   21708200.5924
  20990925.689     1666395.72849   1299010.89549  20990928.2644   20990932.7024
  21449113.873   -15180830.47749 -11808938.49549  21449115.3934   21449121.1534
  20030316.003   -13252763.58249 -10312595.06849  20030318.2664   20030323.3974
  21453211.058     2613843.98749   2036969.84049  21453212.4934   21453218.8554
 95  2  4 17 17 59.9970000  0  5 29 25 22 14 15
  21691842.483   -12151406.88149  -9453370.16649  21691842.7804   21691847.5254
  20998695.588     1707224.74849   1330825.67149  20998697.8514   20998702.4284
  21429514.816   -15283830.79349 -11889198.46649  21429515.2394   21429520.8124
  20014281.827   -13337025.26549 -10378253.53249  20014283.6924   20014288.8474
  21463288.803     2666820.78149   2078250.40449  21463293.5534   21463299.7564
 95  2  4 17 18 29.9970000  0  5 29 25 22 14 15
  21675547.984   -12237030.45849  -9520089.84349  21675549.3684   21675554.2314
  21006567.314     1748591.00849   1363059.07549  21006569.5694   21006574.0124
  21410014.061   -15386303.31449 -11969047.17249  21410015.5964   21410020.8744
  19998354.679   -13420722.41849 -10443472.10549  19998356.5994   19998361.6264
  21473471.014     2720317.28649   2119935.93549  21473473.7944   21473480.0494
 95  2  4 17 18 59.9970000  0  5 29 25 22 14 15
  21659309.952   -12322358.91949  -9586579.55749  21659311.7304   21659316.6264
  21014537.947     1790477.16849   1395697.59449  21014540.2824   21014545.0054
  21390610.712   -15488272.17849 -12048503.42049  21390611.3114   21390616.8554
  19982530.862   -13503872.28149 -10508264.21849  19982533.7284   19982538.8104
  21483748.923     2774319.80149   2162015.74549  21483750.4654   21483756.4714
 95  2  4 17 19 29.9970000  0  5 29 25 22 14 15
  21643124.117   -12407419.99949  -9652860.92949  21643125.2564   21643130.0544
  21022600.455     1832848.62049   1428714.26349  21022603.4054   21022608.0034
  21371302.395   -15589743.37649 -12127571.88249  21371302.1314   21371307.4274
  19966810.103   -13586493.74149 -10572644.59349  19966811.3554   19966816.5214
  21494116.875     2828808.51049   2204474.41149  21494119.3274   21494125.5934
 95  2  4 17 19 59.9970000  0  5 29 25 22 14 15
  21626979.956   -12492238.75649  -9718953.47249  21626984.9484   21626989.5534
  21030749.061     1875670.93649   1462082.25449  21030752.1714   21030756.9594
  21352089.470   -15690699.22049 -12206238.77449  21352090.6554   21352096.3944
  19951185.505   -13668596.16449 -10636620.52449  19951187.8234   19951193.0164
  21504576.873     2883773.92249   2247304.54149  21504578.9414   21504584.9854
 95  2  4 17 20 29.9970000  0  5 29 25 22 14 15
  21610885.184   -12576832.60449  -9784870.76649  21610887.0224   21610892.1524
  21038977.256     1918900.31449   1495767.43449  21038978.3074   21038983.0154
  21332975.554   -15791141.76649 -12284505.69549  21332976.7234   21332982.4994
  19935662.523   -13750172.32649 -10700186.37849  19935664.3454   19935669.5904
  21515123.296     2939201.65249   2290494.91649  21515126.6534   21515132.3954
 95  2  4 17 20 59.9970000  0  5 29 25 22 14 15
  21594826.251   -12661217.48149  -9850625.21849  21594828.9044   21594833.9024
  21047275.299     1962511.11749   1529749.83049  21047277.3654   21047281.8954
  21313960.803   -15891070.04549 -12362371.89549  21313961.3964   21313966.8014
  19920241.107   -13831216.85149 -10763337.96649  19920242.1554   19920247.3794
  21525759.770     2995074.89549   2334032.44749  21525759.0144   21525765.0594
 95  2  4 17 21 29.9970000  0  5 29 25 22 14 15
  21578812.099   -12745384.96149  -9916210.26849  21578812.7444   21578817.5154
  21055647.767     2006509.55249   1564034.27949  21055650.2554   21055654.8864
  21295044.623   -15990477.47949 -12439832.23049  21295044.5774   21295050.6124
  19904919.875   -13911723.02349 -10826070.06049  19904922.5914   19904927.8354
  21536472.053     3051386.61749   2377911.64949  21536474.8364   21536480.6774
 95  2  4 17 21 59.9970000  0  5 29 25 22 14 15
  21562834.157   -12829331.14049  -9981622.88449  21562837.9844   21562842.6214
  21064095.807     2050905.52549   1598628.49349  21064098.3414   21064102.6474
  21276224.259   -16089368.29749 -12516890.01149  21276226.4914   21276231.6684
  19889701.721   -13991704.23949 -10888393.10249  19889702.5504   19889707.4644
  21547267.776     3108123.63849   2422122.26149  21547271.5164   21547277.3434
 95  2  4 17 22 29.9970000  0  5 29 25 22 14 15
  21546906.364   -12913038.72549 -10046849.57549  21546909.2014   21546914.0154
  21072619.024     2095696.39649   1633530.42449  21072621.8944   21072626.4894
  21257508.174   -16187738.02049 -12593541.74449  21257507.1254   21257512.6144
  19874580.358   -14071167.53249 -10950312.56449  19874581.3664   19874586.3334
  21558147.818     3165274.31949   2466655.19849  21558146.8584   21558153.2644
 95  2  4 17 22 59.9970000  0  5 29 25 22 14 15
  21531024.399   -12996511.17949 -10111893.05249  21531024.8664   21531029.7094
  21081216.544     2140875.49249   1668734.86749  21081219.2024   21081223.8714
  21238888.738   -16285577.80849 -12669780.55149  21238888.7724   21238894.7794
  19859552.746   -14150132.35949 -11011843.61249  19859554.7384   19859559.9174
  21569097.059     3222826.45349   2511500.94649  21569098.8534   21569105.1224
 95  2  4 17 23 29.9970000  0  5 29 25 22 14 15
  21515178.810   -13079766.78149 -10176767.55049  21515181.9594   21515186.5384
  21089886.385     2186429.30549   1704231.29349  21089888.0104   21089892.4644
  21220370.282   -16382888.38949 -12745606.98249  21220371.7274   21220377.3974
  19844617.313   -14228621.42349 -11073003.93549  19844618.7284   19844624.0694
  21580124.796     3280771.16849   2556652.60049  21580125.5174   21580131.6534
 95  2  4 17 23 59.9970000  0  5 29 25 22 14 15
  21499375.973   -13162830.15049 -10241492.26349  21499375.6424   21499380.3594
  21098618.527     2232328.93549   1739997.19549  21098622.3354   21098626.9644
  21201947.284   -16479692.30149 -12821038.61549  21201950.0414   21201955.9944
  19829770.260   -14306644.73549 -11133801.33349  19829771.3854   19829776.7004
  21591220.389     3339096.62549   2602100.93849  21591224.0854   21591230.8214
 95  2  4 17 24 29.9970000  0  5 29 25 22 14 15
  21483597.881   -13245734.01249 -10306092.68549  21483599.4874   21483604.5884
  21107413.553     2278536.59349   1776003.11349  21107415.4824   21107420.1354
  21183618.456   -16576014.32349 -12896094.74249  21183620.7294   21183626.6904
  19815010.419   -14384202.64549 -11194236.08049  19815012.8294   19815018.0194
  21602393.256     3397788.58549   2647834.85949  21602393.1104   21602399.6774
 95  2  4 17 24 59.9970000  0  5 29 25 22 14 15
  21467847.293   -13328510.61349 -10370593.93949  21467847.9124   21467852.5804
  21116262.560     2325032.89949   1812233.95249  21116263.4054   21116268.3324
  21165376.563   -16671885.56249 -12970799.61249  21165377.5034   21165382.9924
  19800339.299   -14461302.01649 -11254313.52449  19800341.3224   19800346.6754
  21613630.789     3456834.50249   2693844.59349  21613629.5984   21613636.0554
 95  2  4 17 25 29.9970000  0  5 29 25 22 14 15
  21452115.535   -13411166.49749 -10435001.13049  21452118.7084   21452123.5854
  21125163.981     2371812.80149   1848685.77349  21125165.3264   21125170.1194
  21147208.379   -16767345.48849 -13045183.97749  21147211.6274   21147217.5984
  19785754.819   -14537943.44149 -11314034.12749  19785756.9504   19785762.1864
  21624928.427     3516218.58549   2740117.83749  21624929.8944   21624936.2014
 95  2  4 17 25 59.9970000  0  5 29 25 22 14 15
  21436412.272   -13493691.27849 -10499306.16649  21436414.8674   21436419.8164
  21134120.823     2418875.56249   1885358.00249  21134121.4144   21134126.1184
  21129121.778   -16862409.02449 -13119259.46649  21129122.2644   21129127.8624
  19771258.326   -14614126.24149 -11373397.36249  19771259.7284   19771265.1654
  21636292.487     3575929.48749   2786645.74049  21636292.6474   21636298.7724
 95  2  4 17 26 29.9970000  0  5 29 25 22 14 15
  21420735.641   -13576067.31449 -10563495.29349  21420739.2984   21420744.2404
  21143130.143     2466236.48249   1922262.56249  21143133.5474   21143138.6344
  21111108.571   -16957057.94549 -13193011.87649  21111110.5924   21111116.7564
  19756849.958   -14689842.96749 -11432397.42149  19756851.2934   19756856.8864
  21647715.653     3635959.96449   2833422.66749  21647716.3504   21647722.5564
 95  2  4 17 26 59.9970000  0  5 29 25 22 14 15
  21405091.791   -13658280.44449 -10627557.47749  21405094.6704   21405099.6094
  21152201.413     2513907.83049   1959409.01449  21152205.0714   21152210.1634
  21093178.354   -17051282.06549 -13266433.26549  21093180.6474   21093186.6224
  19742529.511   -14765097.48849 -11491037.32249  19742530.9664   19742536.4624
  21659197.564     3696298.53149   2880439.66349  21659198.1114   21659204.9554
 95  2  4 17 27 29.9970000  0  5 29 25 22 14 15
  21389479.100   -13740333.71749 -10691495.10249  21389480.3074   21389485.4224
  21161336.153     2561899.21249   1996804.84349  21161337.8774   21161342.7244
  21075333.787   -17145067.23849 -13339512.62649  21075334.0404   21075339.4754
  19728293.686   -14839904.48849 -11549328.50649  19728295.5834   19728300.9194
  21670735.541     3756936.09349   2927689.62649  21670736.9264   21670743.6024
 95  2  4 17 27 59.9970000  0  5 29 25 22 14 15
  21373890.649   -13822240.97249 -10755318.94349  21373893.7724   21373898.7664
  21170525.971     2610197.33549   2034439.69149  21170528.7194   21170533.5704
  21057575.309   -17238383.99049 -13412226.98349  21057576.1974   21057581.8084
  19714143.562   -14914262.03249 -11607269.46349  19714145.8544   19714151.3004
  21682331.331     3817867.24249   2975168.35949  21682331.5374   21682338.7684
 95  2  4 17 28 29.9970000  0  5 29 25 22 14 15
  21358331.557   -13904017.32949 -10819040.78349  21358332.5044   21358337.4184
  21179774.040     2658791.87349   2072305.51549  21179775.9674   21179780.8414
  21039907.581   -17331224.14449 -13484569.96449  21039909.3614   21039915.1404
  19700078.984   -14988174.78049 -11664863.82049  19700080.4174   19700086.0314
  21693976.773     3879081.37349   3022867.60549  21693980.0674   21693987.3204
 95  2  4 17 28 59.9970000  0  5 29 25 22 14 15
  21342790.503   -13985680.47949 -10882674.41349  21342792.4634   21342797.6664
  21189070.882     2707651.16449   2110377.63849  21189073.5724   21189078.4654
  21022329.354   -17423608.27249 -13556557.59849  21022329.0714   21022334.9004
  19686093.738   -15061667.68349 -11722131.02949  19686095.3544   19686100.9334
  21705678.529     3940568.33449   3070779.43949  21705681.0094   21705687.9204
 95  2  4 17 29 29.9970000  0  5 29 25 22 14 15
  21327269.753   -14067240.68949 -10946227.83749  21327272.0524   21327277.1564
  21198416.826     2756759.35949   2148643.70849  21198418.4374   21198423.5374
  21004832.025   -17515555.05449 -13628204.44749  21004832.3224   21004838.3014
  19672186.734   -15134745.30349 -11779074.64549  19672189.0514   19672194.7854
  21717429.295     4002318.95149   3118896.72349  21717431.8984   21717438.7524
 95  2  4 17 29 59.9970000  0  5 29 25 22 14 15
  21311768.978   -14148691.47349 -11009695.98849  21311772.9004   21311777.6764
  21207805.171     2806098.44549   2187089.69549  21207807.5584   21207812.5364
  20987416.202   -17607073.35649 -13699517.40949  20987416.8844   20987423.1694
  19658364.304   -15207385.67749 -11835677.54649  19658366.1314   19658371.7394
  21729227.824     4064329.11249   3167216.24949  21729232.3814   21729238.9074
 95  2  4 17 30 29.9970000  0  5 29 25 22 14 15
  21296292.880   -14230031.13049 -11073077.55049  21296293.9314   21296299.1054
  21217234.850     2855658.88949   2225708.17049  21217238.4224   21217243.7704
  20970075.898   -17698186.79449 -13770514.89549  20970078.6634   20970084.7144
  19644622.587   -15279594.48149 -11891944.16049  19644625.3924   19644630.9204
  21741079.267     4126588.45849   3215729.94849  21741079.7414   21741086.7094
 95  2  4 17 30 59.9960000  0  5 29 25 22 14 15
  21280834.623   -14311266.18949 -11136377.60549  21280835.4964   21280840.5034
  21226705.758     2905422.03849   2264484.59049  21226708.0764   21226713.0974
  20952811.088   -17788901.77549 -13841201.90649  20952816.0544   20952822.0864
  19630966.590   -15351358.64249 -11947864.30149  19630969.3334   19630974.7544
  21752970.570     4189085.79149   3264429.09849  21752972.6864   21752979.5534
 95  2  4 17 31 29.9960000  0  5 29 25 22 14 15
  21265391.921   -14392404.89349 -11199602.57549  21265395.3874   21265400.2004
  21236216.821     2955396.38949   2303425.58949  21236218.0474   21236223.3644
  20935631.444   -17879203.39949 -13911566.81849  20935632.3174   20935638.2144
  19617397.764   -15422667.68549 -12003429.80249  19617399.7094   19617405.1374
  21764908.683     4251820.43849   3313313.15749  21764910.9734   21764917.7154
 95  2  4 17 31 59.9960000  0  5 29 25 22 14 15
  21249969.957   -14473450.90849 -11262755.31949  21249972.6964   21249977.4684
  21245764.152     3005570.74549   2342522.43649  21245766.0994   21245771.1844
  20918530.706   -17969064.76049 -13981588.66649  20918532.3254   20918538.0564
  19603915.747   -15493514.21549 -12058634.90649  19603917.9744   19603923.4504
  21776891.054     4314786.50249   3362377.54449  21776892.7314   21776899.7844
 95  2  4 17 32 29.9960000  0  5 29 25 22 14 15
  21234564.438   -14554409.80449 -11325840.18649  21234566.7794   21234571.5894
  21255347.193     3055938.21849   2381769.75449  21255350.5164   21255355.6004
  20901518.064   -18058469.43149 -14051254.66049  20901518.8724   20901524.6804
  19590519.154   -15563908.88849 -12113487.91649  19590522.1844   19590527.7074
  21788916.714     4377977.91449   3411617.52449  21788917.7644   21788924.7544
 95  2  4 17 32 59.9960000  0  5 29 25 22 14 15
  21219172.145   -14635292.75249 -11388865.87049  21219175.4124   21219180.1274
  21264969.425     3106494.97549   2421164.57549  21264971.3684   21264976.6004
  20884591.371   -18147408.23649 -14120557.63549  20884594.3334   20884600.3884
  19577206.508   -15633870.56249 -12168003.52049  19577208.9544   19577214.4524
  21800979.737     4441386.54849   3461026.77749  21800983.9954   21800991.1964
 95  2  4 17 33 29.9960000  0  5 29 25 22 14 15
  21203795.327   -14716104.87049 -11451836.36149  21203797.4374   21203802.1954
  21274627.336     3157250.95049   2460714.62949  21274630.0984   21274635.1294
  20867756.581   -18235881.03549 -14189497.47849  20867758.4644   20867764.4824
  19563974.811   -15703407.72849 -12222188.33849  19563976.5224   19563981.9704
  21813093.329     4505007.57749   3510601.52849  21813090.8744   21813098.3864
 95  2  4 17 33 59.9960000  0  5 29 25 22 14 15
  21188428.373   -14796859.61349 -11514762.14249  21188429.9944   21188434.8464
  21284323.147     3208199.54849   2500414.77449  21284325.2204   21284330.5664
  20851006.298   -18323907.82949 -14258089.79549  20851007.8934   20851013.4514
  19550819.580   -15772527.51849 -12276047.93049  19550823.5284   19550828.9684
  21825233.109     4568831.94749   3560334.71949  21825236.4394   21825243.2834
 95  2  4 17 34 29.9960000  0  6 29 18 25 22 14 15
  21173071.012   -14877560.36349 -11577645.84949  21173073.1204   21173077.8554
  23651659.938    -3767402.27959  -2911683.78359  23651665.2204   23651671.3554
  21294054.472     3259343.16849   2540266.88749  21294057.2504   21294062.6934
  20834335.679   -18411514.47649 -14326354.71449  20834336.7504   20834342.5774
  19537744.659   -15841238.35949 -12329588.85649  19537748.2934   19537753.5844
  21837417.192     4632851.56549   3610220.05849  21837418.8454   21837425.5134
 95  2  4 17 34 59.9960000  0  6 29 18 25 22 14 15
  21157724.722   -14958210.12749 -11640489.82849  21157726.3914   21157731.1404
  23631065.394    -3875652.19649  -2996034.40049  23631066.2454   23631073.8394
  21303824.819     3310691.50449   2580278.51849  21303828.7094   21303834.2794
  20817738.730   -18498717.37249 -14394305.02749  20817742.4784   20817748.3314
  19524748.563   -15909537.94249 -12382809.32749  19524751.3674   19524756.7644
  21849638.800     4697061.86349   3660253.98649  21849637.7294   21849644.4674
 95  2  4 17 35 29.9960000  0  6 29 18 25 22 14 15
  21142386.794   -15038805.52649 -11703291.44449  21142389.3954   21142394.3844
  23610469.832    -3983905.92749  -3080387.98449  23610466.1404   23610473.0414
  21313634.417     3362238.09049   2620444.62649  21313637.9584   21313643.3404
  20801224.622   -18585518.86649 -14461942.56849  20801225.2534   20801230.7564
  19511832.876   -15977418.00049 -12435702.89349  19511834.1244   19511839.5774
  21861888.737     4761460.93949   3710435.00749  21861892.3694   21861899.6604
 95  2  4 17 35 59.9960000  0  6 29 18 25 22 14 15
  21127063.292   -15119329.80149 -11766037.63649  21127066.2794   21127071.2854
  23589858.930    -4092192.93749  -3164767.49949  23589860.5234   23589866.9264
  21323479.046     3413968.70149   2660754.13049  21323481.8174   21323487.3944
  20784783.590   -18671915.09949 -14529264.31649  20784784.4964   20784789.8824
  19498992.803   -16044892.35949 -12488280.32749  19498994.4434   19498999.8524
  21874179.810     4826042.45349   3760758.18149  21874181.8134   21874189.6714
 95  2  4 17 36 29.9960000  0  6 29 18 25 22 14 15
  21111755.679   -15199772.12049 -11828719.96949  21111758.7634   21111763.7334
  23569248.470    -4200522.60149  -3249180.23949  23569246.1194   23569252.2294
  21333360.346     3465887.07949   2701209.94949  21333361.5904   21333367.1684
  20768423.534   -18757890.22449 -14596257.93149  20768423.9504   20768429.3574
  19486227.854   -16111968.19649 -12540547.22849  19486230.3484   19486235.7664
  21886503.134     4890802.04349   3811220.10749  21886505.6954   21886512.8854
 95  2  4 17 36 59.9960000  0  6 29 18 25 22 14 15
  21096463.638   -15280131.78849 -11891337.90249  21096466.6434   21096471.4774
  23548625.628    -4308909.71349  -3333637.74249  23548621.1904   23548627.2184
  21343276.460     3517990.44149   2741809.91049  21343276.9894   21343282.2014
  20752146.895   -18843422.42649 -14662906.41849  20752147.5064   20752153.2904
  19473539.973   -16178644.82049 -12592503.05349  19473542.0084   19473547.5514
  21898859.896     4955736.64149   3861818.40249  21898862.4454   21898869.3074
 95  2  4 17 37 29.9960000  0  6 29 18 25 22 14 15
  21081188.708   -15360407.18149 -11953890.15949  21081190.6754   21081195.8064
  23527986.566    -4417339.84549  -3418128.78049  23527986.4624   23527993.4324
  21353223.559     3570272.22549   2782548.90649  21353225.4814   21353231.1564
  20735959.253   -18928496.16449 -14729197.64949  20735958.7364   20735964.6464
  19460929.743   -16244910.47449 -12644138.64049  19460932.0424   19460937.6004
  21911244.520     5020844.75249   3912551.90549  21911252.3324   21911258.9894
 95  2  4 17 37 59.9960000  0  6 29 18 25 22 14 15
  21065924.959   -15440615.54949 -12016390.19649  21065927.6384   21065932.7304
  23507347.469    -4525808.74349  -3502650.02249  23507346.4934   23507352.4574
  21363206.127     3622730.09749   2823425.11349  21363208.1664   21363213.7914
  20719855.051   -19013116.93349 -14795135.92449  20719855.7684   20719862.0404
  19448400.462   -16310756.63549 -12695447.35249  19448402.0684   19448407.5274
  21923675.056     5086114.67749   3963411.50449  21923672.7174   21923679.8174
 95  2  4 17 38 29.9960000  0  6 29 18 25 22 14 15
  21050672.258   -15520769.21649 -12078847.61249  21050675.1274   21050679.8704
  23486697.778    -4634294.45749  -3587184.36849  23486701.1904   23486707.1824
  21373222.817     3675365.04449   2864439.29449  21373224.0814   21373229.5044
  20703835.412   -19097290.68649 -14860725.87549  20703838.1634   20703844.2444
  19435953.803   -16376161.43349 -12746412.14149  19435955.7954   19435961.3784
  21936120.632     5151545.81049   4014396.70449  21936124.0984   21936130.8604
 95  2  4 17 38 59.9960000  0  6 29 18 25 22 14 15
  21035430.106   -15600869.57149 -12141263.48449  21035432.6964   21035437.2744
  23466054.035    -4742792.74849  -3671728.49849  23466055.8684   23466061.1154
  21383269.159     3728157.49349   2905576.21249  21383270.3574   21383275.7804
  20687901.583   -19181028.09849 -14925975.81649  20687903.4894   20687909.5544
  19423592.244   -16441121.44149 -12797030.34549  19423594.3714   19423599.9944
  21948602.151     5217131.65149   4065502.45349  21948604.5224   21948611.8054
 95  2  4 17 39 29.9960000  0  6 29 18 25 22 14 15
  21020198.813   -15680910.58249 -12203633.11049  21020201.1124   21020206.1104
  23445407.403    -4851290.29649  -3756272.08649  23445408.8094   23445415.6514
  21393341.911     3781100.41449   2946830.37649  21393345.0464   21393350.6024
  20672048.559   -19264338.67949 -14990893.16449  20672050.0694   20672055.8674
  19411314.951   -16505641.89949 -12847306.04149  19411316.6574   19411322.1484
  21961112.237     5282868.43749   4116725.82249  21961113.8144   21961120.8364
 95  2  4 17 39 59.9960000  0  6 29 18 25 22 14 15
  21004980.989   -15760873.99949 -12265942.27349  21004984.6894   21004989.7494
  23424755.287    -4959782.65649  -3840811.59649  23424763.0444   23424769.8464
  21403444.708     3834193.56449   2988201.60449  21403448.4534   21403453.8994
  20656278.534   -19347218.57849 -15055474.91949  20656278.8284   20656284.2324
  19399118.710   -16569730.74449 -12897245.41449  19399121.1134   19399126.4054
  21973651.329     5348757.74549   4168068.04549  21973652.3634   21973659.3614
 95  2  4 17 40 29.9960000  0  6 29 18 25 22 14 15
  20989783.599   -15840746.92749 -12328180.92749  20989785.3874   20989790.3804
  23404124.112    -5068268.06549  -3925345.64349  23404118.9284   23404125.7654
  21413574.063     3887415.76049   3029673.38849  21413576.3984   21413582.1324
  20640587.370   -19429665.96749 -15119719.65149  20640589.8524   20640595.3084
  19387001.944   -16633400.68949 -12946858.37249  19387004.9484   19387010.4254
  21986216.851     5414794.27149   4219524.98449  21986219.0234   21986226.0514
 95  2  4 17 40 59.9960000  0  6 29 18 25 22 14 15
  20974598.186   -15920540.40849 -12390357.67249  20974601.0644   20974606.1404
  23383469.331    -5176766.68449  -4009890.04449  23383472.0764   23383480.3224
  21423725.196     3940766.12149   3071245.04049  21423728.5014   21423734.1044
  20624982.585   -19511674.99049 -15183622.78949  20624983.9144   20624989.4544
  19374966.430   -16696653.64449 -12996146.40249  19374968.2884   19374973.8224
  21998810.441     5480971.05849   4271091.22049  21998812.1424   21998818.9094
 95  2  4 17 41 29.9960000  0  6 29 18 25 22 14 15
  20959427.264   -16000266.35949 -12452481.79349  20959429.8124   20959434.9834
  23362819.087    -5285283.86649  -4094448.88349  23362821.5104   23362829.5904
  21433905.377     3994246.86049   3112918.28649  21433905.7794   21433911.4234
  20609461.378   -19593241.54149 -15247181.15049  20609462.2554   20609468.0984
  19363010.138   -16759480.61649 -13045102.49549  19363012.5254   19363018.2664
  22011431.413     5547282.53949   4322762.41849  22011430.5394   22011438.0164
 95  2  4 17 41 59.9960000  0  6 29 18 25 22 14 15
  20944267.916   -16079933.10849 -12514559.78049  20944269.5474   20944274.8804
  23342164.138    -5393823.08049  -4179024.88149  23342168.6684   23342175.5734
  21444105.937     4047862.39549   3154696.56349  21444108.4604   21444114.1234
  20594025.105   -19674360.28049 -15310390.56149  20594025.6734   20594031.5824
  19351138.654   -16821863.85449 -13093712.82349  19351141.4224   19351147.4074
  22024072.114     5613725.88849   4374536.36449  22024074.3954   22024081.6384
 95  2  4 17 42 29.9960000  0  6 29 18 25 22 14 15
  20929113.481   -16159567.21349 -12576612.34049  20929115.6524   20929121.0094
  23321501.818    -5502397.79549  -4263628.57949  23321508.0454   23321512.4184
  21454334.607     4101615.20949   3196581.80849  21454337.6174   21454343.0404
  20578670.979   -19755041.20749 -15373258.81749  20578672.7804   20578678.5974
  19339355.342   -16883792.72949 -13141969.10549  19339356.9904   19339362.5464
  22036737.939     5680290.21249   4426404.57349  22036741.1584   22036748.4534
 95  2  4 17 42 59.9960000  0  6 29 18 25 22 14 15
  20913964.555   -16239168.71049 -12638639.48749  20913967.9544   20913973.2964
  23300835.974    -5611009.94549  -4348261.38949  23300837.3664   23300845.4394
  21464594.048     4155535.37049   3238597.45449  21464598.1634   21464603.8124
  20563403.934   -19835268.30849 -15435773.42249  20563405.6974   20563412.1634
  19327658.549   -16945255.26449 -13189862.00549  19327661.0774   19327666.5894
  22049432.115     5746978.71049   4478369.54549  22049431.4824   22049438.8214
 95  2  4 17 43 29.9960000  0  6 29 18 25 22 14 15
  20898827.442   -16318721.54549 -12700628.71549  20898829.6224   20898834.9594
  23280166.216    -5719646.76049  -4432913.48049  23280165.8814   23280172.2754
  21474886.811     4209610.49749   3280733.85549  21474888.4864   21474893.7974
  20548225.700   -19915036.75149 -15497930.64249  20548226.4334   20548232.6564
  19316049.089   -17006263.24649 -13237400.70849  19316051.7094   19316057.3664
  22062142.745     5813785.33949   4530426.56449  22062144.5484   22062152.0324
 95  2  4 17 43 59.9960000  0  6 29 18 25 22 14 15
  20883697.296   -16398222.14449 -12762577.24149  20883701.1374   20883706.4704
  23259486.546    -5828319.50149  -4517593.54349  23259487.2234   23259493.0564
  21485205.703     4263832.27249   3322984.52449  21485206.5924   21485212.2754
  20533129.945   -19994357.57149 -15559739.07049  20533132.0554   20533138.0784
  19304523.983   -17066826.53749 -13284592.90549  19304526.8974   19304532.6094
  22074876.603     5880706.09749   4582572.50749  22074879.4134   22074886.5444
 95  2  4 17 44 29.9960000  0  6 29 18 25 22 14 15
  20868578.807   -16477673.77349 -12824487.60349  20868581.9584   20868587.6284
  23238802.677    -5937043.16749  -4602313.27049  23238797.0174   23238804.5734
  21495545.365     4318173.61849   3365328.36349  21495547.2414   21495553.1504
  20518121.936   -20073237.49949 -15621203.94749  20518121.9434   20518128.1134
  19293081.071   -17126965.41449 -13331454.38749  19293083.0574   19293088.6254
  22087631.323     5947725.88649   4634795.61649  22087632.6014   22087640.0414
 95  2  4 17 44 59.9960000  0  6 29 18 25 22 14 15
  20853472.500   -16557057.02349 -12886344.68649  20853475.9794   20853481.4024
  23218095.138    -6045796.05049  -4687055.79449  23218102.0634   23218108.7834
  21505905.761     4372632.35949   3407763.68349  21505910.8824   21505916.3904
  20503197.145   -20151655.12249 -15682308.58449  20503199.3404   20503205.4714
  19281717.788   -17186687.00249 -13377990.70549  19281718.5134   19281723.8534
  22100404.537     6014847.06249   4687097.72949  22100405.5524   22100413.0984
 95  2  4 17 45 29.9960000  0  6 29 18 25 22 14 15
  20838380.093   -16636374.74249 -12948150.71149  20838382.4434   20838387.6654
  23197398.558    -6154577.05649  -4771820.21249  23197401.6224   23197407.4694
  21516289.328     4427184.06549   3450271.43849  21516291.4004   21516297.3904
  20488363.290   -20229620.24249 -15743060.62549  20488363.0624   20488369.0684
  19270430.260   -17245992.31549 -13424202.65649  19270432.7544   19270438.2694
  22113195.642     6082059.83149   4739471.21349  22113195.8244   22113203.2154
 95  2  4 17 45 59.9960000  0  6 29 18 25 22 14 15
  20823300.122   -16715622.96949 -13009902.58649  20823301.9554   20823307.0914
  23176693.981    -6263386.12049  -4856606.51949  23176695.5414   23176702.5524
  21526690.474     4481842.20649   3492862.13849  21526692.7844   21526698.4434
  20473612.860   -20307124.19749 -15803453.31949  20473614.8264   20473620.6954
  19259230.481   -17304853.40449 -13470068.45649  19259231.8684   19259237.3614
  22126002.359     6149370.12049   4791920.68949  22126004.9864   22126012.3564
 95  2  4 17 46 29.9960000  0  6 29 18 25 22 14 15
  20808232.397   -16794797.08649 -13071596.70949  20808235.4934   20808240.8984
  23155992.321    -6372206.50649  -4941401.59449  23155988.4644   23155994.9974
  21537115.738     4536621.64449   3535547.34649  21537116.6464   21537122.5014
  20458958.728   -20384139.00149 -15863464.86449  20458959.1664   20458965.1984
  19248114.438   -17363264.05149 -13515583.26249  19248116.9674   19248122.3954
  22138834.044     6216776.10049   4844444.72149  22138832.2034   22138838.7274
 95  2  4 17 46 59.9960000  0  6 29 18 25 22 14 15
  20793181.356   -16873899.94649 -13133235.30849  20793182.8664   20793188.0274
  23135273.942    -6481036.48349  -5026204.19149  23135279.6004   23135284.7374
  21547566.932     4591539.76149   3578340.62249  21547567.4754   21547573.4024
  20444394.628   -20460667.08849 -15923097.14649  20444396.7184   20444402.3944
  19237088.698   -17421211.21849 -13560736.91849  19237089.8074   19237095.4584
  22151675.990     6284277.66949   4897043.23849  22151676.8314   22151684.2104
 95  2  4 17 47 29.9960000  0  6 29 18 25 22 14 15
  20778140.632   -16952935.66049 -13194821.59049  20778142.8404   20778147.7604
  23114568.221    -6589898.21749  -5111031.48549  23114562.5704   23114570.2084
  21558039.704     4646581.22849   3621230.01649  21558041.9354   21558047.3204
  20429920.987   -20536726.20049 -15982363.99049  20429922.7324   20429928.9644
  19226148.964   -17478691.86749 -13605527.04649  19226151.5864   19226157.4524
  22164538.009     6351871.47549   4949713.62249  22164539.8354   22164547.1284
 95  2  4 17 47 59.9960000  0  6 29 18 25 22 14 15
  20763111.385   -17031912.54149 -13256362.02449  20763114.0114   20763118.9924
  23093841.128    -6698782.44849  -5195876.37249  23093842.4564   23093849.1914
  21568534.486     4701735.83749   3664207.57049  21568537.1554   21568543.0924
  20415533.804   -20612325.83349 -16041272.80149  20415536.8344   20415542.8424
  19215298.832   -17535708.56649 -13649955.65749  19215301.5684   19215307.5474
  22177418.809     6419555.55849   5002454.36149  22177419.5344   22177427.5924
 95  2  4 17 48 29.9960000  0  6 29 18 25 22 14 15
  20748088.588   -17110855.02349 -13317875.65849  20748091.8084   20748096.9974
  23073114.351    -6807687.10849  -5280737.10449  23073118.5444   23073125.8254
  21579052.350     4756997.63949   3707268.65549  21579053.4974   21579059.2414
  20401236.210   -20687463.34849 -16099821.52549  20401238.3914   20401244.4774
  19204534.027   -17592279.57549 -13694036.97849  19204536.5264   19204542.5064
  22190315.747     6487326.57649   5055262.82949  22190316.1634   22190323.9304
 95  2  4 17 48 59.9960000  0  6 29 18 25 22 14 15
  20733069.005   -17189777.88949 -13379373.99849  20733073.3744   20733078.5084
  23052390.092    -6916623.85149  -5365622.90849  23052388.3284   23052396.0004
  21589582.580     4812342.73149   3750394.63749  21589585.3124   21589590.9854
  20387025.160   -20762157.49749 -16158024.76949  20387024.7624   20387030.8864
  19193852.217   -17648406.97549 -13737772.62649  19193855.9234   19193861.6664
  22203225.954     6555177.39049   5108133.48549  22203227.8054   22203235.3404
 95  2  4 17 49 29.9960000  0  6 29 18 25 22 14 15
  20718056.707   -17268678.58449 -13440855.07049  20718059.1324   20718064.0834
  23031651.485    -7025580.86249  -5450524.45949  23031654.3354   23031661.7194
  21600127.858     4867757.46449   3793574.88849  21600130.1224   21600135.7034
  20372896.199   -20836396.41749 -16215873.29149  20372897.5174   20372903.6474
  19183256.336   -17704098.62649 -13781168.73649  19183258.1944   19183263.8444
  22216153.133     6623105.00949   5161063.97949  22216154.0794   22216162.0844
 95  2  4 17 49 59.9960000  0  6 29 18 25 22 14 15
  20703048.301   -17347554.75349 -13502317.02549  20703049.5344   20703054.2864
  23010914.045    -7134551.65849  -5535436.77649  23010919.0494   23010925.6794
  21610692.961     4923263.72549   3836826.46449  21610693.1434   21610698.5364
  20358859.249   -20910164.40249 -16273354.84649  20358860.1544   20358866.0784
  19172740.665   -17759355.00849 -13824225.67149  19172743.2934   19172749.1474
  22229093.357     6691104.79049   5214050.70749  22229093.5694   22229101.6034
 95  2  4 17 50 29.9960000  0  6 29 18 25 22 14 15
  20688046.083   -17426380.94349 -13563740.03449  20688049.3384   20688054.1144
  22990176.053    -7243546.18949  -5620367.57849  22990177.8974   22990183.7334
  21621278.544     4978889.76549   3880171.36349  21621278.4074   21621283.5854
  20344916.543   -20983434.56049 -16330448.49649  20344917.1294   20344923.2524
  19162308.676   -17814178.09849 -13866944.97649  19162310.6944   19162316.7004
  22242046.490     6759176.60149   5267093.55449  22242047.8234   22242055.6474
 95  2  4 17 50 59.9960000  0  6 29 18 25 22 14 15
  20673063.764   -17505116.05049 -13625092.07249  20673066.5514   20673071.5254
  22969432.552    -7352565.99349  -5705318.07649  22969431.6774   22969438.7984
  21631885.107     5034636.45749   3923610.29049  21631886.6154   21631891.8134
  20331066.735   -21056213.19749 -16387159.13949  20331067.6134   20331073.7334
  19151959.798   -17868559.27049 -13909319.93449  19151962.3754   19151968.1394
  22255012.618     6827315.46149   5320188.65449  22255014.4324   22255021.8474
 95  2  4 17 51 29.9960000  0  6 29 18 25 22 14 15
  20658101.866   -17583741.82249 -13686358.90949  20658104.7294   20658109.4784
  22948679.072    -7461616.74149  -5790292.67849  22948680.6904   22948687.2064
  21642516.119     5090505.28049   3967144.37049  21642518.2354   21642523.3984
  20317312.325   -21128496.44049 -16443483.75549  20317312.7424   20317318.8264
  19141697.734   -17922490.80749 -13951344.52549  19141699.7724   19141705.3844
  22267988.756     6895512.12249   5373328.79849  22267991.7654   22267999.6234
 95  2  4 17 51 59.9960000  0  6 29 18 25 22 14 15
  20643157.950   -17662267.59549 -13747547.83249  20643161.7284   20643166.6054
  22927918.977    -7570711.31949  -5875301.47649  22927920.8684   22927926.5164
  21653168.601     5146493.19049   4010771.25949  21653172.3574   21653177.6694
  20303650.381   -21200286.17549 -16499423.82349  20303651.5244   20303657.5624
  19131522.099   -17975960.99249 -13993009.62149  19131524.7094   19131530.3894
  22280980.250     6963757.96249   5426507.27049  22280978.3924   22280986.4164
 95  2  4 17 52 29.9960000  0  6 29 18 25 22 14 15
  20628232.613   -17740702.69449 -13808666.10049  20628235.9964   20628240.8194
  22907149.650    -7679846.44449  -5960341.83849  22907152.8854   22907159.5784
  21663844.982     5202584.19149   4054478.46149  21663846.3624   21663851.7004
  20290082.806   -21271577.89249 -16554975.82549  20290085.4584   20290091.6104
  19121437.310   -18028959.20449 -14034306.94849  19121439.3744   19121444.9894
  22293972.209     7032053.92949   5479724.77949  22293974.9484   22293982.9624
 95  2  4 17 52 59.9960000  0  6 29 18 25 22 14 15
  20613320.215   -17819072.67849 -13869733.63149  20613322.3934   20613326.8624
  22886373.959    -7789020.83649  -6045412.79549  22886377.6884   22886384.1734
  21674530.859     5258750.35049   4098244.23549  21674533.9964   21674539.0704
  20276610.079   -21342386.24649 -16610151.18149  20276610.7204   20276616.3944
  19111443.007   -18081473.03849 -14075226.84049  19111446.2574   19111451.3414
  22306975.373     7100394.41849   5532976.98649  22306979.5844   22306987.4744
 95  2  4 17 53 29.9960000  0  6 29 18 25 22 14 15
  20598416.571   -17897395.57949 -13930764.46549  20598418.3084   20598423.2314
  22865595.499    -7898221.67549  -6130504.38349  22865597.8924   22865603.5214
  21685236.940     5314991.70249   4142068.60349  21685236.9314   21685242.1994
  20263229.895   -21412699.82049 -16664940.99249  20263230.7994   20263236.5594
  19101544.094   -18133496.86449 -14115764.90449  19101546.4184   19101551.9594
  22319993.213     7168783.80049   5586267.28649  22319993.8894   22320001.7994
 95  2  4 17 53 59.9960000  0  6 29 18 25 22 14 15
  20583517.807   -17975682.87049 -13991767.54549  20583520.4724   20583525.6654
  22844812.086    -8007449.23149  -6215616.76249  22844812.4544   22844818.5884
  21695952.586     5371310.63549   4185953.42249  21695953.6444   21695958.9174
  20249942.984   -21482525.15249 -16719350.35449  20249943.4594   20249949.5534
  19091736.392   -18185036.24349 -14155925.46849  19091738.9084   19091744.7004
  22333014.564     7237226.03849   5639598.78749  22333018.2084   22333026.0804
 95  2  4 17 54 29.9960000  0  6 29 18 25 22 14 15
  20568626.700   -18053935.17549 -14052743.37649  20568629.7994   20568634.6154
  22824019.857    -8116714.31249  -6300758.38449  22824019.4714   22824026.2674
  21706679.184     5427699.63449   4229892.83349  21706684.2834   21706689.3954
  20236744.578   -21551877.00249 -16773390.77649  20236746.1994   20236752.0774
  19082017.862   -18236105.56249 -14195719.76149  19082020.8444   19082026.3404
  22346046.776     7305709.80449   5692962.63549  22346050.4124   22346057.9424
 95  2  4 17 54 59.9960000  0  6 29 18 25 22 14 15
  20553745.481   -18132140.47349 -14113682.57049  20553747.9764   20553752.5634
  22803218.626    -8226015.90049  -6385928.44849  22803220.6484   22803227.0224
  21717426.276     5484156.02349   4273884.75449  21717427.4004   21717433.1264
  20223638.782   -21620757.46649 -16827063.87649  20223638.6394   20223644.6524
  19072390.799   -18286703.37049 -14235146.63749  19072392.3384   19072397.8344
  22359084.581     7374230.34349   5746355.15649  22359089.3434   22359097.2604
 95  2  4 17 55 29.9960000  0  6 29 18 25 22 14 15
  20538874.564   -18210282.35749 -14174572.35249  20538877.9514   20538882.6224
  22782412.950    -8335351.59749  -6471125.08349  22782414.4164   22782420.9924
  21728186.424     5540700.64749   4317945.43549  21728187.7974   21728192.9744
  20210621.869   -21689147.69449 -16880354.97249  20210624.4574   20210630.4904
  19062852.131   -18336828.19549 -14274204.95649  19062853.9604   19062859.5954
  22372128.425     7442790.54149   5799778.57749  22372135.3914   22372143.4064
 95  2  4 17 55 59.9960000  0  6 29 18 25 22 14 15
  20524015.604   -18288364.06449 -14235415.24949  20524019.4014   20524024.3374
  22761598.663    -8444725.06949  -6556351.15649  22761600.9184   22761608.2044
  21738961.182     5597332.09849   4362073.77449  21738964.3824   21738969.9954
  20197702.348   -21757044.90249 -16933261.89849  20197704.2144   20197709.7504
  19053400.784   -18386489.85049 -14312902.36549  19053403.4764   19053409.0974
  22385186.986     7511381.88549   5853226.25349  22385188.3404   22385196.3284
 95  2  4 17 56 29.9960000  0  6 29 18 25 22 14 15
  20509169.037   -18366383.87549 -14296209.91149  20509172.5784   20509177.8074
  22740781.896    -8554127.47949  -6641599.78249  22740781.1994   22740788.9804
  21749753.778     5654047.51949   4406267.53249  21749757.1224   21749762.2864
  20184879.190   -21824432.27349 -16985771.54849  20184880.5974   20184886.7044
  19044037.618   -18435694.83749 -14351243.93149  19044040.2114   19044045.7884
  22398245.653     7579996.47249   5906692.03649  22398245.4744   22398253.4814
 95  2  4 17 56 59.9960000  0  6 29 18 25 22 14 15
  20494332.851   -18444350.33349 -14356962.99649  20494336.4314   20494341.3914
  22719958.470    -8663547.92949  -6726862.46349  22719960.0644   22719967.1284
  21760561.650     5710831.81149   4450514.97349  21760562.7914   21760568.7754
  20172154.899   -21891303.34849 -17037878.88349  20172155.4494   20172161.5774
  19034758.652   -18484449.43349 -14389234.53649  19034762.6464   19034768.2444
  22411307.818     7648629.52149   5960172.20149  22411306.3234   22411314.5134
 95  2  4 17 57 29.9960000  0  6 29 18 25 22 14 15
  20479507.720   -18522259.15049 -14417671.16849  20479510.8534   20479515.6104
  22699134.584    -8772976.37249  -6812131.37549  22699136.1144   22699143.5224
  21771383.160     5767693.75449   4494822.90449  21771383.4784   21771389.0704
  20159527.430   -21957655.12049 -17089581.57149  20159529.0924   20159534.9924
  19025567.564   -18532750.14649 -14426871.47149  19025571.1584   19025576.7114
  22424368.906     7717281.74049   6013667.29349  22424370.5864   22424378.6594
 95  2  4 17 57 59.9950000  0  6 29 18 25 22 14 15
  20464691.573   -18600121.39549 -14478343.04949  20464693.8724   20464698.5884
  22678309.502    -8882413.40549  -6897406.98649  22678311.4674   22678318.2264
  21782211.442     5824606.81249   4539170.67949  21782213.0284   21782218.9214
  20146997.973   -22023505.11549 -17140893.26549  20146998.1844   20147004.3184
  19016462.465   -18580609.01949 -14464164.12149  19016464.1074   19016469.4684
  22437430.265     7785934.82249   6067163.05249  22437435.2484   22437442.8424
 95  2  4 17 58 29.9950000  0  6 29 18 25 22 14 15
  20449883.184   -18677930.37249 -14538973.42249  20449887.5104   20449892.3424
  22657479.279    -8991865.00749  -6982693.94549  22657484.0894   22657490.3154
  21793052.190     5881571.85849   4583558.94549  21793053.8474   21793059.7734
  20134558.977   -22088861.78049 -17191820.53749  20134561.2574   20134567.4164
  19007440.341   -18628013.59949 -14501102.77349  19007443.3374   19007448.8834
  22450499.089     7854598.10649   6120666.77549  22450501.1734   22450509.4314
 95  2  4 17 58 59.9950000  0  6 29 18 25 22 14 15
  20435089.025   -18755670.99949 -14599550.52949  20435093.9934   20435099.1494
  22636653.010    -9101323.56049  -7067986.31949  22636654.3014   22636661.1684
  21803902.748     5938589.59149   4627988.27749  21803903.7004   21803909.7854
  20122217.797   -22153722.90249 -17242361.67449  20122218.7254   20122224.6874
  18998509.900   -18674948.24949 -14537675.24549  18998512.0404   18998517.5084
  22463564.725     7923274.36649   6174180.61249  22463570.0504   22463578.5414
 95  2  4 17 59 29.9950000  0  6 29 18 25 22 14 15
  20420314.411   -18833329.28849 -14660063.48049  20420315.9614   20420320.9574
  22615820.625    -9210806.06749  -7153297.36849  22615820.6324   22615827.5704
  21814765.965     5995676.40249   4672471.44149  21814767.1024   21814773.1984
  20109968.742   -22218088.11149 -17292516.38849  20109970.3254   20109976.2154
  18989671.384   -18721395.18649 -14573867.68249  18989673.4194   18989678.6844
  22476638.831     7991960.73349   6227702.32349  22476640.7964   22476648.2664
 95  2  4 17 59 59.9950000  0  6 29 18 25 22 14 15
  20405551.347   -18910903.68849 -14720511.06649  20405554.2454   20405559.0784
  22594978.953    -9320321.66049  -7238634.20349  22594980.4804   22594987.2144
  21825641.196     6052823.43849   4717001.51649  21825641.9684   21825647.9984
  20097816.322   -22281953.23249 -17342281.42649  20097817.5724   20097823.1644
  18980924.531   -18767348.18349 -14609675.22949  18980928.5784   18980934.3794
  22489708.663     8060652.32849   6281228.10249  22489712.4694   22489720.2274
 95  2  4 18  0 29.9950000  0  6 29 18 25 22 14 15
  20390806.896   -18988382.88749 -14780884.46649  20390810.4814   20390815.2314
  22574131.142    -9429863.26649  -7323991.29349  22574135.4064   22574141.6414
  21836526.005     6110043.96549   4761588.87449  21836530.7664   21836536.5394
  20085764.970   -22345282.23449 -17391628.71049  20085766.2514   20085771.8564
  18972281.754   -18812770.78949 -14645069.48649  18972285.0414   18972290.8394
  22502781.070     8129361.81949   6334767.82549  22502787.6814   22502795.4484
 95  2  4 18  0 59.9950000  0  6 29 18 25 22 14 15
  20376077.414   -19065787.20049 -14841199.51449  20376081.1224   20376085.8114
  22553277.977    -9539453.25449  -7409386.09049  22553281.0814   22553287.7474
  21847429.622     6167328.93449   4806226.44149  21847432.0194   21847438.2434
  20073816.124   -22408073.60649 -17440557.05749  20073817.6584   20073823.5604
  18963740.357   -18857664.47749 -14680051.59649  18963742.0354   18963748.0794
  22515860.902     8198065.74249   6388303.20349  22515861.5264   22515869.9484
 95  2  4 18  1 29.9950000  0  6 29 18 25 22 14 15
  20361361.012   -19143122.24849 -14901460.58949  20361364.6724   20361369.4354
  22532416.560    -9649087.09049  -7494815.04349  22532418.7074   22532425.6394
  21858341.504     6224680.37949   4850915.80449  21858345.2654   21858351.5304
  20061972.349   -22470316.52449 -17489058.03449  20061973.0934   20061979.1354
  18955298.151   -18902019.99549 -14714614.35649  18955301.4744   18955307.6164
  22528930.906     8266767.76849   6441837.10649  22528935.3734   22528943.4174
 95  2  4 18  1 59.9950000  0  6 29 18 25 22 14 15
  20346656.905   -19220394.77549 -14961672.95049  20346660.3814   20346665.1924
  22511553.091    -9758740.79149  -7580259.47149  22511552.3164   22511559.3024
  21869268.646     6282088.41149   4895649.28749  21869270.1404   21869276.2834
  20050233.667   -22532000.41349 -17537123.40949  20050234.9734   20050241.2514
  18946957.954   -18945849.99249 -14748767.61649  18946961.1714   18946967.2534
  22542010.515     8335476.57049   6495376.28749  22542010.3504   22542018.3604
 95  2  4 18  2 29.9950000  0  6 29 18 25 22 14 15
  20331961.474   -19297620.13049 -15021848.55649  20331964.7164   20331969.4634
  22490680.153    -9868414.15649  -7665719.24549  22490682.1084   22490688.2214
  21880202.451     6339548.42449   4940423.24849  21880203.7364   21880210.6134
  20038598.363   -22593143.46649 -17584767.35549  20038599.9474   20038606.0374
  18938713.973   -18989175.29349 -14782527.61249  18938716.4784   18938722.4254
  22555084.417     8404179.63749   6548911.00549  22555083.3074   22555091.9254
 95  2  4 18  2 59.9950000  0  6 29 18 25 22 14 15
  20317278.405   -19374780.82949 -15081973.77349  20317281.4714   20317286.0544
  22469811.466    -9978086.07849  -7751177.87049  22469812.2544   22469819.0494
  21891147.101     6397069.26349   4985244.61749  21891150.3474   21891155.9644
  20027063.079   -22653762.29949 -17632002.81249  20027064.5424   20027070.4504
  18930563.546   -19032007.39049 -14815903.28949  18930565.8314   18930571.7544
  22568151.788     8472885.66849   6602448.03749  22568158.7104   22568166.5104
 95  2  4 18  3 29.9950000  0  6 29 18 25 22 14 15
  20302606.059   -19451882.86349 -15142053.28249  20302609.3004   20302613.9834
  22448941.255   -10087747.78549  -7836628.54449  22448944.3064   22448951.4764
  21902107.372     6454641.55949   5030106.09049  21902105.5454   21902112.5744
  20015624.340   -22713872.47149 -17678841.91149  20015626.0634   20015631.9804
  18922500.240   -19074375.51749 -14848917.43449  18922503.5054   18922509.6854
  22581228.875     8541588.32649   6655982.42849  22581232.7554   22581240.6324
 95  2  4 18  3 59.9950000  0  6 29 18 25 22 14 15
  20287945.794   -19528929.43549 -15202089.57449  20287948.0294   20287952.5964
  22428073.514   -10197411.48449  -7922080.78049  22428075.9684   22428082.1254
  21913066.209     6512264.02949   5075006.63249  21913071.1824   21913077.4294
  20004278.699   -22773491.18149 -17725298.05649  20004280.9824   20004286.8724
  18914522.868   -19116294.30949 -14881581.44849  18914526.7414   18914532.6124
  22594299.190     8610268.06749   6709498.94449  22594301.4564   22594310.1724
 95  2  4 18  4 29.9950000  0  6 29 18 25 22 14 15
  20273301.378   -19605884.29149 -15262054.39549  20273303.8824   20273308.7104
  22407206.339   -10307063.50849  -8007523.88549  22407209.9114   22407216.3074
  21924055.468     6569973.92449   5119975.32349  21924052.8504   21924058.8464
  19993033.457   -22832585.59749 -17771345.65249  19993035.5374   19993041.4384
  18906640.003   -19157725.68549 -14913865.65649  18906642.4904   18906648.1804
  22607366.522     8678945.21449   6763013.42049  22607369.6754   22607378.4554
 95  2  4 18  4 59.9950000  0  6 29 18 25 22 14 15
  20258667.698   -19682777.96549 -15321971.53849  20258671.2244   20258676.0974
  22386334.409   -10416741.06049  -8092986.89749  22386339.3254   22386345.4114
  21935037.218     6627732.14349   5164981.67349  21935044.1304   21935050.1844
  19981884.904   -22891170.39449 -17816996.15049  19981887.3454   19981893.0524
  18898841.658   -19198702.62349 -14945795.75449  18898844.8694   18898850.6734
  22620430.735     8747585.40249   6816499.08749  22620431.6714   22620440.4114
 95  2  4 18  5 29.9950000  0  6 29 18 25 22 14 15
  20244051.905   -19759583.29749 -15381819.84949  20244055.8164   20244060.8364
  22365467.747   -10526427.12849  -8178456.52249  22365465.3444   22365473.2014
  21946043.559     6685565.12049   5210046.26649  21946048.5914   21946055.5084
  19970843.395   -22949197.53249 -17862212.10849  19970845.1384   19970851.1064
  18891137.464   -19239195.27249 -14977348.49049  18891139.2414   18891145.3264
  22633491.500     8816209.51549   6869972.24549  22633491.4694   22633500.3434
 95  2  4 18  5 59.9950000  0  6 29 18 25 22 14 15
  20229452.662   -19836306.08449 -15441603.83549  20229456.0114   20229461.0784
  22344589.458   -10636143.35649  -8263949.66949  22344587.9414   22344594.9934
  21957064.479     6743454.30749   5255154.66849  21957065.7924   21957071.8454
  19959906.240   -23006676.94949 -17907001.27149  19959907.4874   19959913.5024
  18883524.573   -19279191.80549 -15008514.63949  18883528.4294   18883534.5764
  22646545.249     8884807.71649   6923425.21849  22646545.4824   22646554.6344
 95  2  4 18  6 29.9950000  0  6 29 18 25 22 14 15
  20214868.885   -19912944.83749 -15501322.34149  20214872.1504   20214876.9814
  22323702.911   -10745871.09849  -8349451.78249  22323707.7714   22323714.3174
  21968083.745     6801389.86249   5300299.21349  21968089.8204   21968095.9574
  19949076.158   -23063589.14549 -17951348.44249  19949076.9404   19949083.2534
  18876012.688   -19318671.83649 -15039278.31849  18876015.5364   18876021.4434
  22659595.222     8953394.79649   6976869.53749  22659597.3694   22659605.8164
 95  2  4 18  6 59.9950000  0  6 29 18 25 22 14 15
  20200301.669   -19989497.69249 -15560973.91149  20200304.4074   20200309.3424
  22302826.231   -10855587.61749  -8434945.14949  22302829.6984   22302835.9904
  21979124.137     6859373.61049   5345481.29449  21979124.2264   21979129.7874
  19938355.995   -23119925.98949 -17995247.28649  19938356.1864   19938362.3884
  18868602.695   -19357614.87649 -15069623.56149  18868604.8164   18868610.6134
  22672646.347     9021978.19149   7030310.98549  22672648.4734   22672656.7224
 95  2  4 18  7 29.9950000  0  6 29 18 25 22 14 15
  20185745.836   -20065993.76849 -15620581.24249  20185748.0654   20185753.3364
  22281944.656   -10965321.92949  -8520452.37849  22281948.1794   22281954.3544
  21990159.930     6917378.15049   5390679.58349  21990161.6864   21990168.8044
  19927738.468   -23175725.08949 -18038727.11449  19927738.5304   19927744.8704
  18861292.999   -19396028.31249 -15099556.12849  18861295.3774   18861301.3854
  22685692.507     9090524.29849   7083723.35649  22685692.4434   22685701.5904
 95  2  4 18  7 59.9950000  0  7 29 18 19 25 22 14 15
  20171191.578   -20142480.18449 -15680181.04249  20171193.2654   20171198.4834
  22261051.669   -11075103.99949  -8605996.81949  22261057.0284   22261063.4234
  23339561.439     -912176.33359   -688321.05159  23339562.1544   23339571.0094
  22001193.362     6975360.81549   5435860.81949  22001195.8564   22001201.4004
  19917213.305   -23231027.57649 -18081819.96849  19917215.0944   19917221.0394
  18854078.372   -19433938.14649 -15129096.27749  18854081.4584   18854087.4214
  22698717.957     9158990.75649   7137073.68049  22698721.3254   22698730.3604
 95  2  4 18  8 29.9950000  0  7 29 18 19 25 22 14 15
  20156651.711   -20218882.61249 -15739715.40049  20156654.4854   20156659.4194
  22240170.990   -11184852.67749  -8691515.24749  22240172.8944   22240178.7614
  23315876.498    -1036626.88749   -785295.52049  23315880.5894   23315889.2084
  22012238.632     7033405.99449   5481090.78149  22012241.6754   22012248.2844
  19906800.711   -23285749.22749 -18124460.22749  19906801.6714   19906807.9404
  18846970.925   -19471285.51349 -15158198.14049  18846974.2774   18846980.3054
  22711741.172     9227440.34449   7190410.83849  22711747.1904   22711756.4294
 95  2  4 18  8 59.9950000  0  7 29 18 19 25 22 14 15
  20142123.400   -20295224.45449 -15799202.55149  20142126.9834   20142131.8904
  22219287.015   -11294609.65149  -8777040.12749  22219286.4594   22219293.0634
  23292210.056    -1160994.09349   -882205.04249  23292213.5374   23292222.6844
  22023291.266     7091489.85949   5526350.86049  22023294.2184   22023300.5884
  19896484.182   -23339943.41149 -18166689.46649  19896488.7504   19896495.0264
  18839964.164   -19508117.83449 -15186898.66749  18839965.4944   18839971.6574
  22724761.758     9295825.31949   7243697.66449  22724760.7094   22724769.3684
 95  2  4 18  9 29.9950000  0  7 29 18 19 25 22 14 15
  20127614.458   -20371474.97349 -15858618.54349  20127617.1354   20127622.0514
  22198395.062   -11404368.45249  -8862566.43449  22198399.3824   22198406.6334
  23268557.960    -1285276.64749   -979048.61049  23268564.1224   23268573.2064
  22034355.486     7149626.60649   5571652.17649  22034357.7504   22034363.6724
  19886274.735   -23393601.70149 -18208501.12649  19886278.0374   19886284.3444
  18833051.673   -19544434.56449 -15215197.43849  18833054.6774   18833060.8674
  22737760.775     9364157.61549   7296943.44249  22737764.2394   22737773.1914
 95  2  4 18  9 59.9950000  0  7 29 18 19 25 22 14 15
  20113127.275   -20447609.16949 -15917943.88949  20113129.1044   20113134.1314
  22177511.720   -11514128.22849  -8948093.50149  22177513.1754   22177519.7004
  23244926.011    -1409465.26249  -1075818.98949  23244932.1954   23244940.6454
  22045429.497     7207830.51749   5617005.81549  22045433.7064   22045440.2384
  19876169.353   -23446715.90949 -18249888.83049  19876170.7024   19876177.1204
  18826239.781   -19580239.35049 -15243097.28949  18826241.3654   18826247.3164
  22750760.795     9432444.09549   7350153.52049  22750758.2114   22750767.4654
 95  2  4 18 10 29.9950000  0  7 29 18 19 25 22 14 15
  20098662.033   -20523611.01849 -15977166.10949  20098666.6104   20098671.7384
  22156620.700   -11623889.80849  -9033621.95549  22156626.0064   22156633.3324
  23221317.015    -1533553.03249  -1172510.77349  23221318.5224   23221327.6224
  22056518.316     7266094.61549   5662406.34849  22056521.3494   22056527.5734
  19866163.431   -23499294.53649 -18290859.19649  19866165.3894   19866171.9934
  18819520.139   -19615539.62449 -15270604.01549  18819524.1634   18819530.2014
  22763745.182     9500682.16349   7403325.86149  22763743.6994   22763753.1564
 95  2  4 18 10 59.9950000  0  7 29 18 19 25 22 14 15
  20084219.344   -20599516.32549 -16036313.09749  20084222.2474   20084227.5224
  22135730.337   -11733703.20649  -9119190.80549  22135729.5634   22135736.2974
  23197715.322    -1657573.45349  -1269150.08649  23197717.0994   23197727.2234
  22067606.736     7324360.32149   5707808.13949  22067608.5644   22067614.8414
  19856252.777   -23551383.26249 -18331447.81949  19856253.2654   19856259.6494
  18812895.422   -19650357.76249 -15297735.04849  18812898.4504   18812904.3914
  22776710.739     9568833.75449   7456430.82749  22776712.6994   22776721.9474
 95  2  4 18 11 29.9950000  0  7 29 18 19 25 22 14 15
  20069795.912   -20675317.06549 -16095378.60949  20069798.0124   20069802.9664
  22114821.060   -11843553.05649  -9204788.05649  22114825.4414   22114831.7794
  23174136.792    -1781495.73149  -1365712.90549  23174136.6504   23174146.9464
  22078694.971     7382635.33349   5753217.18249  22078698.2204   22078704.3964
  19846440.843   -23602939.19949 -18371621.28549  19846442.7074   19846448.9494
  18806367.055   -19684666.02749 -15324468.77949  18806369.6814   18806375.7094
  22789667.222     9636918.12549   7509483.41249  22789668.8714   22789678.2774
 95  2  4 18 11 59.9950000  0  7 29 18 19 25 22 14 15
  20055387.615   -20751023.40549 -16154370.56349  20055391.5594   20055396.4744
  22093917.286   -11953415.64849  -9290395.23449  22093918.8344   22093926.4464
  23150578.759    -1905281.04649  -1462169.01849  23150580.1674   23150591.0994
  22089786.096     7440923.00549   5798636.07549  22089789.6724   22089796.6244
  19836735.082   -23653941.88849 -18411363.64849  19836737.1164   19836743.4774
  18799939.108   -19718447.59149 -15350792.08849  18799941.2174   18799947.3454
  22802609.948     9704943.65249   7562490.13049  22802614.0414   22802622.9504
 95  2  4 18 12 29.9950000  0  7 29 18 19 25 22 14 15
  20041006.997   -20826594.39449 -16213257.04949  20041010.7924   20041015.9494
  22073023.932   -12063216.64149  -9375954.42849  22073025.0814   22073032.2834
  23127069.744    -2028859.38949  -1558463.84049  23127063.9604   23127074.4444
  22100893.717     7499280.99549   5844109.77249  22100895.2804   22100901.2104
  19827149.023   -23704322.99949 -18450621.67049  19827149.7934   19827156.3104
  18793622.002   -19751644.66249 -15376659.95449  18793624.2174   18793630.3164
  22815557.927     9772973.30749   7615500.07749  22815559.9114   22815569.4414
 95  2  4 18 12 59.9950000  0  7 29 18 19 25 22 14 15
  20026639.452   -20902101.41249 -16272093.68349  20026642.0944   20026647.2224
  22052122.019   -12173026.52849  -9461520.54549  22052128.7994   22052135.2764
  23103563.908    -2152303.48549  -1654654.06549  23103572.6754   23103582.7004
  22112002.433     7557658.58749   5889598.76449  22112004.1754   22112011.0954
  19817670.085   -23754134.07949 -18489435.50849  19817670.9874   19817677.4454
  18787401.953   -19784325.94849 -15402125.91049  18787405.1274   18787411.0844
  22828491.386     9840943.75349   7668463.88249  22828493.9704   22828502.8444
 95  2  4 18 13 29.9950000  0  7 29 18 19 25 22 14 15
  20012276.277   -20977579.90949 -16330908.09249  20012278.9864   20012284.3244
  22031222.608   -12282871.88749  -9547114.30049  22031225.4244   22031232.8674
  23080101.213    -2275641.85049  -1750761.88449  23080102.8244   23080113.5894
  22123109.933     7616034.24649   5935086.21349  22123112.5324   22123119.8804
  19808292.712   -23803405.63349 -18527828.93349  19808294.9624   19808301.5014
  18781273.236   -19816540.44449 -15427228.13349  18781274.9954   18781281.1434
  22841405.857     9908819.83149   7721354.14549  22841410.7154   22841420.1464
 95  2  4 18 13 59.9950000  0  7 29 18 19 25 22 14 15
  19997927.371   -21052986.59949 -16389666.54949  19997929.8324   19997934.9964
  22010318.656   -12392714.90749  -9632706.23949  22010323.1774   22010330.3494
  23056660.177    -2398846.90949  -1846765.82449  23056658.0344   23056668.0084
  22134222.633     7674440.21549   5980597.29849  22134227.3734   22134232.7474
  19799023.939   -23852115.75249 -18565784.87649  19799026.0324   19799032.4834
  18775235.368   -19848266.72349 -15451949.92749  18775237.5114   18775243.6934
  22854312.112     9976624.50349   7774188.77249  22854313.4514   22854322.5304
 95  2  4 18 14 29.9950000  0  7 29 18 19 25 22 14 15
  19983596.917   -21128288.92649 -16448343.68249  19983600.1814   19983605.0024
  21989421.311   -12502547.34049  -9718289.93849  21989422.8294   21989429.9034
  23033235.965    -2521924.46149  -1942670.40449  23033237.4534   23033246.9854
  22145346.184     7732892.39349   6026144.40349  22145350.1944   22145356.8114
  19789864.635   -23900245.09649 -18603288.26949  19789867.2064   19789873.2124
  18769295.384   -19879478.12549 -15476270.52149  18769298.1634   18769303.9354
  22867203.208    10044370.57149   7826977.72149  22867205.0994   22867214.5414
 95  2  4 18 14 59.9950000  0  7 29 18 19 25 22 14 15
  19969288.001   -21203479.25149 -16506933.54349  19969292.0384   19969296.8134
  21968523.579   -12612374.94749  -9803869.86149  21968523.3084   21968530.2804
  23009836.743    -2644882.16449  -2038481.58749  23009840.2244   23009849.1934
  22156475.134     7791378.65349   6071718.03749  22156479.1274   22156486.3004
  19780817.541   -23947794.38549 -18640339.66749  19780818.7604   19780825.1504
  18763456.984   -19910159.14349 -15500177.82349  18763459.8844   18763465.8674
  22880078.828    10112044.51549   7879710.46349  22880083.4354   22880092.9294
 95  2  4 18 15 29.9950000  0  7 29 18 19 25 22 14 15
  19954990.951   -21278617.46849 -16565482.80149  19954993.6274   19954998.2754
  21947611.434   -12722246.15549  -9889483.77349  21947615.1464   21947622.2794
  22986457.086    -2767764.06749  -2134233.72949  22986456.5964   22986465.0884
  22167599.600     7849829.08249   6117263.76349  22167602.3604   22167608.8314
  19771868.261   -23994827.64649 -18676988.96849  19771868.4984   19771874.8274
  18757709.706   -19940358.76249 -15523710.01349  18757712.9224   18757718.8634
  22892929.150    10179581.76449   7932336.70249  22892935.0134   22892944.2394
 95  2  4 18 15 59.9950000  0  7 29 18 19 25 22 14 15
  19940711.276   -21353651.41549 -16623950.80749  19940715.0274   19940719.6264
  21926702.877   -12832109.06849  -9975091.21349  21926708.7844   21926716.3924
  22963082.636    -2890518.76449  -2229886.72949  22963096.6724   22963105.7714
  22178725.679     7908291.42149   6162818.76049  22178727.5284   22178733.5944
  19763025.487   -24041288.69449 -18713192.38749  19763027.3364   19763033.4414
  18752067.865   -19970012.35849 -15546816.73549  18752069.9924   18752075.9704
  22905774.038    10247037.95349   7984899.75949  22905772.2004   22905781.0914
 95  2  4 18 16 29.9950000  0  7 29 18 19 25 22 14 15
  19926455.136   -21428573.27949 -16682331.47049  19926457.9914   19926462.5174
  21905803.235   -12941971.20549 -10060698.04849  21905803.0454   21905809.7784
  22939755.958    -3013134.99749  -2325431.83749  22939762.6484   22939773.6634
  22189857.495     7966778.65149   6208393.17949  22189857.3254   22189863.6734
  19754295.781   -24087164.05349 -18748939.42349  19754297.5054   19754303.5524
  18746530.519   -19999099.17149 -15569481.80749  18746534.8134   18746540.8324
  22918590.582    10314425.83349   8037409.58549  22918594.7934   22918605.1264
 95  2  4 18 16 59.9950000  0  7 29 18 19 25 22 14 15
  19912213.983   -21503416.19849 -16740650.62549  19912215.8414   19912220.4914
  21884883.606   -13051870.52349 -10146333.85049  21884890.0624   21884897.0894
  22916449.035    -3135638.27549  -2420888.95349  22916450.6374   22916461.1604
  22200983.051     8025266.20149   6253967.80649  22200986.7284   22200994.1824
  19745671.549   -24132485.39149 -18784254.75749  19745673.4374   19745679.5894
  18741096.130   -20027669.06149 -15591744.08749  18741098.5434   18741104.4984
  22931396.689    10381708.84249   8089837.71349  22931399.6024   22931408.7764
 95  2  4 18 17 29.9950000  0  7 29 18 19 25 22 14 15
  19897980.281   -21578202.37749 -16798925.56249  19897984.3244   19897989.0614
  21863966.978   -13161827.47149 -10232014.55049  21863965.1304   21863973.0124
  22893159.358    -3258047.72649  -2516272.94849  22893157.5614   22893168.3294
  22212109.706     8083732.75149   6299526.09749  22212113.0774   22212119.3094
  19737149.464   -24177265.57149 -18819148.40549  19737151.8904   19737157.9354
  18735749.702   -20055762.17549 -15613634.84649  18735752.4544   18735758.4524
  22944174.555    10448869.90149   8142170.81549  22944179.6934   22944189.0834
 95  2  4 18 17 59.9950000  0  7 29 18 19 25 22 14 15
  19883773.931   -21652872.50249 -16857110.06849  19883774.8784   19883779.5284
  21843038.339   -13271778.53849 -10317690.66849  21843042.5634   21843049.5724
  22869887.634    -3380314.68049  -2611545.90549  22869890.6294   22869900.2014
  22223245.513     8142237.36849   6345114.05949  22223245.6694   22223252.1734
  19728746.037   -24221432.27049 -18853564.01649  19728747.0024   19728752.8814
  18730507.846   -20083305.44649 -15635097.15849  18730511.0344   18730516.7764
  22956951.922    10515967.13049   8194454.18749  22956947.6744   22956958.2734
 95  2  4 18 18 29.9950000  0  7 29 18 19 25 22 14 15
  19869590.977   -21727402.50249 -16915185.39049  19869592.5664   19869597.4304
  21822128.011   -13381683.53049 -10403330.88249  21822128.6994   21822135.6294
  22846653.719    -3502414.49649  -2706688.62649  22846656.4424   22846666.0284
  22234390.067     8200808.96749   6390754.19849  22234392.3014   22234398.4454
  19720463.358   -24264962.09149 -18887483.36549  19720463.9034   19720469.9164
  18725376.743   -20110274.18649 -15656111.79249  18725379.3864   18725385.1694
  22969705.005    10583017.52949   8246701.06249  22969707.2284   22969717.1734
 95  2  4 18 18 59.9950000  0  8 29 18 19 25 22 14 15  4
  19855415.060   -21801881.48149 -16973220.94949  19855419.6484   19855424.6844
  21801208.604   -13491598.83849 -10488979.13349  21801212.4294   21801219.2534
  22823438.385    -3624428.00649  -2801764.10649  22823438.5224   22823447.0054
  22245531.148     8259352.60049   6436372.56049  22245532.3744   22245539.6154
  19712280.812   -24307949.10249 -18920979.73449  19712283.7244   19712290.0244
  18720339.616   -20136748.66749 -15676741.28349  18720341.5034   18720347.4064
  22982444.066    10649937.59149   8298846.37949  22982442.5314   22982451.9554
  23333546.976    -4923554.22859  -3818546.46259  23333545.3564   23333550.8664
 95  2  4 18 19 29.9950000  0  8 29 18 19 25 22 14 15  4
  19841259.911   -21876276.70649 -17031191.24549  19841262.8404   19841267.9294
  21780301.320   -13601477.73749 -10574599.00849  21780302.9354   21780310.8374
  22800242.327    -3746313.70949  -2896739.97249  22800244.1104   22800254.0904
  22256663.950     8317884.26649   6481981.57849  22256669.5294   22256676.3804
  19704208.653   -24350371.58149 -18954036.20849  19704211.2694   19704217.5874
  18715404.621   -20162678.97349 -15696946.73949  18715407.2284   18715413.3994
  22995153.516    10716762.00249   8350917.15749  22995158.5624   22995168.3304
  23321974.877    -4984316.39549  -3865893.67449  23321981.6804   23321987.3294
 95  2  4 18 19 59.9950000  0  8 29 18 19 25 22 14 15  4
  19827125.794   -21950553.95749 -17089069.61949  19827128.5134   19827133.5414
  21759402.040   -13711292.78949 -10660169.14049  21759406.5274   21759413.6714
  22777080.256    -3868043.99849  -2991594.75849  22777079.6964   22777089.6454
  22267810.009     8376429.10749   6527600.90149  22267811.9624   22267818.4814
  19696245.756   -24392220.15249 -18986645.48149  19696247.6004   19696254.1474
  18710579.486   -20188033.01949 -15716703.16149  18710582.6284   18710588.7514
  23007855.455    10783510.66449   8402928.90949  23007860.7464   23007870.2044
  23310505.278    -5044581.67949  -3912853.68649  23310513.1264   23310520.6584
 95  2  4 18 20 29.9950000  0  8 29 18 19 25 22 14 15  4
  19813017.108   -22024694.04749 -17146841.11149  19813020.0484   19813025.0924
  21738513.209   -13821061.14749 -10745702.88749  21738517.7574   21738525.1374
  22753952.232    -3989611.11049  -3086322.41149  22753945.8334   22753954.7864
  22278951.680     8434987.04749   6573230.39449  22278953.5024   22278962.0914
  19688390.268   -24433499.68149 -19018811.34449  19688392.1144   19688398.5404
  18705861.544   -20212837.85349 -15736031.62749  18705862.3834   18705868.3674
  23020551.615    10850183.84249   8454881.84449  23020548.1534   23020558.2204
  23299141.781    -5104343.91749  -3959421.70349  23299140.8114   23299148.2094
 95  2  4 18 20 59.9950000  0  8 29 18 19 25 22 14 15  4
  19798925.107   -22098745.26049 -17204543.35249  19798928.4794   19798933.5244
  21717620.461   -13930856.09949 -10831257.34949  21717624.5484   21717631.8884
  22730824.628    -4111073.85949  -3180968.72649  22730832.6254   22730841.5324
  22290083.572     8493500.66849   6618825.35049  22290089.4084   22290095.2684
  19680632.824   -24474263.18849 -19050575.11149  19680635.2714   19680641.6454
  18701233.435   -20237151.03749 -15754976.99049  18701235.5644   18701241.7964
  23033203.222    10916721.28749   8506729.00749  23033209.8404   23033220.5824
  23287847.984    -5163662.47249  -4005643.99549  23287854.7114   23287860.4174
 95  2  4 18 21 29.9950000  0  8 29 18 19 25 22 14 15  4
  19784861.729   -22172658.07449 -17262137.74949  19784863.2164   19784868.3384
  21696730.664   -14040642.12649 -10916804.85549  21696733.3734   21696740.3184
  22707743.062    -4232392.49149  -3275502.71849  22707746.2564   22707755.3234
  22301222.780     8552031.20749   6664433.50249  22301227.6514   22301234.9154
  19672984.935   -24514455.89449 -19081894.10049  19672986.7954   19672993.3004
  18696707.086   -20260936.81949 -15773511.39049  18696709.5894   18696715.7394
  23045850.886    10983157.93549   8558497.62349  23045853.0004   23045862.6944
  23276649.807    -5222505.00449  -4051495.37749  23276657.2264   23276663.2614
 95  2  4 18 21 59.9950000  0  8 29 18 19 25 22 14 15  4
  19770831.981   -22246379.42249 -17319582.95149  19770834.5844   19770839.7064
  21675851.018   -14150374.00049 -11002310.17849  21675851.9154   21675858.8364
  22684698.435    -4353520.60149  -3369888.26449  22684696.4464   22684705.3294
  22312379.578     8610648.10749   6710108.95849  22312382.1484   22312389.1684
  19665455.586   -24554020.50549 -19112723.66349  19665457.9544   19665464.2964
  18692291.007   -20284144.64549 -15791595.43949  18692293.2194   18692299.2934
  23058482.503    11049541.70349   8610225.04349  23058485.7044   23058495.5694
  23265553.256    -5280835.30049  -4096947.57549  23265555.9594   23265562.4804
 95  2  4 18 22 29.9950000  0  8 29 18 19 25 22 14 15  4
  19756833.381   -22319938.46649 -17376901.68749  19756836.6924   19756841.8424
  21654978.616   -14260071.02549 -11087788.33849  21654977.1004   21654984.2454
  22661673.947    -4474484.92749  -3464146.18649  22661678.4214   22661687.5494
  22323547.547     8669335.88449   6755839.61549  22323550.0314   22323556.8564
  19658041.124   -24592982.00749 -19143083.27349  19658043.9084   19658050.4714
  18687982.727   -20306781.90249 -15809234.88649  18687985.4284   18687991.5164
  23071096.836    11115847.56149   8661891.73649  23071103.3274   23071113.2124
  23254541.642    -5338678.89349  -4142020.53949  23254548.2974   23254555.6954
 95  2  4 18 22 59.9950000  0  8 29 18 19 25 22 14 15  4
  19742849.563   -22393426.23049 -17434164.87449  19742852.5874   19742857.6784
  21634097.065   -14369781.19749 -11173276.73649  21634100.2044   21634107.4554
  22638677.400    -4595351.87849  -3558328.21949  22638677.1754   22638686.5804
  22334719.259     8728022.09849   6801569.06049  22334717.7274   22334724.3174
  19650729.280   -24631416.83449 -19173032.48649  19650730.0094   19650736.4124
  18683774.312   -20328896.33549 -15826466.93749  18683777.4394   18683783.4404
  23083686.155    11182000.00149   8713438.89649  23083690.8194   23083702.1144
  23243618.500    -5396098.20649  -4186762.89749  23243622.2344   23243628.6644
 95  2  4 18 23 29.9940000  0  8 29 18 19 25 22 14 15  4
  19728881.820   -22466820.52849 -17491355.23449  19728886.0554   19728891.1524
  21613225.678   -14479466.07849 -11258745.43849  21613227.5754   21613234.3884
  22615702.452    -4716079.10649  -3652401.37349  22615704.1654   22615713.2904
  22345886.595     8786720.90949   6847308.34449  22345888.5824   22345894.4744
  19643518.448   -24669299.66949 -19202551.58049  19643521.1414   19643527.3744
  18679671.115   -20350461.49749 -15843270.98849  18679673.6274   18679679.6064
  23096251.038    11248020.16349   8764882.96349  23096255.3064   23096265.7314
  23232775.503    -5453078.92649  -4231163.50349  23232779.2474   23232786.2734
 95  2  4 18 23 59.9940000  0  8 29 18 19 25 22 14 15  4
  19714933.989   -22540124.20749 -17548474.98049  19714936.7384   19714941.8604
  21592354.444   -14589141.82249 -11344207.02649  21592357.3204   21592363.6084
  22592754.163    -4836670.83149  -3746368.94249  22592756.2594   22592765.3124
  22357053.735     8845411.38549   6893041.12049  22357055.6914   22357063.3784
  19636415.752   -24706625.68649 -19231636.78849  19636418.1764   19636424.4174
  18675671.581   -20371481.25349 -15859650.04549  18675673.7704   18675679.8124
  23108794.737    11313910.22549   8816225.66249  23108793.6144   23108804.1224
  23222013.164    -5509628.01849  -4275227.77449  23222018.7314   23222025.0094
 95  2  4 18 24 29.9940000  0  8 29 18 19 25 22 14 15  4
  19700996.901   -22613367.76149 -17605547.88049  19700999.0504   19701004.0184
  21571483.738   -14698828.03849 -11429676.77149  21571484.4534   21571490.9644
  22569825.410    -4957145.80649  -3840245.52149  22569829.9634   22569839.9924
  22368213.927     8904045.96449   6938730.32649  22368214.6164   22368220.9714
  19629417.328   -24743403.90349 -19260295.14249  19629419.4444   19629425.7854
  18671769.010   -20391984.67249 -15875626.76149  18671772.0854   18671778.1414
  23121298.061    11379639.35649   8867442.96349  23121301.9264   23121312.5244
  23211339.328    -5565755.08649  -4318963.20449  23211337.8544   23211345.1674
 95  2  4 18 24 59.9940000  0  8 29 18 19 25 22 14 15  4
  19687083.762   -22686477.92049 -17662516.82849  19687086.6684   19687091.8034
  21550617.295   -14808457.87649 -11515102.57549  21550622.1044   21550628.8794
  22546940.214    -5077411.24749  -3933958.81449  22546944.2174   22546953.5694
  22379372.753     8962693.78849   6984429.88849  22379374.8444   22379381.8984
  19622543.290   -24779525.23049 -19288441.63049  19622545.7034   19622552.5144
  18667979.934   -20411907.56049 -15891151.11249  18667980.8694   18667987.0234
  23133789.298    11445285.80849   8918595.82049  23133794.8154   23133804.3344
  23200747.696    -5621389.16549  -4362314.46649  23200751.4044   23200757.5094
 95  2  4 18 25 29.9940000  0  8 29 18 19 25 22 14 15  4
  19673190.604   -22759483.45449 -17719404.25349  19673194.2744   19673199.3084
  21529756.218   -14918097.32649 -11600535.87649  21529759.1394   21529765.2494
  22524084.508    -5197518.75749  -4027549.05349  22524088.8394   22524098.8614
  22390522.483     9021313.12649   7030107.22649  22390529.9974   22390536.9124
  19615788.069   -24815025.02349 -19316103.81149  19615790.3784   19615797.1514
  18664287.649   -20431300.04949 -15906262.16349  18664290.7394   18664296.8824
  23146259.469    11510804.32149   8969648.99349  23146261.8964   23146271.9104
  23190243.602    -5676573.87949  -4405315.57149  23190249.9254   23190257.6534
 95  2  4 18 25 59.9940000  0  8 29 18 19 25 22 14 15  4
  19659315.475   -22832402.46049 -17776224.25249  19659318.1484   19659323.3744
  21508884.309   -15027780.59349 -11686003.31449  21508886.6994   21508893.1924
  22501253.527    -5317507.69649  -4121046.88549  22501255.3134   22501265.1484
  22401670.986     9079883.45849   7075746.37949  22401675.0824   22401682.5984
  19609147.990   -24849922.98349 -19343297.02849  19609149.7184   19609156.3654
  18660695.872   -20450179.28249 -15920973.27649  18660698.0224   18660704.3594
  23158695.506    11576171.30749   9020584.09149  23158701.0784   23158711.9494
  23179820.586    -5731303.81949  -4447962.32349  23179834.1844   23179841.6054
 95  2  4 18 26 29.9940000  0  8 29 18 19 25 22 14 15  4
  19645461.072   -22905202.15749 -17832951.28449  19645464.8024   19645469.9544
  21488016.404   -15137465.26649 -11771471.85849  21488014.1854   21488020.7664
  22478452.698    -5437337.99849  -4214421.12549  22478453.0074   22478462.1474
  22412814.829     9138451.79349   7121383.97449  22412820.4734   22412827.3114
  19602624.943   -24884195.98849 -19370003.26649  19602627.8664   19602634.4204
  18657209.797   -20468501.56749 -15935250.40849  18657211.4164   18657217.6034
  23171124.129    11641424.26949   9071430.32849  23171118.6654   23171128.8644
  23169508.147    -5785536.61449  -4490221.70449  23169516.1074   23169522.3814
 95  2  4 18 26 59.9940000  0  7 29 18 19 25 22 14  4
  19631626.006   -22977910.88349 -17889607.42649  19631628.8574   19631634.0764
  21467133.849   -15247188.56149 -11856970.49649  21467134.3934   21467141.2664
  22455663.827    -5557054.14749  -4307706.39549  22455670.7614   22455681.1024
  22423955.761     9196999.70549   7167005.66249  22423961.4894   22423969.4444
  19596213.621   -24917892.96049 -19396260.64649  19596215.4754   19596221.8564
  18653820.746   -20486307.11149 -15949124.87949  18653823.3484   18653829.5434
  23159275.305    -5839327.90649  -4532137.02649  23159278.2434   23159286.2234
 95  2  4 18 27 29.9940000  0  7 29 18 19 25 22 14  4
  19617816.947   -23050477.24649 -17946152.63549  19617819.9334   19617825.1344
  21446259.901   -15356884.51049 -11942447.83049  21446260.0674   21446266.7764
  22432911.889    -5676625.81749  -4400879.08049  22432917.0254   22432927.1144
  22435097.977     9255565.27149   7212641.09449  22435106.3724   22435113.7244
  19589915.483   -24950992.82049 -19422052.74549  19589916.6894   19589923.2574
  18650538.862   -20503551.03549 -15962561.72749  18650542.1044   18650548.1734
  23149126.522    -5892626.40849  -4573668.40649  23149136.8524   23149144.1104
 95  2  4 18 27 59.9940000  0  7 29 18 19 25 22 14  4
  19604033.276   -23122911.79349 -18002595.13149  19604036.1124   19604041.3834
  21425398.076   -15466523.68949 -12027880.92449  21425396.8164   21425403.2474
  22410188.199    -5796042.66349  -4493931.13649  22410193.2744   22410203.2384
  22446249.051     9314149.56749   7258291.12849  22446254.4214   22446261.5754
  19583728.952   -24983495.94149 -19447379.84949  19583731.3534   19583738.1134
  18647363.099   -20520241.11149 -15975567.00549  18647366.0774   18647372.0634
  23139072.887    -5945437.37149  -4614819.84049  23139085.9824   23139094.0264
 95  2  4 18 28 29.9940000  0  7 29 18 19 25 22 14  4
  19590276.134   -23195211.30149 -18058932.40149  19590278.0054   19590283.1644
  21404545.414   -15576080.86349 -12113250.12249  21404548.6324   21404554.9444
  22387495.570    -5915286.87249  -4586848.65349  22387501.1084   22387511.3694
  22457405.375     9372761.63349   7303962.79149  22457408.8384   22457416.0444
  19577660.078   -25015394.76549 -19472236.07349  19577661.1394   19577667.8174
  18644291.875   -20536384.93949 -15988146.63549  18644293.8774   18644300.0984
  23129121.638    -5997771.82449  -4655599.95749  23129128.1904   23129135.9224
 95  2  4 18 28 59.9940000  0  7 29 18 19 25 22 14  4
  19576543.641   -23267362.78449 -18115154.32849  19576547.8414   19576553.1484
  21383713.803   -15685552.55549 -12198552.70849  21383716.4864   21383723.5664
  22364837.733    -6034365.09949  -4679636.83949  22364843.1204   22364851.9934
  22468569.747     9431398.07749   7349653.44149  22468566.5984   22468574.1494
  19571704.754   -25046685.62549 -19496618.56249  19571706.7724   19571713.6824
  18641320.240   -20551993.82449 -16000309.42549  18641323.8454   18641330.0814
  23119258.426    -6049625.47049  -4696005.43849  23119259.6594   23119268.1594
 95  2  4 18 29 29.9940000  0  7 29 18 19 25 22 14  4
  19562838.716   -23339390.84849 -18171280.08449  19562841.5224   19562846.6614
  21362897.922   -15794950.72049 -12283797.99149  21362898.8094   21362905.2104
  22342203.574    -6153296.15749  -4772310.34449  22342209.9154   22342220.1644
  22479719.482     9490023.41049   7395335.46349  22479723.5294   22479730.1354
  19565859.307   -25077400.63049 -19520552.33449  19565861.9094   19565868.6634
  18638448.438   -20567090.11849 -16012072.79549  18638450.9954   18638457.1254
  23109485.739    -6100995.46849  -4736034.04749  23109486.7324   23109493.1794
 95  2  4 18 29 59.9940000  0  7 29 18 19 25 22 14  4
  19549156.153   -23411294.19849 -18227308.66149  19549158.7414   19549163.6514
  21342087.921   -15904297.64149 -12369003.36049  21342091.2724   21342097.2544
  22319606.249    -6272085.09449  -4864873.12049  22319604.7654   22319615.1854
  22490871.620     9548641.59149   7441011.89949  22490877.3514   22490884.4414
  19560123.377   -25107544.68149 -19544041.21249  19560125.4234   19560132.2244
  18635670.939   -20581679.38149 -16023441.07649  18635674.8134   18635680.7394
  23099799.593    -6151879.78549  -4775684.22449  23099802.4214   23099809.0954
 95  2  4 18 30 29.9940000  0  7 29 18 19 25 22 14  4
  19535501.790   -23483044.98349 -18283218.35649  19535505.0384   19535510.0984
  21321289.737   -16013604.56549 -12454177.54149  21321290.1764   21321296.7784
  22297027.055    -6390722.67549  -4957317.96349  22297028.6314   22297039.1004
  22502032.783     9607257.23049   7486686.35949  22502031.8834   22502038.8744
  19554496.597   -25137112.33549 -19567080.94649  19554499.0884   19554505.5664
  18632997.191   -20595736.49949 -16034394.69549  18632999.7254   18633005.8514
  23090217.295    -6202259.21649  -4814940.96949  23090215.7674   23090222.0014
 95  2  4 18 30 59.9940000  0  7 29 18 19 25 22 14  4
  19521880.536   -23554630.61549 -18338999.35849  19521882.8034   19521887.9994
  21300496.167   -16122866.92949 -12539317.00049  21300498.3434   21300505.7214
  22274482.492    -6509194.12849  -5049633.33849  22274485.0814   22274494.2844
  22513185.265     9665887.21049   7532371.97249  22513188.2504   22513196.7124
  19548981.562   -25166099.08849 -19589668.02549  19548982.9394   19548989.7164
  18630430.731   -20609223.18549 -16044903.82249  18630433.1404   18630439.7024
  23080726.988    -6252107.93749  -4853784.17549  23080729.5024   23080736.8034
 95  2  4 18 31 29.9940000  0  7 29 18 19 25 22 14  4
  19508285.442   -23626066.20549 -18394663.44249  19508288.9444   19508294.2404
  21279710.732   -16232100.47549 -12624434.00449  21279711.9824   21279718.6414
  22251966.282    -6627488.26849  -5141810.55849  22251974.5724   22251983.6004
  22524346.028     9724531.89149   7578069.06649  22524348.4464   22524355.0024
  19543574.982   -25194504.75449 -19611802.31349  19543577.7474   19543584.1934
  18627977.210   -20622118.00549 -16054951.75749  18627979.3924   18627985.7164
  23071337.882    -6301442.17749  -4892226.48249  23071342.0574   23071348.2294
 95  2  4 18 31 59.9940000  0  7 29 18 19 25 22 14  4
  19494719.805   -23697352.91649 -18450211.51949  19494723.5204   19494728.8494
  21258921.854   -16341332.99149 -12709550.21249  21258926.1184   21258932.4654
  22229492.262    -6745600.70649  -5233846.19549  22229498.6694   22229507.6314
  22535502.976     9783188.22049   7623775.25749  22535509.2794   22535517.2984
  19538283.242   -25222319.10649 -19633475.83749  19538285.0194   19538291.6104
  18625636.631   -20634410.07649 -16064530.01549  18625640.3144   18625646.8364
  23062051.993    -6350295.23849  -4930293.87849  23062045.6504   23062052.2524
 95  2  4 18 32 29.9940000  0  7 29 18 19 25 22 14  4
  19481181.334   -23768501.78849 -18505652.18649  19481184.3584   19481189.6154
  21238136.681   -16450554.72349 -12794658.00849  21238141.2234   21238147.6964
  22207051.455    -6863523.43649  -5325733.99149  22207058.3664   22207067.4244
  22546672.788     9841840.84349   7669478.51449  22546670.9874   22546679.2394
  19533101.856   -25249542.51149 -19654688.88549  19533104.7704   19533111.1724
  18623414.737   -20646087.44449 -16073629.28749  18623418.0604   18623424.4764
  23052830.138    -6398690.12649  -4968004.17749  23052835.1954   23052842.0844
 95  2  4 18 32 59.9940000  0  7 29 18 19 25 22 14  4
  19467649.999   -23839611.62949 -18561062.44449  19467652.5534   19467657.7374
  21217341.066   -16559840.16349 -12879815.45949  21217344.8534   21217351.5264
  22184635.103    -6981346.00649  -5417543.74949  22184637.3384   22184646.6424
  22557811.184     9900396.01149   7715105.88749  22557814.2474   22557821.3724
  19528020.509   -25276251.16549 -19675500.82649  19528022.2024   19528028.5704
  18621291.014   -20657248.70949 -16082326.40149  18621294.2234   18621300.3714
  23043694.793    -6446725.25249  -5005434.19049  23043695.4674   23043702.0014
 95  2  4 18 33 29.9940000  0  7 29 18 19 25 22 14  4
  19454142.549   -23910592.92749 -18616372.53949  19454145.3004   19454150.4184
  21196551.164   -16669096.30849 -12964950.06649  21196554.3124   21196560.9304
  22162245.442    -7098987.86049  -5509212.67349  22162250.9424   22162260.2524
  22568951.675     9958918.14749   7760707.48949  22568950.4434   22568958.0474
  19523052.885   -25302357.35549 -19695843.31349  19523054.2214   19523060.8014
  18619275.648   -20667841.10249 -16090580.23949  18619278.6564   18619284.8054
  23034642.270    -6494332.37749  -5042530.69849  23034636.2224   23034643.1284
 95  2  4 18 33 59.9940000  0  7 29 18 19 25 22 14  4
  19440664.828   -23981417.23149 -18671560.30049  19440667.9944   19440673.1294
  21175776.855   -16778279.16849 -13050027.57949  21175777.6024   21175783.9794
  22139898.080    -7216435.91349  -5600730.59349  22139900.9514   22139910.7674
  22580073.103    10017413.88449   7806288.53949  22580081.3634   22580089.4114
  19518204.304   -25327832.65349 -19715694.19649  19518206.4314   19518213.0254
  18617368.722   -20677869.83649 -16098394.86249  18617370.4204   18617376.5334
  23025667.000    -6541477.53449  -5079267.22849  23025665.8144   23025672.5834
 95  2  4 18 34 29.9940000  0  7 29 18 19 25 22 14  4
  19427216.539   -24052087.54149 -18726628.07049  19427219.8204   19427224.8554
  21155016.710   -16887366.05449 -13135030.30349  21155018.8674   21155025.8854
  22117581.559    -7333697.55849  -5692103.24349  22117587.2424   22117596.4164
  22591204.557    10075880.08849   7851846.57649  22591208.0324   22591214.3394
  19513475.421   -25352681.21649 -19735056.71349  19513477.8184   19513484.6234
  18615563.851   -20687348.71149 -16105781.02149  18615566.6634   18615572.8214
  23016766.858    -6588138.52349  -5115626.51149  23016785.3394   23016792.4934
 95  2  4 18 34 59.9940000  0  7 29 18 19 25 22 14  4
  19413801.541   -24122582.42649 -18781559.14149  19413805.0594   19413810.0714
  21134278.761   -16996350.73149 -13219953.38449  21134279.4984   21134286.3664
  22095305.270    -7450767.56449  -5783326.56449  22095309.5424   22095318.9194
  22602326.548    10134327.95749   7897390.31949  22602330.7104   22602337.6194
  19508869.024   -25376891.12449 -19753921.57449  19508870.9534   19508877.6364
  18613864.046   -20696281.58049 -16112741.71949  18613866.7934   18613872.9884
  23007996.006    -6634296.53149  -5151593.82849  23008000.9814   23008009.4584
 95  2  4 18 35 29.9940000  0  7 29 18 19 25 22 14  4
  19400420.304   -24192907.01949 -18836357.51449  19400422.6924   19400427.9684
  21113553.126   -17105260.79149 -13304818.32349  21113554.7154   21113561.4404
  22073065.221    -7567663.67149  -5874414.37949  22073064.6224   22073074.3464
  22613442.380    10192748.47849   7942912.76449  22613446.7724   22613454.2884
  19504377.084   -25400495.03649 -19772314.22949  19504379.0604   19504385.8924
  18612264.968   -20704683.68049 -16119288.83349  18612268.0484   18612274.1994
  22999304.056    -6679963.72649  -5187178.67749  22999311.8084   22999318.5174
 95  2  4 18 35 59.9940000  0  7 29 18 19 25 22 14  4
  19387067.004   -24263069.27949 -18891029.39649  19387071.1824   19387076.5624
  21092841.349   -17214108.93349 -13389635.01249  21092841.7934   21092848.6104
  22050847.676    -7684394.48149  -5965373.39949  22050851.4054   22050861.3594
  22624556.364    10251144.79949   7988416.36849  22624560.1584   22624567.0334
  19499999.318   -25423500.60449 -19790240.64649  19500001.4144   19500008.2644
  18610769.632   -20712543.85949 -16125413.66949  18610772.2794   18610778.5754
  22990715.009    -6725129.75249  -5222373.06149  22990717.7524   22990723.6574
 95  2  4 18 36 29.9940000  0  7 29 18 19 25 22 14  4
  19373755.530   -24333031.98449 -18945545.78249  19373757.7944   19373762.9694
  21072144.268   -17322864.99549 -13474379.95449  21072145.9914   21072152.8694
  22028668.541    -7800926.04649  -6056177.16049  22028675.5454   22028685.7084
  22635672.308    10309562.88249   8033936.90249  22635676.6644   22635683.7954
  19495738.634   -25445889.07649 -19807686.20349  19495740.8084   19495747.6144
  18609387.779   -20719808.62049 -16131074.54749  18609389.7534   18609395.9654
  22982221.981    -6769756.98749  -5257147.59449  22982223.2744   22982232.0734
 95  2  4 18 36 59.9940000  0  7 29 18 19 25 22 14  4
  19360471.582   -24402834.92449 -18999937.67549  19360474.8694   19360480.0384
  21051454.890   -17431582.53249 -13559094.86949  21051457.7084   21051464.5514
  22006530.956    -7917295.62349  -6146854.70749  22006532.0464   22006541.3634
  22646785.577    10367969.26149   8079448.34249  22646791.3434   22646798.3934
  19491589.833   -25467697.97549 -19824680.14649  19491590.7514   19491597.7854
  18608109.542   -20726523.28349 -16136306.77549  18608112.1254   18608118.4394
  22973823.900    -6813887.00649  -5291534.67149  22973826.4024   22973834.4764
 95  2  4 18 37 29.9940000  0  7 29 18 19 25 22 14  4
  19347222.636   -24472455.17949 -19054187.21649  19347226.5564   19347231.8264
  21030781.425   -17540219.49849 -13643747.01149  21030784.5394   21030791.6974
  21984425.404    -8033460.71149  -6237372.90149  21984426.7014   21984435.9774
  22657906.812    10426413.45949   8124989.22649  22657912.1724   22657919.3964
  19487555.761   -25488885.02549 -19841189.53249  19487559.0994   19487566.0524
  18606943.970   -20732650.97349 -16141081.62549  18606946.1354   18606952.4494
  22965538.506    -6857471.36849  -5325496.53349  22965533.6654   22965540.7584
 95  2  4 18 37 59.9940000  0  7 29 18 19 25 22 14  4
  19334013.534   -24541869.59749 -19108276.36349  19334017.3224   19334022.6164
  21010133.895   -17648735.44049 -13728304.85349  21010134.8404   21010141.4154
  21962361.994    -8149380.68349  -6327700.10449  21962367.2334   21962376.2264
  22669042.865    10484931.47949   8170587.63949  22669048.3574   22669055.7984
  19483652.814   -25509404.45749 -19857178.69849  19483654.5854   19483661.1284
  18605896.268   -20738150.23449 -16145366.78749  18605899.4924   18605905.8584
  22957355.400    -6900469.63349  -5359001.71249  22957350.1514   22957358.0574
 95  2  4 18 38 29.9940000  0  7 29 18 19 25 22 14  4
  19320822.953   -24611189.20449 -19162291.62749  19320826.3824   19320831.5804
  20989484.574   -17757254.27149 -13812864.94149  20989484.6304   20989491.2144
  21940329.165    -8265158.09649  -6417916.20349  21940335.5054   21940344.9814
  22680175.506    10543417.99549   8216161.54649  22680178.2614   22680185.6484
  19479853.265   -25529370.25849 -19872736.46249  19479854.9924   19479861.6964
  18604946.721   -20743140.85949 -16149255.60549  18604950.0474   18604956.4164
  22949251.971    -6943007.16449  -5392147.88449  22949256.8324   22949263.4964
 95  2  4 18 38 59.9940000  0  7 29 18 19 25 22 14  4
  19307661.385   -24680356.47949 -19216188.19649  19307664.2414   19307669.4664
  20968839.212   -17865731.21449 -13897392.38649  20968842.0064   20968849.1324
  21918339.405    -8380730.29049  -6507972.41149  21918342.1074   21918351.8974
  22691310.394    10601926.86549   8261752.78649  22691311.9724   22691318.6274
  19476170.544   -25548725.58749 -19887818.53049  19476172.0864   19476178.6814
  18604104.099   -20747575.55449 -16152711.23249  18604106.2254   18604112.5254
  22941266.527    -6985031.68149  -5424894.31349  22941259.0374   22941267.4474
 95  2  4 18 39 29.9940000  0  7 29 18 19 25 22 14  4
  19294546.777   -24749277.44449 -19269892.83249  19294549.0344   19294554.3784
  20948221.126   -17974070.91449 -13981812.89049  20948225.2534   20948232.5764
  21896406.969    -8496004.78849  -6597796.64849  21896406.9794   21896416.7364
  22702455.533    10660531.49749   8307418.69849  22702464.1474   22702472.6444
  19472618.828   -25567393.66749 -19902365.08549  19472619.5784   19472626.3314
  18603384.360   -20751347.10249 -16155650.12349  18603388.3984   18603394.9754
  22933369.394    -7026466.22349  -5457181.00649  22933375.2444   22933381.6814
 95  2  4 18 39 59.9940000  0  7 29 18 19 25 22 14  4
  19281455.920   -24818061.45549 -19323490.74949  19281459.9774   19281465.1654
  20927605.907   -18082411.93549 -14066234.42449  20927608.8154   20927616.0304
  21874496.500    -8611119.17749  -6687496.13049  21874501.2044   21874510.6754
  22713602.746    10719099.02449   8353055.68149  22713607.6094   22713617.8224
  19469172.473   -25585506.15449 -19916478.70649  19469173.0124   19469179.9184
  18602773.130   -20754570.02549 -16158161.51349  18602775.1224   18602781.8054
  22925568.604    -7067464.16949  -5489127.50449  22925573.1074   22925579.1944
 95  2  4 18 40 29.9940000  0  7 29 18 19 25 22 14  4
  19268402.879   -24886662.40749 -19376946.02549  19268405.7174   19268410.9014
  20907001.269   -18190701.53049 -14150615.88749  20907002.0174   20907009.1714
  21852633.050    -8726030.69149  -6777037.52449  21852634.4314   21852643.6914
  22724748.119    10777656.88649   8398685.09549  22724751.7794   22724759.1634
  19465837.663   -25603024.85849 -19930129.63949  19465839.1294   19465846.1534
  18602269.770   -20757204.70849 -16160214.53549  18602273.9594   18602280.5334
  22917854.139    -7107995.50349  -5520710.42149  22917861.5594   22917867.8204
 95  2  4 18 40 59.9940000  0  7 29 18 19 25 22 14  4
  19255399.358   -24954989.99549 -19430188.28849  19255403.3224   19255408.4364
  20886425.299   -18298822.46449 -14234865.92349  20886427.2744   20886434.2094
  21830820.703    -8840652.33849  -6866353.04649  21830822.8364   21830831.6814
  22735906.314    10836280.92249   8444366.10349  22735907.6734   22735916.2474
  19462635.562   -25619847.61349 -19943238.27849  19462637.9974   19462644.7004
  18601900.414   -20759153.01749 -16161732.71849  18601902.9604   18601909.5674
  22910250.855    -7147966.81549  -5551856.93349  22910254.8174   22910260.9704
 95  2  4 18 41 29.9940000  0  7 29 18 19 25 22 14  4
  19242423.786   -25023182.65849 -19483325.41649  19242426.7364   19242431.9384
  20865856.688   -18406904.43849 -14319085.60949  20865859.8374   20865867.2214
  21809035.371    -8955121.26349  -6955549.56449  21809039.8164   21809049.0404
  22747051.356    10894821.89449   8489982.43649  22747046.8774   22747057.1634
  19459543.891   -25636099.69949 -19955902.24549  19459545.3224   19459552.1874
  18601632.337   -20760559.49049 -16162828.69749  18601635.4204   18601641.9454
  22902716.607    -7187533.68349  -5582688.31349  22902726.0634   22902732.1494
 95  2  4 18 41 59.9940000  0  7 29 18 19 25 22 14  4
  19229480.654   -25091193.95149 -19536321.21449  19229484.5754   19229489.8424
  20845310.135   -18514895.43649 -14403234.40249  20845309.8304   20845317.0164
  21787291.603    -9069398.88649  -7044597.01249  21787293.0594   21787302.9234
  22758187.491    10953328.51849   8535571.84449  22758181.4874   22758189.9334
  19456570.685   -25651721.03049 -19968074.71249  19456572.8004   19456579.5874
  18601473.936   -20761400.04549 -16163483.69849  18601475.6104   18601482.0174
  22895282.158    -7226634.89349  -5613156.84249  22895285.0244   22895290.5604
 95  2  4 18 42 29.9940000  0  7 29 18 19 25 22 14  4
  19216578.071   -25159004.92349 -19589160.91849  19216580.6254   19216585.7144
  20824783.300   -18622757.11549 -14487282.42149  20824784.8094   20824791.5534
  21765584.626    -9183450.69049  -7133468.51249  21765589.9814   21765599.6214
  22769308.770    11011810.17849   8581141.89349  22769310.5414   22769319.8834
  19453720.608   -25666693.32449 -19979741.43749  19453723.4894   19453730.4954
  18601421.918   -20761670.22949 -16163694.25049  18601423.9954   18601430.5804
  22887938.252    -7265221.98849  -5643224.77049  22887942.5624   22887950.0534
 95  2  4 18 42 59.9940000  0  7 29 18 19 25 22 14  4
  19203708.800   -25226629.34549 -19641855.25849  19203711.9224   19203717.2844
  20804274.555   -18730516.18149 -14571250.48549  20804278.7374   20804285.3494
  21743924.545    -9297304.02649  -7222185.34949  21743924.4404   21743933.8524
  22780432.624    11070267.33249   8626692.85049  22780432.0614   22780443.2924
  19450994.017   -25681028.59549 -19990911.78449  19450995.8864   19451002.7034
  18601474.830   -20761388.15149 -16163474.46849  18601477.7884   18601484.4744
  22880693.589    -7303304.68149  -5672899.63949  22880696.0274   22880702.3974
 95  2  4 18 43 29.9940000  0  7 29 18 19 25 22 14  4
  19190872.752   -25294076.65549 -19694411.58949  19190876.9924   19190882.4814
  20783786.405   -18838200.69549 -14655160.45549  20783786.8254   20783793.8084
  21722291.333    -9410974.54849  -7310759.74549  21722293.8414   21722303.2964
  22791556.487    11128700.69849   8672225.23549  22791553.9444   22791561.7984
  19448382.754   -25694755.27649 -20001607.90749  19448383.7054   19448390.6004
  18601630.639   -20760563.47349 -16162831.88849  18601634.6064   18601641.2914
  22873539.481    -7340899.51849  -5702194.37749  22873542.0214   22873548.4904
 95  2  4 18 43 59.9940000  0  7 29 18 19 25 22 14  4
  19178074.513   -25361336.17049 -19746821.58549  19178078.0624   19178083.6134
  20763308.992   -18945797.12349 -14739001.77949  20763311.9154   20763318.7844
  21700695.317    -9524450.54849  -7399182.55549  21700699.7804   21700709.1584
  22802669.865    11187133.32349   8717757.10849  22802673.1274   22802681.4784
  19445887.046   -25707869.00449 -20011826.40149  19445888.0954   19445895.1014
  18601897.031   -20759169.60049 -16161745.77649  18601900.1344   18601906.7234
  22866471.466    -7377973.77049  -5731083.43849  22866486.1664   22866492.8204
 95  2  4 18 44 29.9940000  0  7 29 18 19 25 22 14  4
  19165310.164   -25428412.29649 -19799088.68649  19165314.0094   19165319.4894
  20742848.827   -19053318.57849 -14822784.69649  20742851.5004   20742858.2134
  21679147.911    -9637719.01349  -7487443.64549  21679145.9064   21679155.3284
  22813791.481    11245575.66649   8763296.55349  22813794.8484   22813803.0584
  19443505.705   -25720380.17049 -20021575.37449  19443507.5304   19443514.4324
  18602272.729   -20757190.06049 -16160203.30549  18602276.8874   18602283.3414
  22859515.856    -7414551.36049  -5759585.49949  22859526.3024   22859532.9294
 95  2  4 18 44 59.9940000  0  6 29 18 19 22 14  4
  19152591.040   -25495253.32149 -19851172.58849  19152594.5784   19152600.0594
  20722411.404   -19160724.25549 -14906477.38849  20722413.0724   20722419.7554
  21657638.180    -9750721.07549  -7575497.14149  21657642.0604   21657651.8494
  19441250.137   -25732230.09949 -20030809.09349  19441252.5444   19441259.3824
  18602774.941   -20754559.80549 -16158153.77249  18602777.3454   18602784.0264
  22852666.663    -7450587.78349  -5787665.87049  22852667.5354   22852674.3974
 95  2  4 18 45 29.9940000  0  6 29 18 19 22 14  4
  19139902.761   -25561932.94949 -19903130.73449  19139905.8854   19139911.2934
  20701980.222   -19268088.29249 -14990137.63149  20701981.8614   20701988.8594
  21636173.831    -9863523.16049  -7663394.81349  21636175.9284   21636185.6694
  19439106.075   -25743498.84449 -20039589.94849  19439108.2404   19439115.0964
  18603381.974   -20751370.75349 -16155668.82349  18603384.0654   18603390.9564
  22845890.835    -7486167.23349  -5815390.16149  22845897.8284   22845905.0924
 95  2  4 18 45 59.9940000  0  6 29 18 19 22 14  4
  19127250.741   -25628417.54549 -19954936.90549  19127254.0844   19127259.6424
  20681565.195   -19375368.38249 -15073732.45849  20681567.2634   20681573.8594
  21614748.803    -9976086.89749  -7751106.76549  21614755.9974   21614764.9534
  19437079.014   -25754142.18349 -20047883.47249  19437082.5734   19437089.6894
  18604098.171   -20747609.12249 -16152737.70749  18604099.9724   18604106.6114
  22839225.522    -7521247.22649  -5842725.25849  22839222.0114   22839229.3154
 95  2  4 18 46 29.9940000  0  6 29 18 19 22 14  4
  19114637.005   -25694702.34249 -20006587.39149  19114640.6264   19114646.0894
  20661167.446   -19482555.57849 -15157254.89849  20661170.0994   20661176.6614
  21593376.626   -10088417.60449  -7838637.12149  21593380.6764   21593389.8854
  19435173.645   -25764157.57349 -20055687.68849  19435176.8394   19435183.7034
  18604918.994   -20743288.99349 -16149371.39949  18604922.2454   18604928.8204
  22832633.217    -7555828.86649  -5869672.04649  22832641.1664   22832648.2374
 95  2  4 18 46 59.9940000  0  6 29 18 19 22 14  4
  19102062.648   -25760787.52349 -20058082.33249  19102064.9514   19102070.3594
  20640792.210   -19589636.63749 -15240694.63849  20640793.2834   20640799.8374
  21572039.307   -10200536.15249  -7926002.15449  21572045.0704   21572054.2224
  19433388.942   -25773546.18449 -20063003.49949  19433390.1814   19433397.1114
  18605843.110   -20738434.80549 -16145588.94249  18605846.0624   18605852.6184
  22826156.377    -7589898.45849  -5896219.83249  22826158.8254   22826165.5504
 95  2  4 18 47 29.9930000  0  6 29 18 19 22 14  4
  19089528.144   -25826653.45249 -20109406.42649  19089531.2144   19089536.5184
  20620439.220   -19696593.17049 -15324037.34249  20620440.1524   20620446.8484
  21550742.092   -10312445.86749  -8013204.47149  21550749.1254   21550758.2404
  19431721.782   -25782305.36349 -20069828.83949  19431723.4464   19431730.3144
  18606871.793   -20733031.55049 -16141378.63949  18606874.0894   18606880.7544
  22819777.953    -7623436.58949  -5922353.51049  22819776.9504   22819782.9394
 95  2  4 18 47 59.9930000  0  6 29 18 19 22 14  4
  19077034.082   -25892311.15149 -20160568.26949  19077037.0344   19077042.2154
  20600104.980   -19803440.63249 -15407295.06249  20600107.5024   20600114.0754
  21529488.978   -10424161.75349  -8100255.74949  21529490.7534   21529499.5044
  19430168.819   -25790452.50349 -20076177.27349  19430173.0034   19430180.0504
  18608004.714   -20727076.14249 -16136738.09149  18608007.4934   18608014.1834
  22813498.904    -7656437.23749  -5948068.36749  22813496.6214   22813503.9124
 95  2  4 18 48 29.9930000  0  6 29 18 19 22 14  4
  19064583.959   -25957735.73249 -20211548.46049  19064587.3774   19064592.5254
  20579796.739   -19910162.76949 -15490455.12549  20579798.9694   20579805.3404
  21508266.392   -10535669.59949  -8187144.90649  21508270.9164   21508280.1584
  19428739.253   -25797976.37849 -20082040.04149  19428741.3614   19428748.0614
  18609247.158   -20720547.72849 -16131651.04549  18609249.8394   18609256.4454
  22807305.977    -7688888.06049  -5973354.77749  22807320.5014   22807328.8934
 95  2  4 18 48 59.9930000  0  6 29 18 19 22 14  4
  19052175.432   -26022939.99549 -20262356.97549  19052179.2874   19052184.4054
  20559507.057   -20016779.27349 -15573532.87549  20559510.9694   20559517.3634
  21487088.182   -10646974.94449  -8273876.26249  21487090.3064   21487099.6084
  19427423.517   -25804890.37649 -20087427.57649  19427425.6054   19427432.2614
  18610598.045   -20713443.65349 -16126115.43349  18610601.5354   18610608.2644
  22801240.645    -7720807.74549  -5998227.31249  22801247.7024   22801254.2354
 95  2  4 18 49 29.9930000  0  6 29 18 19 22 14  4
  19039809.420   -26087924.33849 -20312994.11849  19039812.9494   19039817.9804
  20539239.003   -20123295.01449 -15656532.11649  20539241.5504   20539247.8524
  21465950.147   -10758052.85149  -8360430.39549  21465952.8984   21465961.7694
  19426223.169   -25811199.72949 -20092343.95149  19426225.0784   19426231.6884
  18612062.740   -20705751.49149 -16120121.57049  18612065.5024   18612072.0254
  22795270.842    -7752213.24549  -6022699.19349  22795271.7294   22795277.5004
 95  2  4 18 49 59.9930000  0  6 29 18 19 22 14  4
  19027484.068   -26152700.13049 -20363468.75949  19027486.8144   19027491.9604
  20518989.678   -20229706.73549 -15739450.30249  20518991.7104   20518997.8484
  21444856.189   -10868892.73749  -8446799.06149  21444860.7654   21444869.8314
  19425138.497   -25816901.06449 -20096786.55549  19425140.1574   19425147.0024
  18613634.967   -20697488.81649 -16113683.15449  18613637.6814   18613644.4164
  22789393.583    -7783123.85849  -6046785.44049  22789388.2674   22789396.5954
 95  2  4 18 50 29.9930000  0  6 29 18 19 22 14  4
  19015195.334   -26217278.40749 -20413789.48649  19015197.8204   19015203.0794
  20498758.897   -20336021.09749 -15822292.62049  20498760.8054   20498767.5034
  21423809.222   -10979501.65449  -8532987.73949  21423812.5264   21423821.7634
  19424168.018   -25821998.30349 -20100758.42649  19424170.1854   19424177.0834
  18615317.106   -20688647.37749 -16106793.75149  18615320.3564   18615327.1794
  22783593.284    -7813576.59549  -6070514.91249  22783595.2944   22783602.2524
 95  2  4 18 50 59.9930000  0  6 29 18 19 22 14  4
  19002952.259   -26281614.55349 -20463921.53649  19002954.9514   19002960.1474
  20478556.018   -20442188.34549 -15905020.30849  20478557.7954   20478564.6464
  21402821.262   -11089813.64549  -8618945.04849  21402820.2124   21402830.0414
  19423321.548   -25826446.14949 -20104224.26949  19423324.0404   19423330.6504
  18617123.078   -20679155.98449 -16099397.89049  18617126.3344   18617133.3514
  22777896.298    -7843531.95949  -6093856.78749  22777894.2744   22777901.3024
 95  2  4 18 51 29.9930000  0  6 29 18 19 22 14  4
  18990765.757   -26345651.70749 -20513820.60749  18990769.0244   18990774.2914
  20458392.021   -20548145.92749 -15987584.61749  20458394.6804   20458401.2874
  21381894.625   -11199770.54949  -8704625.67849  21381896.3174   21381905.5204
  19422608.329   -25830192.47049 -20107143.47049  19422610.9224   19422617.7514
  18619060.137   -20668975.29649 -16091464.91849  18619063.6434   18619070.4994
  22772290.197    -7872936.92449  -6116769.79649  22772298.8304   22772306.0684
 95  2  4 18 51 59.9930000  0  6 29 18 19 22 14  4
  18978616.580   -26409494.02949 -20563567.86149  18978620.3714   18978625.5094
  20438246.216   -20654005.97149 -16070072.92549  20438250.3114   20438256.8504
  21361014.457   -11309504.34349  -8790132.44149  21361014.7174   21361023.9244
  19422010.017   -25833340.35749 -20109596.35249  19422012.1334   19422018.4424
  18621107.084   -20658219.73849 -16083083.99249  18621110.4034   18621117.1774
  22766788.709    -7901889.26649  -6139330.10549  22766788.6564   22766795.9054
 95  2  4 18 52 29.9930000  0  6 29 18 19 22 14  4
  18966528.859   -26473021.35649 -20613069.67449  18966531.3674   18966536.4544
  20418142.863   -20759648.23349 -16152391.53849  20418147.0174   20418153.3324
  21340194.782   -11418905.76349  -8875380.22349  21340196.3214   21340205.9234
  19421546.163   -25835784.15849 -20111500.59949  19421546.8154   19421553.2544
  18623287.121   -20646767.93449 -16074160.54549  18623289.6014   18623296.2624
  22761385.009    -7930270.07849  -6161445.08049  22761387.8334   22761396.2624
 95  2  4 18 52 59.9930000  0  6 29 18 19 22 14  4
  18954471.516   -26536381.95649 -20662441.57149  18954474.1594   18954478.4724
  20398055.296   -20865216.63849 -16234652.61149  20398057.8944   20398063.4964
  21319412.127   -11528126.22249  -8960486.99949  21319411.5484   21319420.4434
  19421187.368   -25837668.12549 -20112968.61949  19421188.1354   19421193.9014
  18625564.831   -20634798.41149 -16064833.68549  18625567.4954   18625573.2454
  22756078.193    -7958193.09249  -6183203.33749  22756074.1964   22756081.1934
 95  2  4 18 53 29.9930000  0  6 29 18 19 22 14  4
  18942464.919   -26599482.45749 -20711610.78449  18942466.6864   18942471.1034
  20377999.466   -20970618.70849 -16316784.06049  20378000.7154   20378006.5694
  21298674.069   -11637087.91149  -9045392.12849  21298677.0924   21298685.8424
  19420951.283   -25838900.94849 -20113929.24349  19420953.8834   19420959.5784
  18627952.610   -20622248.98449 -16055054.93749  18627955.7734   18627961.7024
  22750865.154    -7985556.95749  -6204525.88449  22750868.4494   22750874.1784
 95  2  4 18 53 59.9930000  0  6 29 18 19 22 14  4
  18930491.893   -26662396.40149 -20760634.63549  18930494.6114   18930498.6074
  20357956.623   -21075945.79549 -16398857.08749  20357957.7024   20357963.3274
  21277972.323   -11745873.66449  -9130160.17049  21277975.8964   21277984.4094
  19420825.422   -25839565.43149 -20114447.01249  19420827.1614   19420832.7754
  18630440.053   -20609184.28849 -16044874.69149  18630441.7064   18630447.3904
  22745754.178    -8012440.66549  -6225474.30749  22745750.8094   22745759.0344
 95  2  4 18 54 29.9930000  0  6 29 18 19 22 14  4
  18918562.333   -26725085.59849 -20809483.34349  18918565.3574   18918569.6704
  20337934.015   -21181157.41349 -16480840.11249  20337936.5524   20337942.6404
  21257316.676   -11854432.81049  -9214751.62249  21257317.5534   21257326.2734
  19420814.066   -25839629.83249 -20114497.16749  19420814.9654   19420821.1514
  18633029.854   -20595569.54249 -16034265.81549  18633032.4114   18633038.7124
  22740729.308    -8038810.59349  -6246022.34849  22740733.7304   22740741.1224
 95  2  4 18 54 59.9930000  0  6 29 18 19 22 14  4
  18906678.267   -26787537.56949 -20858147.21649  18906681.2024   18906685.3924
  20317936.789   -21286245.05549 -16562726.55549  20317938.9064   20317944.8654
  21236702.286   -11962747.12549  -9299152.30849  21236706.1594   21236714.3504
  19420919.814   -25839070.84649 -20114061.58249  19420921.1514   19420927.3494
  18635727.017   -20581400.29049 -16023224.87349  18635728.9834   18635734.8774
  22735808.811    -8064659.40549  -6266164.31049  22735815.1024   22735821.1274
 95  2  4 18 55 29.9930000  0  6 29 18 19 22 14  4
  18894843.823   -26849730.05649 -20906608.89449  18894846.2334   18894850.1494
  20297965.902   -21391201.11549 -16644510.46449  20297966.3414   20297971.8114
  21216139.943   -12070814.37349  -9383360.47949  21216141.7314   21216149.6654
  19421142.373   -25837896.27249 -20113146.32349  19421144.6934   19421150.4384
  18638531.749   -20566653.90549 -16011734.21149  18638535.0074   18638540.7744
  22730984.162    -8090017.01449  -6285923.54449  22730989.0274   22730997.1694
 95  2  4 18 55 59.9930000  0  6 29 18 19 22 14  4
  18883058.615   -26911654.82549 -20954861.93549  18883062.1854   18883066.8154
  20278018.953   -21496015.88549 -16726184.25249  20278020.7534   20278026.6114
  21195622.625   -12178635.16649  -9467376.58449  21195624.1964   21195632.3824
  19421483.142   -25836105.42349 -20111750.82749  19421485.4084   19421491.7434
  18641449.509   -20551323.63549 -15999788.54849  18641452.3474   18641458.5834
  22726255.208    -8114879.24749  -6305296.75149  22726256.1414   22726265.0294
 95  2  4 18 56 29.9930000  0  6 29 18 19 22 14  4
  18871320.417   -26973344.76849 -21002932.01349  18871322.7934   18871327.3044
  20258098.668   -21600696.36149 -16807753.41649  20258100.5434   20258106.3864
  21175143.505   -12286235.30549  -9551220.77849  21175148.4464   21175156.4104
  19421938.317   -25833718.72849 -20109891.06049  19421939.7444   19421945.8154
  18644470.017   -20535449.32749 -15987418.98649  18644473.1174   18644479.0494
  22721622.150    -8139257.49949  -6324292.86649  22721618.3584   22721626.3814
 95  2  4 18 56 59.9930000  0  6 29 18 19 22 14  4
  18859627.305   -27034787.26549 -21050809.27749  18859630.6664   18859635.1974
  20238206.223   -21705226.03149 -16889205.06749  20238209.3554   20238215.3104
  21154713.522   -12393601.54549  -9634882.70549  21154717.3854   21154725.1164
  19422506.025   -25830729.05049 -20107561.44049  19422508.4834   19422514.5714
  18647597.357   -20519011.99649 -15974610.70449  18647600.8824   18647606.9394
  22717076.148    -8163133.04449  -6342897.26849  22717076.7654   22717083.3984
 95  2  4 18 57 29.9930000  0  6 29 18 19 22 14  4
  18847978.245   -27096001.59049 -21098508.73849  18847981.7844   18847985.9734
  20218340.916   -21809634.57049 -16970562.32649  20218340.8744   20218346.6394
  21134323.576   -12500756.93749  -9718380.32549  21134325.9094   21134334.3274
  19423185.394   -25827163.82649 -20104783.34349  19423187.1574   19423192.7854
  18650829.704   -20502028.66249 -15961376.96349  18650832.7024   18650838.5974
  22712616.352    -8186512.39549  -6361114.99149  22712627.5274   22712633.8024
 95  2  4 18 57 59.9930000  0  6 29 18 19 22 14  4
  18836371.749   -27156998.50949 -21146038.78649  18836374.7204   18836379.4224
  20198494.699   -21913915.56049 -17051820.19249  20198496.8034   20198502.8084
  21113975.647   -12607687.47649  -9801702.73049  21113977.6724   21113986.3724
  19423978.019   -25823001.08149 -20101539.64049  19423979.1844   19423985.5934
  18654167.147   -20484494.25749 -15947713.80949  18654169.5604   18654175.7424
  22708274.450    -8209359.36749  -6378917.85149  22708279.3134   22708286.6664
 95  2  4 18 58 29.9930000  0  6 29 18 19 22 14  4
  18824806.442   -27217771.04349 -21193393.99749  18824810.1044   18824814.6664
  20178674.968   -22018062.58949 -17132973.68149  20178677.9644   20178683.9444
  21093676.060   -12714365.83349  -9884828.64149  21093677.4264   21093685.8054
  19424885.303   -25818229.48749 -20097821.51949  19424886.9594   19424893.2684
  18657613.430   -20466379.75549 -15933598.63849  18657616.6534   18657622.5864
  22704034.023    -8231673.71649  -6396305.67949  22704033.4964   22704040.6364
 95  2  4 18 58 59.9930000  0  6 29 18 19 22 14  4
  18813291.154   -27278287.43549 -21240549.61849  18813294.2974   18813298.9584
  20158883.708   -22122067.00849 -17214016.04749  20158886.9784   20158892.6254
  21073429.051   -12820771.27149  -9967741.89249  21073429.0384   21073437.6454
  19425912.923   -25812828.28949 -20093612.80149  19425915.0624   19425921.1814
  18661177.618   -20447652.49249 -15919005.99649  18661180.5194   18661186.5594
  22699885.503    -8253451.35549  -6413275.32349  22699888.4894   22699896.3594
 95  2  4 18 59 29.9930000  0  6 29 18 19 22 14  4
  18801829.426   -27338517.47849 -21287482.09849  18801832.7824   18801838.1054
  20139125.386   -22225897.76449 -17294923.08449  20139128.7644   20139134.9974
  21053234.845   -12926876.20649 -10050420.96549  21053237.9044   21053247.2624
  19427066.590   -25806772.19449 -20088893.76049  19427067.4294   19427074.3954
  18664863.657   -20428287.18849 -15903916.16649  18664865.6134   18664872.4214
  22695849.357    -8274678.20449  -6429815.76249  22695850.8894   22695856.8814
 95  2  4 18 59 59.9930000  0  6 29 18 19 22 14  4
  18790426.703   -27398442.04349 -21334176.55849  18790429.5314   18790434.3274
  20119406.726   -22329514.45949 -17375663.33349  20119410.5284   20119416.5034
  21033105.806   -13032660.33749 -10132850.08249  21033108.0334   21033116.2274
  19428344.330   -25800048.08749 -20083654.21249  19428347.0504   19428353.2964
  18668670.476   -20408272.77349 -15888320.55449  18668674.1604   18668680.3074
  22691924.232    -8295352.00849  -6445925.25449  22691915.6834   22691923.8964
 95  2  4 19  0 29.9930000  0  6 29 18 19 22 14  4
  18779079.207   -27458069.14749 -21380639.21649  18779082.8154   18779087.9084
  20099726.090   -22432937.33349 -17456252.53849  20099729.8524   20099736.1474
  21013032.751   -13138142.06049 -10215043.54449  21013035.2344   21013043.7444
  19429744.415   -25792683.22749 -20077915.35849  19429748.4294   19429755.0604
  18672597.744   -20387642.38749 -15872244.95149  18672600.0264   18672606.5134
  22688075.895    -8315514.45949  -6461636.29649  22688078.9934   22688087.5664
 95  2  4 19  0 59.9930000  0  6 29 18 19 22 14  4
  18767797.641   -27517355.15049 -21426836.08649  18767801.1194   18767806.5414
  20080090.778   -22536123.24449 -17536657.10249  20080094.4974   20080101.2944
  20993026.075   -13243293.25349 -10296979.45049  20993025.5094   20993034.5534
  19431275.712   -25784644.70749 -20071651.57649  19431278.2624   19431285.1264
  18676642.271   -20366386.35449 -15855681.83349  18676645.0014   18676651.9874
  22684344.598    -8335132.83149  -6476923.40149  22684344.9904   22684354.5544
 95  2  4 19  1 29.9930000  0  6 29 18 19 22 14  4
  18756575.107   -27576325.63749 -21472787.10649  18756579.4684   18756584.6824
  20060496.766   -22639092.98349 -17616893.22449  20060499.9904   20060506.7694
  20973072.259   -13348132.03049 -10378671.92149  20973075.5344   20973084.5594
  19432929.991   -25775953.49649 -20064879.20949  19432932.2144   19432938.8434
  18680798.915   -20344544.60749 -15838662.31849  18680801.3654   18680808.1314
  22680702.281    -8354239.81149  -6491812.03349  22680708.3304   22680718.3394
 95  2  4 19  1 59.9930000  0  6 29 18 19 22 14  4
  18745422.448   -27634943.98649 -21518463.73249  18745424.7744   18745430.2814
  20040950.230   -22741819.68349 -17696939.97249  20040951.7144   20040958.3594
  20953184.741   -13452632.69949 -10460100.93449  20953189.2914   20953198.8654
  19434715.229   -25766565.60049 -20057563.97549  19434718.3104   19434724.9914
  18685074.583   -20322080.52249 -15821157.86349  18685076.0684   18685082.9674
  22677157.127    -8372805.59849  -6506278.91449  22677176.7274   22677185.2204
 95  2  4 19  2 29.9930000  0  6 29 18 19 22 14  4
  18734318.989   -27693285.22749 -21563924.42449  18734322.7114   18734327.8894
  20021427.462   -22844404.56449 -17776876.21149  20021430.4314   20021436.7514
  20933351.427   -13556883.27449 -10541335.06349  20933351.6434   20933360.2254
  19436618.464   -25756568.82349 -20049774.28849  19436620.8144   19436627.1604
  18689452.976   -20299068.37649 -15803226.34349  18689455.1424   18689461.9004
  22673734.926    -8390905.96649  -6520383.13949  22673732.9754   22673740.1354
 95  2  4 19  2 59.9930000  0  6 29 18 19 22 14  4
  18723276.111   -27751322.46149 -21609148.22949  18723278.6614   18723283.8564
  20001940.950   -22946807.49349 -17856670.67049  20001943.8904   20001949.8824
  20913558.435   -13660859.31049 -10622355.26549  20913565.5134   20913573.9924
  19438642.215   -25745937.92449 -20041490.48449  19438643.8764   19438650.1324
  18693943.202   -20275467.34549 -15784835.95449  18693946.3794   18693953.0544
  22670378.194    -8408497.04249  -6534090.51849  22670385.0084   22670391.9054
 95  2  4 19  3 29.9930000  0  6 29 18 19 22 14  4
  18712280.457   -27809098.67349 -21654168.64349  18712284.1684   18712289.3534
  19982483.576   -23049065.95149 -17936352.55649  19982484.7714   19982490.8954
  20893819.549   -13764604.86749 -10703195.87849  20893823.3454   20893831.7864
  19440777.449   -25734710.80849 -20032742.10049  19440780.3884   19440786.9984
  18698543.153   -20251297.18549 -15766002.09149  18698545.7084   18698552.4414
  22667132.179    -8425599.17149  -6547416.90049  22667130.6354   22667139.2274
 95  2  4 19  3 59.9930000  0  6 29 18 19 22 14  4
  18701336.878   -27866613.54649 -21698985.42449  18701339.6734   18701344.6164
  19963051.298   -23151176.32749 -18015919.06249  19963053.7414   19963059.7504
  20874118.181   -13868132.30849 -10783866.54149  20874122.7614   20874130.4924
  19443024.218   -25722907.28549 -20023544.57149  19443026.8934   19443033.3934
  18703250.781   -20226552.17249 -15746720.29549  18703254.8134   18703261.4884
  22663973.947    -8442195.64349  -6560349.25449  22663974.6264   22663979.9304
 95  2  4 19  4 29.9930000  0  6 29 18 19 22 14  4
  18690444.314   -27923851.50749 -21743586.42449  18690447.6324   18690452.5494
  19943651.229   -23253123.39049 -18095358.30449  19943653.7654   19943659.9874
  20854464.559   -13971420.51149 -10864350.77249  20854467.5284   20854475.5444
  19445382.132   -25710523.31049 -20013894.73849  19445383.0554   19445389.7714
  18708070.469   -20201229.52749 -15726988.39149  18708073.5334   18708080.2264
  22660924.340    -8458258.54549  -6572865.88249  22660916.0864   22660925.9874
 95  2  4 19  4 59.9930000  0  6 29 18 19 22 14  4
  18679604.822   -27980816.72949 -21787974.89649  18679607.5384   18679612.4754
  19924285.406   -23354900.03749 -18174664.74649  19924286.3184   19924292.5484
  20834857.380   -14074453.20049 -10944635.89249  20834860.7134   20834869.0574
  19447850.682   -25697546.19849 -20003782.71249  19447852.6134   19447859.0894
  18712998.230   -20175332.36349 -15706808.80749  18713001.5654   18713008.1994
  22657957.451    -8473795.38749  -6584972.59949  22657959.0624   22657968.0454
 95  2  4 19  5 29.9930000  0  6 29 18 19 22 14  4
  18668816.165   -28037506.77549 -21832148.95249  18668819.7014   18668824.8024
  19904945.308   -23456520.01649 -18253849.11149  19904949.0354   19904955.4254
  20815302.292   -14177215.90649 -11024710.63149  20815305.3994   20815313.7144
  19450434.870   -25683971.56249 -19993205.09049  19450435.8744   19450442.3704
  18718035.431   -20148861.91449 -15686182.51349  18718038.7694   18718045.5984
  22655104.136    -8488826.00049  -6596684.81449  22655098.3094   22655107.6564
 95  2  4 19  5 59.9930000  0  6 29 18 19 22 14  4
  18658076.193   -28093945.28649 -21876127.00449  18658079.8344   18658084.9274
  19885634.389   -23558006.90949 -18332929.76849  19885636.5254   19885642.7504
  20795796.990   -14279708.73549 -11104575.07649  20795801.6664   20795809.9824
  19453129.027   -25669820.18149 -19982178.05449  19453128.8694   19453135.1374
  18723176.136   -20121848.38949 -15665133.04749  18723179.2894   18723186.1164
  22652313.580    -8503392.26849  -6608035.21449  22652324.9374   22652333.9104
 95  2  4 19  6 29.9930000  0  6 29 18 19 22 14  4
  18647397.482   -28150066.68849 -21919857.96349  18647400.3594   18647405.2974
  19866360.407   -23659289.33449 -18411851.10249  19866363.1374   19866369.4024
  20776361.504   -14381842.39849 -11184159.64749  20776365.8894   20776374.6164
  19455945.834   -25655004.72949 -19970633.56249  19455948.1604   19455954.4904
  18728431.474   -20094225.12349 -15643608.45649  18728435.9114   18728442.3904
  22649643.285    -8517438.32849  -6618980.26949  22649655.7444   22649664.9014
 95  2  4 19  6 59.9930000  0  6 29 18 19 22 14  4
  18636769.503   -28205913.31749 -21963374.81249  18636773.0394   18636777.9974
  19847124.676   -23760377.78149 -18490621.27949  19847126.6264   19847132.7804
  20756991.376   -14483643.01849 -11263484.70049  20756993.9604   20757002.7354
  19458887.157   -25639549.83649 -19958590.80449  19458889.1424   19458895.4484
  18733801.101   -20066018.64449 -15621629.40949  18733803.4624   18733810.1094
  22647066.149    -8531007.48949  -6629553.70049  22647073.5144   22647081.0304
 95  2  4 19  7 29.9930000  0  6 29 18 19 22 14  4
  18626195.562   -28261483.05649 -22006675.90749  18626198.4434   18626203.3564
  19827926.300   -23861258.20149 -18569229.36349  19827929.8184   19827935.8104
  20737678.431   -14585130.73049 -11342565.94649  20737681.3094   20737690.0604
  19461945.817   -25623470.36149 -19946061.35849  19461948.8364   19461955.2624
  18739276.225   -20037240.92849 -15599205.24949  18739279.4784   18739286.4694
  22644571.898    -8544098.60349  -6639754.66049  22644581.8354   22644589.6294
 95  2  4 19  7 59.9930000  0  6 29 18 19 22 14  4
  18615664.904   -28316824.55449 -22049799.15249  18615667.3434   18615672.3384
  19808762.360   -23961964.32149 -18647701.62649  19808765.8954   19808771.9324
  20718409.715   -14686380.93149 -11421462.10849  20718414.1914   20718422.9464
  19465113.740   -25606830.58949 -19933095.31049  19465115.4374   19465121.7984
  18744850.779   -20007956.36349 -15576386.14349  18744852.4694   18744859.0514
  22642168.631    -8556744.88349  -6649608.94349  22642174.9014   22642183.2934
 95  2  4 19  8 29.9930000  0  6 29 18 19 22 14  4
  18605197.147   -28371837.94849 -22092666.72049  18605198.6814   18605204.1074
  19789651.314   -24062404.75849 -18725966.85749  19789652.7804   19789659.3024
  20699201.433   -14787327.67049 -11500121.80649  20699204.4664   20699213.5284
  19468398.604   -25589556.24049 -19919634.77949  19468402.6794   19468409.4534
  18750532.165   -19978089.05649 -15553112.94249  18750536.0574   18750543.1254
  22639862.921    -8568848.92849  -6659040.71349  22639871.7454   22639880.7484
 95  2  4 19  8 59.9930000  0  6 29 18 19 22 14  4
  18594784.215   -28426546.03649 -22135296.40049  18594787.9654   18594793.2594
  19770578.623   -24162626.68949 -18804061.83649  19770581.1554   19770587.5574
  20680037.872   -14888030.49449 -11578591.45549  20680041.0504   20680050.0664
  19471798.507   -25571698.58749 -19905719.73849  19471800.8894   19471807.8124
  18756318.343   -19947688.97649 -15529424.60649  18756320.9394   18756327.9654
  22637661.732    -8580441.46749  -6668073.92549  22637665.6034   22637673.2044
 95  2  4 19  9 29.9930000  0  6 29 18 19 22 14  4
  18584435.631   -28480925.83449 -22177670.26649  18584439.7984   18584444.9584
  19751546.169   -24262643.38849 -18881996.88949  19751548.6184   19751554.9884
  20660915.235   -14988490.91749 -11656872.21449  20660924.3244   20660932.8624
  19475306.131   -25553265.41949 -19891356.23949  19475308.6414   19475315.2634
  18762204.848   -19916752.01149 -15505317.91949  18762207.8794   18762214.8484
  22635550.797    -8591514.06049  -6676702.01549  22635558.2424   22635568.1084
 95  2  4 19  9 59.9930000  0  6 29 18 19 22 14  4
  18574155.561   -28534952.71549 -22219769.12949  18574158.7794   18574163.9924
  19732552.146   -24362454.60149 -18959771.81649  19732554.8554   19732561.5374
  20641854.384   -15088683.11249 -11734943.96949  20641858.2844   20641866.9244
  19478926.216   -25534238.74949 -19876530.26649  19478929.3694   19478935.9554
  18768198.614   -19885251.82149 -15480772.34649  18768202.3294   18768209.0414
  22633559.426    -8602048.39349  -6684910.69849  22633554.1974   22633563.1084
 95  2  4 19 10 29.9930000  0  6 29 18 19 22 14  4
  18563944.124   -28588610.79049 -22261580.61549  18563947.9994   18563953.3264
  19713600.256   -24462059.99749 -19037386.37449  19713600.6634   19713607.2544
  20622848.328   -15188571.20649 -11812778.76749  20622850.1834   20622858.9784
  19482667.246   -25514587.88749 -19861217.91249  19482668.7584   19482675.7244
  18774305.377   -19853162.71549 -15455767.87849  18774308.8604   18774315.7134
  22631648.225    -8612037.91949  -6692694.76049  22631653.2614   22631660.2404
 95  2  4 19 10 59.9930000  0  6 29 18 19 22 14  4
  18553795.905   -28641950.92549 -22303144.35349  18553797.6224   18553802.6994
  19694676.854   -24561487.74849 -19114862.51049  19694680.1794   19694686.4694
  20603891.815   -15288183.42549 -11890398.60649  20603894.7854   20603903.1394
  19486519.075   -25494346.73249 -19845445.59149  19486520.5414   19486526.9304
  18780518.062   -19820511.86449 -15430325.69149  18780522.0194   18780528.6754
  22629849.965    -8621531.41749  -6700092.39049  22629846.3384   22629854.4674
 95  2  4 19 11 29.9930000  0  6 29 18 19 22 14  4
  18543693.766   -28695030.85649 -22344505.33249  18543696.8224   18543701.6844
  19675787.186   -24660759.00549 -19192216.69949  19675789.2694   19675795.4784
  20584985.313   -15387555.52349 -11967831.32849  20584984.5794   20584993.0094
  19490475.467   -25473561.28849 -19829249.15049  19490475.7344   19490482.0384
  18786832.792   -19787332.75449 -15404471.87049  18786835.8354   18786842.0634
  22628122.429    -8630579.64649  -6707143.03049  22628126.0964   22628134.1484
 95  2  4 19 11 59.9920000  0  6 29 18 19 22 14  4
  18533639.098   -28747868.63149 -22385677.61349  18533642.2654   18533647.2884
  19656924.429   -24759886.90949 -19269459.19249  19656926.2504   19656932.3734
  20566115.190   -15486690.92549 -12045079.61649  20566119.9074   20566128.1814
  19494531.213   -25452234.82349 -19812631.12849  19494534.1474   19494540.7174
  18793240.959   -19753651.14449 -15378226.48949  18793245.3224   18793251.7164
  22626488.644    -8639205.92549  -6713864.88749  22626483.9304   22626491.1944
 95  2  4 19 12 29.9920000  0  6 29 18 19 22 14  4
  18523630.722   -28800456.15049 -22426654.89049  18523635.1674   18523640.1134
  19638088.578   -24858855.22149 -19346577.32449  19638093.0544   19638099.0544
  20547302.319   -15585571.73849 -12122129.52749  20547303.5244   20547311.5084
  19498694.984   -25430353.36549 -19795580.64149  19498698.2414   19498704.5904
  18799749.409   -19719453.77549 -15351579.21849  18799752.9504   18799759.3834
  22624923.454    -8647403.74549  -6720252.83749  22624924.6344   22624931.6274
 95  2  4 19 12 59.9920000  0  6 29 18 19 22 14  4
  18513673.860   -28852789.93549 -22467434.45549  18513676.5314   18513681.3764
  19619289.417   -24957653.31249 -19423562.81949  19619292.4474   19619298.5524
  20528528.173   -15684211.08349 -12198991.28349  20528533.1834   20528541.0784
  19502962.618   -25407937.06749 -19778113.40049  19502963.9864   19502970.4914
  18806351.506   -19684759.90749 -15324545.06849  18806354.9584   18806361.3274
  22623440.569    -8655186.00149  -6726317.01949  22623442.6764   22623451.0454
 95  2  4 19 13 29.9920000  0  6 29 18 19 22 14  4
  18503764.250   -28904855.57949 -22508005.07149  18503768.6264   18503773.4214
  19600520.252   -25056285.37549 -19500418.94049  19600523.3294   19600529.4214
  20509804.806   -15782600.68449 -12275658.43549  20509809.9064   20509818.0424
  19507332.349   -25384966.82349 -19760214.51249  19507334.8074   19507341.3094
  18813051.092   -19649557.08049 -15297114.32749  18813053.8944   18813060.1434
  22622048.321    -8662531.28049  -6732040.67149  22622045.7974   22622053.5314
 95  2  4 19 13 59.9920000  0  6 29 18 19 22 14  4
  18493915.518   -28956614.94649 -22548337.03149  18493919.1644   18493923.7684
  19581784.887   -25154733.58449 -19577131.79749  19581789.0864   19581795.0334
  20491143.052   -15880709.15249 -12352106.52349  20491140.4584   20491148.3114
  19511814.855   -25361416.09449 -19741863.29749  19511816.4874   19511822.9054
  18819849.920   -19613818.55249 -15269266.15849  18819854.7384   18819860.8354
  22620729.264    -8669405.66949  -6737397.38949  22620737.3064   22620744.1424
 95  2  4 19 14 29.9920000  0  6 29 18 19 22 14  4
  18484125.554   -29008061.36349 -22588425.12649  18484129.1434   18484134.2274
  19563089.401   -25252980.02549 -19653687.42549  19563093.5834   19563099.8534
  20472516.205   -15978556.33249 -12428351.00049  20472520.9234   20472529.0844
  19516404.161   -25337301.43349 -19723072.64649  19516405.3944   19516411.9054
  18826752.271   -19577551.90549 -15241006.45949  18826756.1684   18826762.5444
  22619508.929    -8675802.45149  -6742381.93049  22619520.9194   22619526.5714
 95  2  4 19 14 59.9920000  0  6 29 18 19 22 14  4
  18474391.107   -29059216.34149 -22628286.13949  18474394.8294   18474399.8694
  19544434.029   -25351026.01649 -19730086.87549  19544436.2074   19544442.3854
  20453942.273   -16076167.74249 -12504411.77249  20453945.6964   20453954.0924
  19521097.257   -25312629.43649 -19703847.72349  19521100.1814   19521106.8034
  18833751.941   -19540775.22349 -15212349.34349  18833754.6344   18833761.1574
  22618390.603    -8681723.59849  -6746995.87849  22618393.0654   22618402.1134
 95  2  4 19 15 29.9920000  0  6 29 18 19 22 14  4
  18464710.386   -29110086.36949 -22667925.10849  18464714.5964   18464719.5084
  19525809.978   -25448883.64249 -19806339.54949  19525814.5634   19525820.5684
  20435411.060   -16173540.08149 -12580286.24849  20435416.5494   20435424.1734
  19525899.166   -25287399.51049 -19684188.04549  19525901.3054   19525907.5944
  18840847.084   -19503484.50849 -15183291.68049  18840850.7294   18840857.4414
  22617349.448    -8687171.14749  -6751240.77549  22617357.6074   22617364.4684
 95  2  4 19 15 59.9920000  0  6 29 18 19 22 14  4
  18455095.647   -29160614.35049 -22707297.54649  18455099.3894   18455104.5434
  19507233.186   -25546506.92149 -19882409.61149  19507237.3604   19507243.3964
  20416938.358   -16270627.41549 -12655938.64349  20416941.9444   20416949.7634
  19530811.912   -25261579.74549 -19664068.75349  19530814.4964   19530821.1334
  18848046.202   -19465653.29049 -15153812.84549  18848049.7164   18848056.4734
  22616406.191    -8692126.72949  -6755102.31149  22616413.7484   22616422.1124
 95  2  4 19 16 29.9920000  0  6 29 18 19 22 14  4
  18445541.098   -29210825.08049 -22746422.76949  18445544.5134   18445549.5144
  19488696.822   -25643922.03549 -19958317.46249  19488699.7324   19488705.7714
  20398514.121   -16367440.35749 -12731377.21749  20398518.3854   20398526.3014
  19535833.830   -25235184.10049 -19643500.72249  19535837.1964   19535843.7964
  18855345.382   -19427299.99749 -15123927.19149  18855348.2394   18855354.8484
  22615565.294    -8696622.47249  -6758605.53249  22615558.7344   22615567.2614
 95  2  4 19 16 59.9920000  0  5 29 18 19 22 14
  18436056.286   -29260668.29749 -22785261.62949  18436059.6964   18436064.3694
  19470206.567   -25741086.15749 -20034029.74549  19470209.8734   19470215.6434
  20380159.413   -16463896.09849 -12806537.46249  20380163.4694   20380171.0794
  19540979.881   -25208153.81749 -19622438.17049  19540981.0014   19540987.5254
  18862759.396   -19388344.58249 -15093572.35949  18862761.2614   18862767.6864
 95  2  4 19 17 29.9920000  0  5 29 18 19 22 14
  18426642.204   -29310137.89549 -22823809.35349  18426645.9064   18426650.7444
  19451761.414   -25838018.03649 -20109561.05249  19451764.5584   19451770.3724
  20361871.502   -16559995.39749 -12881419.95849  20361876.2334   20361884.3424
  19546238.795   -25180510.84149 -19600898.19649  19546241.2514   19546247.9374
  18870283.785   -19348798.10249 -15062756.94949  18870286.5844   18870293.2354
 95  2  4 19 17 59.9920000  0  5 29 18 19 22 14
  18417296.826   -29359252.24549 -22862080.26449  18417299.6724   18417304.5644
  19433360.993   -25934723.06549 -20184915.59849  19433362.0024   19433367.7764
  20343650.216   -16655752.35149 -12956035.68649  20343654.3054   20343662.2324
  19551610.522   -25152287.29149 -19578905.83149  19551612.0344   19551618.6554
  18877915.140   -19308693.31049 -15031506.49549  18877918.2914   18877925.0084
 95  2  4 19 18 29.9920000  0  5 29 18 19 22 14
  18408015.532   -29408023.48749 -22900083.81049  18408018.9184   18408023.7604
  19415002.670   -26031190.59549 -20260085.08049  19415004.9894   19415010.6994
  20325488.878   -16751173.35749 -13030389.63349  20325496.2524   20325504.1094
  19557089.318   -25123498.59149 -19556473.08449  19557090.9034   19557097.3124
  18885653.877   -19268027.87949 -14999819.17749  18885656.7654   18885663.6064
 95  2  4 19 18 59.9920000  0  5 29 18 19 22 14
  18398798.192   -29456461.51849 -22937827.71249  18398801.4984   18398806.5634
  19396689.698   -26127424.43349 -20335072.45249  19396692.0434   19396698.1264
  20307393.399   -16846293.47149 -13104509.12049  20307395.3324   20307403.2704
  19562668.175   -25094174.84749 -19533623.41249  19562670.6784   19562677.5194
  18893494.969   -19226829.55649 -14967716.61349  18893496.5714   18893503.6694
 95  2  4 19 19 29.9920000  0  5 29 18 19 22 14
  18389664.901   -29504461.62549 -22975230.38449  18389667.3394   18389672.3684
  19378442.383   -26223311.99749 -20409790.01149  19378445.4164   19378451.2914
  20289363.392   -16941030.66349 -13178330.22749  20289367.5014   20289375.4444
  19568371.761   -25064211.60149 -19510275.43749  19568372.5804   19568379.2804
  18901449.553   -19185018.43449 -14935136.55549  18901452.9414   18901460.0284
 95  2  4 19 19 59.9920000  0  5 29 18 19 22 14
  18380580.265   -29552197.43349 -23012427.10749  18380583.4924   18380588.6704
  19360232.911   -26319010.73149 -20484360.43149  19360234.4524   19360240.3114
  20271377.829   -17035559.24449 -13251988.77649  20271378.9864   20271387.2224
  19574163.397   -25033768.95149 -19486553.89649  19574165.8744   19574172.2924
  18909491.338   -19142759.69649 -14902207.70549  18909494.6244   18909501.6834
 95  2  4 19 20 29.9920000  0  5 29 18 19 22 14
  18371547.170   -29599670.09149 -23049418.78249  18371549.7584   18371555.1844
  19342055.939   -26414523.68149 -20558786.08249  19342058.9734   19342065.1944
  20253426.166   -17129890.16649 -13325493.31949  20253428.8564   20253436.7084
  19580050.465   -25002831.98849 -19462447.17749  19580053.1094   19580059.6954
  18917620.887   -19100036.33549 -14868916.81549  18917624.6554   18917631.8104
 95  2  4 19 20 59.9920000  0  5 29 18 19 22 14
  18362568.455   -29646854.23749 -23086185.63549  18362570.7494   18362576.0944
  19323918.016   -26509831.70349 -20633052.04549  19323922.3714   19323928.3934
  20235518.035   -17224000.54849 -13398826.00449  20235519.8614   20235528.2064
  19586039.823   -24971357.93149 -19437921.93849  19586042.0424   19586048.9444
  18925845.998   -19056818.20349 -14835240.37849  18925848.7364   18925855.6224
 95  2  4 19 21 29.9920000  0  5 29 18 19 22 14
  18353640.825   -29693760.85849 -23122736.24249  18353644.6844   18353649.9884
  19305819.976   -26604941.97349 -20707163.92149  19305823.3464   19305829.5164
  20217652.823   -17317887.15649 -13471984.32349  20217653.8304   20217661.9434
  19592130.370   -24939347.35049 -19412978.63949  19592133.6814   19592140.2604
  18934162.435   -19013111.08849 -14801182.91749  18934165.8514   18934172.8194
 95  2  4 19 21 59.9920000  0  5 29 18 19 22 14
  18344765.064   -29740404.62649 -23159082.02549  18344768.7984   18344773.9004
  19287756.764   -26699867.08749 -20781131.51649  19287759.7344   19287766.0084
  20199824.605   -17411551.35249 -13544969.34149  20199830.1994   20199837.9124
  19598320.038   -24906819.15949 -19387632.00249  19598323.5074   19598330.2714
  18942571.975   -18968924.29149 -14766751.68249  18942574.3364   18942581.3904
 95  2  4 19 22 29.9920000  0  5 29 18 19 22 14
  18335942.169   -29786768.07849 -23195209.38049  18335946.1024   18335951.2074
  19269729.155   -26794608.21549 -20854955.74349  19269730.8774   19269737.2634
  20182045.754   -17504983.24749 -13617773.34349  20182050.6104   20182058.7634
  19604611.727   -24873773.77549 -19361882.35949  19604611.7134   19604618.4344
  18951072.253   -18924252.37049 -14731942.43049  18951075.2084   18951082.2324
 95  2  4 19 22 59.9920000  0  6 28 29 18 19 22 14
  22545719.277      -82248.31519
  18327179.317   -29832824.30649 -23231097.33949  18327181.9164   18327187.0224
  19251739.649   -26889146.20749 -20928621.68549  19251740.9914   19251747.3094
  20164316.661   -17598158.76749 -13690377.57649  20164319.4964   20164327.7634
  19610997.589   -24840205.11149 -19335724.96149  19610999.6984   19611006.6024
  18959663.639   -18879099.94849 -14696758.76249  18959667.2714   18959674.4954
 95  2  4 19 23 29.9920000  0  6 28 29 18 19 22 14
  22526627.364    22526635.428                                    22526648.1854
  18318475.745   -29878560.05649 -23266735.58049  18318478.9094   18318483.8344
  19233789.371   -26983472.64149 -21002122.77749  19233791.1564   19233797.4804
  20146639.108   -17691062.43549 -13762769.97949  20146640.7434   20146648.8064
  19617483.739   -24806116.72949 -19309162.58849  19617486.4404   19617493.0434
  18968347.615   -18833476.31249 -14661207.91549  18968349.0844   18968356.5684
 95  2  4 19 23 59.9920000  0  6 28 29 18 19 22 14
  22507570.872      -20828.86519
  18309827.208   -29924007.17749 -23302148.91149  18309830.5084   18309835.4344
  19215870.051   -27077629.30449 -21075491.57649  19215873.8834   19215879.9404
  20129002.433   -17783738.30649 -13834984.87549  20129005.0364   20129012.8644
  19624059.986   -24771556.89449 -19282232.85049  19624062.9484   19624069.6844
  18977108.564   -18787426.38449 -14625324.88749  18977112.1224   18977119.4634
 95  2  4 19 24 29.9920000  0  6 28 29 18 19 22 14
  22488517.587     -120951.110 9    -83926.96559                  22488533.6604
  18301230.952   -29969179.18849 -23337347.87149  18301234.5274   18301239.6874
  19197982.386   -27171640.57849 -21148747.08549  19197983.9614   19197990.2324
  20111405.223   -17876210.07549 -13907040.73349  20111408.4794   20111416.2454
  19630723.677   -24736545.05449 -19254950.89949  19630725.4974   19630732.1714
  18985949.747   -18740969.30349 -14589124.60049  18985952.4854   18985960.0804
 95  2  4 19 24 59.9920000  0  6 28 29 18 19 22 14
  22469496.303     -220923.62659   -161827.67249  22469496.9814   22469506.6844
  18292700.136   -30014007.70649 -23372279.16849  18292703.9834   18292709.2454
  19180134.832   -27265426.34349 -21221826.87549  19180137.0224   19180143.1734
  20093862.868   -17968396.61549 -13978874.34049  20093865.6064   20093873.3694
  19637482.762   -24701016.88149 -19227266.61349  19637486.0234   19637493.0144
  18994879.734   -18694040.33949 -14552556.61049  18994883.0794   18994890.4374
 95  2  4 19 25 29.9920000  0  6 28 29 18 19 22 14
  22450511.672     -320664.19649   -239547.58249  22450512.4484   22450522.8294
  18284248.582   -30058420.16349 -23406886.26949  18284252.5054   18284257.5414
  19162345.118   -27358910.70549 -21294671.80949  19162347.7224   19162353.6234
  20076388.352   -18060225.14849 -14050428.98149  20076391.2394   20076398.8274
  19644355.733   -24664904.73849 -19199127.29049  19644358.1464   19644364.6304
  19003913.274   -18646562.90249 -14515561.23849  19003917.9614   19003925.0854
 95  2  4 19 25 59.9920000  0  6 28 29 18 19 22 14
  22431551.601     -420304.65049   -317189.20349  22431555.2944   22431565.4034
  18275851.574   -30102546.78449 -23441270.63549  18275855.3134   18275860.4284
  19144589.242   -27452215.76949 -21367377.02449  19144592.1954   19144598.0254
  20058958.838   -18151821.49149 -14121802.68849  20058960.9284   20058968.5334
  19651313.424   -24628336.77649 -19170632.77849  19651316.3844   19651323.1814
  19013031.536   -18598648.72549 -14478225.54549  19013035.2894   19013042.4374
 95  2  4 19 26 29.9920000  0  6 28 29 18 19 22 14
  22412625.330     -519775.48849   -394698.83849  22412627.0264   22412636.5754
  18267522.412   -30146323.33849 -23475382.22249  18267524.8774   18267529.9564
  19126883.150   -27545266.69649 -21439884.21249  19126885.1884   19126891.2014
  20041582.302   -18243113.31649 -14192939.11349  20041588.4454   20041596.1924
  19658374.692   -24591241.11549 -19141727.07949  19658375.6954   19658382.3514
  19022245.075   -18550231.76949 -14440498.07649  19022248.9194   19022255.8284
 95  2  4 19 26 59.9920000  0  6 28 29 18 19 22 14
  22393733.864     -619044.26849   -472050.96049  22393734.7484   22393744.4514
  18259262.022   -30189728.17449 -23509204.15949  18259265.3204   18259270.4664
  19109230.497   -27638025.84649 -21512164.04749  19109233.8054   19109239.6214
  20024275.792   -18334079.12749 -14263821.51349  20024278.5014   20024285.8234
  19665537.049   -24553592.37649 -19112390.41549  19665539.9744   19665546.7084
  19031558.078   -18501292.95149 -14402363.95949  19031561.9014   19031568.9304
 95  2  4 19 27 29.9920000  0  6 28 29 18 19 22 14
  22374845.269     -718301.59649   -549394.19649  22374846.9444   22374854.6334
  18251035.826   -30232959.33349 -23542890.76349  18251038.7234   18251043.8474
  19091599.465   -27730683.49049 -21584364.78249  19091601.5904   19091607.5174
  20006988.214   -18424926.38349 -14334611.52849  20006990.9884   20006998.4234
  19672773.237   -24515570.20649 -19082762.76649  19672775.6354   19672782.3444
  19040935.607   -18452020.39549 -14363969.79149  19040937.9484   19040945.3954
 95  2  4 19 27 59.9920000  0  6 28 29 18 19 22 14
  22355997.936     -817351.38859   -626575.86559  22356000.3084   22356008.4554
  18242877.735   -30275819.30149 -23576288.12849  18242882.6694   18242887.7734
  19074021.313   -27823054.75549 -21656342.36749  19074023.8474   19074029.6394
  19989756.664   -18515466.42249 -14405162.15149  19989761.3564   19989768.8924
  19680117.626   -24476982.74449 -19052694.63549  19680118.4574   19680125.0094
  19050412.915   -18402215.26349 -14325160.63249  19050415.6354   19050422.8414
 95  2  4 19 28 29.9920000  0  6 28 29 18 19 22 14
  22337159.818     -916322.49249   -703696.02049  22337163.9634   22337174.1984
  18234769.981   -30318433.08449 -23609493.66549  18234773.7254   18234779.0594
  19056472.140   -27915274.28149 -21728201.71849  19056475.4144   19056481.3614
  19972562.671   -18605843.23749 -14475585.59149  19972563.6074   19972571.2044
  19687541.025   -24437970.01249 -19022295.12849  19687542.4504   19687549.3294
  19059963.187   -18352029.58749 -14286054.94849  19059965.9464   19059973.3014
 95  2  4 19 28 59.9920000  0  6 28 29 18 19 22 14
  22318349.274      -23263.60619
  18226714.287   -30360769.88749 -23642483.37149  18226717.2644   18226722.5214
  19038954.538   -28007331.82749 -21799934.84549  19038957.4174   19038963.5064
  19955396.683   -18696030.76949 -14545861.53549  19955401.1444   19955409.1934
  19695044.930   -24398526.28049 -18991559.77349  19695048.0444   19695055.2484
  19069589.766   -18301447.13049 -14246640.08049  19069591.4784   19069598.8204
 95  2  4 19 29 29.9920000  0  6 28 29 18 19 22 14
  22299541.695     -122102.25559    -82856.85059  22299543.6034   22299550.1954
  18218699.935   -30402887.41849 -23675302.21249  18218702.5194   18218707.5594
  19021452.911   -28099299.00349 -21871597.54649  19021456.4464   19021462.3344
  19938259.162   -18786089.93649 -14616037.45449  19938263.3554   19938271.1014
  19702617.997   -24358732.54949 -18960551.69049  19702620.7624   19702627.7854
  19079275.827   -18250538.07149 -14206970.71449  19079279.2944   19079286.2414
 95  2  4 19 29 59.9920000  0  6 28 29 18 19 22 14
  22280811.938     -220540.35949   -159561.73149  22280808.1244   22280819.4414
  18210797.944   -30444402.64249 -23707651.73149  18210802.3564   18210807.2714
  19004042.447   -28190799.61149 -21942896.69249  19004044.4394   19004050.3374
  19921220.834   -18875631.58049 -14685810.11349  19921223.7774   19921231.6414
  19710325.431   -24318228.40249 -18928990.04349  19710328.3944   19710335.3114
  19089095.191   -18198939.85049 -14166764.34249  19089098.0634   19089104.8684
 95  2  4 19 30 29.9920000  0  6 28 29 18 19 22 14
  22262120.509     -318740.19849   -236080.77349  22262122.7554   22262133.8334
  18202981.803   -30485488.78649 -23739666.90549  18202984.2584   18202989.3624
  18986689.770   -28281981.60649 -22013947.57349  18986693.1974   18986699.4484
  19904248.631   -18964819.11649 -14755306.84849  19904252.5714   19904260.5044
  19718137.094   -24277179.12849 -18897003.62249  19718140.3934   19718147.2774
  19099011.771   -18146827.99049 -14126157.73849  19099014.8844   19099022.0674
 95  2  4 19 30 59.9920000  0  6 28 29 18 19 22 14
  22243432.340     -416936.17149   -312596.92749  22243437.5424   22243446.3024
  18195196.896   -30526393.36649 -23771540.59849  18195200.3134   18195205.5844
  18969355.520   -28373078.93349 -22084932.47549  18969357.9784   18969364.2374
  19887298.667   -19053891.80949 -14824714.09249  19887302.4114   19887310.5854
  19726009.117   -24235824.68849 -18864779.40349  19726009.5084   19726016.5764
  19108982.947   -18094430.68849 -14085328.71549  19108985.8154   19108993.1494
 95  2  4 19 31 29.9920000  0  6 28 29 18 19 22 14
  22224798.766                                    22224800.224    22224814.7264
  18187497.945   -30566851.53049 -23803066.43349  18187501.2034   18187506.5034
  18952090.652   -28463807.04149 -22155629.67749  18952092.9334   18952099.0824
  19870422.033   -19142585.15349 -14893825.74549  19870424.4074   19870432.5104
  19733989.389   -24193877.93249 -18832093.64149  19733992.1524   19733998.8634
  19119062.428   -18041467.31849 -14044058.60049  19119064.4854   19119071.4074
 95  2  4 19 31 59.9920000  0  6 28 29 18 19 22 14
  22206202.182      -42292.44419
  18179857.797   -30607002.73149 -23834353.07749  18179860.9314   18179866.7134
  18934869.237   -28554308.07149 -22226149.93349  18934871.3114   18934877.8864
  19853586.227   -19231047.09249 -14962757.08049  19853591.2464   19853599.3734
  19742060.244   -24151466.30449 -18799045.63649  19742062.7394   19742070.0334
  19129222.203   -17988079.39349 -14002457.65949  19129223.9994   19129231.5314
 95  2  4 19 32 29.9920000  0  6 28 29 18 19 22 14
  22187656.567     -139743.12359    -96911.19559  22187659.0294   22187667.2794
  18172300.005   -30646716.41049 -23865298.79949  18172303.8304   18172309.5884
  18917713.641   -28644453.84949 -22296393.37749  18917717.1594   18917723.6374
  19836819.847   -19319166.89449 -15031421.81749  19836822.5654   19836830.9424
  19750245.188   -24108455.44049 -18765530.69149  19750247.8784   19750254.9534
  19139488.231   -17934134.71749 -13960422.88749  19139489.5554   19139497.3094
 95  2  4 19 32 59.9920000  0  6 28 29 18 19 22 14
  22169130.890     -237046.51449   -172731.88849  22169137.3564   22169151.2204
  18164799.436   -30686137.49049 -23896016.51949  18164802.0714   18164807.8914
  18900598.189   -28734410.03149 -22366489.08349  18900599.2364   18900605.7064
  19820088.146   -19407102.37049 -15099942.92849  19820088.8244   19820097.0004
  19758513.567   -24065002.32149 -18731671.13849  19758516.5084   19758523.7964
  19149827.783   -17879790.17649 -13918076.53649  19149830.8334   19149838.5914
 95  2  4 19 33 29.9920000  0  6 28 29 18 19 22 14
  22150652.393     -334194.15249   -248431.13649  22150655.7654   22150666.6284
  18157356.462   -30725250.72749 -23926494.36149  18157359.2564   18157364.8644
  18883515.571   -28824173.85749 -22436434.90449  18883517.8054   18883524.1974
  19803391.977   -19494841.66149 -15168311.17249  19803392.6764   19803400.7304
  19766869.944   -24021100.36749 -18697461.84049  19766870.7984   19766877.9804
  19160244.044   -17825050.82149 -13875422.53749  19160247.3704   19160255.3344
 95  2  4 19 33 59.9920000  0  6 28 29 18 19 22 14
  22132199.691     -431153.43949   -323983.62149  22132203.0124   22132214.0734
  18149976.313   -30764028.20449 -23956710.57649  18149980.0924   18149985.6934
  18866476.896   -28913714.31849 -22506206.67949  18866478.6344   18866484.9964
  19786737.230   -19582346.48849 -15236496.70849  19786740.6294   19786749.1864
  19775312.004   -23976730.37249 -18662887.83049  19775314.3634   19775321.3004
  19170739.292   -17769893.26349 -13832442.67049  19170743.3884   19170751.1694
 95  2  4 19 34 29.9920000  0  6 28 29 18 19 22 14
  22113776.366     -527970.71849   -399425.28549  22113781.7724   22113790.7844
  18142651.924   -30802516.67549 -23986701.59349  18142655.8704   18142661.5334
  18849474.815   -29003053.67049 -22575821.74449  18849478.0174   18849484.3564
  19770128.566   -19669633.89649 -15304512.83149  19770130.4054   19770138.8564
  19783835.151   -23931945.12849 -18627990.25049  19783836.3534   19783844.0614
  19181308.549   -17714350.82349 -13789162.89149  19181313.2004   19181320.8904
 95  2  4 19 34 59.9920000  0  6 28 29 18 19 22 14
  22095383.259     -624643.51659   -474754.86859  22095386.6614   22095394.1944
  18135380.906   -30840724.01049 -24016473.54449  18135385.1764   18135390.8984
  18832513.953   -29092179.97649 -22645270.79949  18832517.7154   18832524.1314
  19753562.781   -19756672.50249 -15372335.08749  19753567.2024   19753575.8314
  19792431.696   -23886762.13749 -18592782.74449  19792434.7474   19792441.6664
  19191953.742   -17658418.04649 -13745578.95849  19191956.6354   19191964.8544
 95  2  4 19 35 29.9920000  0  6 28 29 18 19 22 14
  22077006.838     -721180.99749   -549978.69449  22077010.1984   22077023.7754
  18128159.092   -30878673.22549 -24046044.36049  18128163.7964   18128169.4284
  18815593.912   -29181101.07649 -22714559.95249  18815596.5334   18815603.0824
  19737048.265   -19843465.66949 -15439966.08249  19737051.4644   19737059.7474
  19801101.502   -23841203.06649 -18557282.17949  19801104.6544   19801111.5334
  19202666.356   -17602122.50149 -13701712.35549  19202669.3954   19202677.4194
 95  2  4 19 35 59.9920000  0  6 28 29 18 19 22 14
  22058655.881     -817636.04549   -625138.06549  22058659.8294   22058669.6424
  18120977.901   -30916421.12349 -24075458.30449  18120980.5574   18120986.1764
  18798702.409   -29269860.27149 -22783722.94349  18798706.2414   18798712.7424
  19720568.377   -19930070.08649 -15507450.00049  19720571.0164   19720579.1884
  19809830.780   -23795337.61149 -18521542.88049  19809832.1134   19809839.5114
  19213438.228   -17545520.02049 -13657606.57349  19213440.6574   19213448.3314
 95  2  4 19 36 29.9920000  0  6 28 29 18 19 22 14
  22040324.528     -913987.45049   -700217.09549  22040324.4524   22040333.2304
  18113839.460   -30953931.42049 -24104687.10449  18113842.6134   18113848.1824
  18781845.540   -29358443.98949 -22852749.20349  18781849.4084   18781855.8284
  19704125.678   -20016475.53649 -15574778.87849  19704128.8114   19704136.5824
  19818618.353   -23749144.80449 -18485548.49949  19818622.4574   19818629.3674
  19224267.253   -17488595.38149 -13613249.76049  19224272.7464   19224280.7254
 95  2  4 19 36 59.9920000  0  6 28 29 18 19 22 14
  22022005.247    -1010231.19049   -775212.01449  22022007.3804   22022018.7544
  18106748.378   -30991191.20349 -24133720.70349  18106752.1854   18106757.9364
  18765016.439   -29446877.69549 -22921658.56549  18765020.8734   18765027.3214
  19687716.609   -20102711.18449 -15641975.44649  19687718.7274   19687726.5574
  19827474.995   -23702614.72749 -18449291.31249  19827476.7784   19827483.8814
  19235160.834   -17431365.04149 -13568654.74349  19235163.2734   19235171.5044
 95  2  4 19 37 29.9920000  0  6 28 29 18 19 22 14
  22003723.299    -1106301.75049   -850071.99349  22003728.5874   22003737.2304
  18099721.315   -31028122.58149 -24162498.40249  18099724.3294   18099730.1654
  18748229.141   -29535106.36549 -22990408.15849  18748231.7044   18748237.8764
  19671345.142   -20188744.74649 -15709014.53649  19671347.1844   19671355.0324
  19836411.853   -23655653.53749 -18412698.19049  19836413.1224   19836420.2154
  19246119.819   -17373773.18149 -13523778.02649  19246122.8524   19246130.8984
 95  2  4 19 37 59.9920000  0  6 28 29 18 19 22 14
  21985469.292    -1202230.87449   -924821.90949  21985471.8884   21985479.9054
  18092749.908   -31064754.19049 -24191042.51249  18092753.6614   18092759.3654
  18731471.152   -29623167.35449 -23059027.08949  18731474.0654   18731480.3104
  19655003.546   -20274613.14949 -15775924.93149  19655006.4944   19655014.3494
  19845424.914   -23608288.57449 -18375790.43649  19845426.4164   19845433.4244
  19257143.477   -17315839.63549 -13478635.05649  19257147.2134   19257155.1254
 95  2  4 19 38 29.9920000  0  6 28 29 18 19 22 14
  21967245.562    -1298006.34849   -999452.00049  21967247.6184   21967257.6274
  18085836.716   -31101079.62949 -24219348.04949  18085841.2484   18085846.8524
  18714745.456   -29711060.94249 -23127515.58249  18714748.4604   18714754.6704
  19638697.787   -20360307.46949 -15842699.67849  19638699.7024   19638707.7254
  19854517.565   -23560505.55649 -18338556.92749  19854519.1184   19854526.6944
  19268233.968   -17257556.88249 -13433219.97749  19268238.1014   19268246.1924
 95  2  4 19 38 59.9910000  0  6 28 29 18 19 22 14
  21949053.132    -1393588.30849  -1073931.29349  21949057.6764   21949067.1114
  18078990.883   -31137062.31949 -24247386.50849  18078994.0514   18078999.5954
  18698061.832   -29798737.60149 -23195835.03349  18698064.1244   18698070.4544
  19622430.738   -20445784.34049 -15909304.97449  19622433.6324   19622441.9234
  19863691.995   -23512285.46149 -18300982.83949  19863695.3644   19863702.5484
  19279397.273   -17198899.83049 -13387513.23849  19279400.5004   19279408.2914
 95  2  4 19 39 29.9910000  0  6 28 29 18 19 22 14
  21930884.952    -1489097.02749  -1148353.54249  21930884.0334   21930891.6394
  18072185.294   -31172823.38149 -24275252.26949  18072189.0234   18072194.4884
  18681399.257   -29886296.52249 -23264062.74249  18681402.2524   18681408.5584
  19606186.253   -20531151.85649 -15975825.06749  19606188.9244   19606196.6574
  19872927.133   -23463767.56949 -18263176.69849  19872927.8794   19872935.2104
  19290609.696   -17139978.99749 -13341600.95349  19290612.6614   19290620.5954
 95  2  4 19 39 59.9910000  0  6 28 29 18 19 22 14
  21912721.315    -1584511.22249  -1222702.17949  21912726.4904   21912736.1074
  18065426.554   -31208345.62649 -24302931.94049  18065429.4004   18065434.8904
  18664765.495   -29973713.03949 -23332179.48449  18664767.4834   18664773.6624
  19589967.302   -20616374.54949 -16042232.30749  19589971.2844   19589979.3464
  19882211.462   -23414966.65349 -18225150.02149  19882214.2514   19882221.5444
  19301878.468   -17080776.69649 -13295469.34649  19301878.5624   19301886.2524
 95  2  4 19 40 29.9910000  0  6 28 29 18 19 22 14
  21894591.460    -1679787.36249  -1296943.06449  21894596.4624   21894605.4474
  18058722.182   -31243574.94049 -24330383.35049  18058725.3804   18058730.8174
  18648166.497   -30060935.96849 -23400145.38349  18648169.5884   18648175.6494
  19573781.386   -20701424.63849 -16108505.04549  19573786.6424   19573794.7764
  19891557.946   -23365853.97349 -18186880.40749  19891560.0874   19891567.4884
  19313200.405   -17021261.55049 -13249093.95949  19313203.9924   19313211.6164
 95  2  4 19 40 59.9910000  0  6 28 29 18 19 22 14
  21876486.978    -1774925.21149  -1371076.48449  21876491.9574   21876499.7964
  18052072.527   -31278520.32649 -24357613.51449  18052075.5494   18052080.9044
  18631606.374   -30147959.05949 -23467955.56349  18631609.5304   18631615.6424
  19557629.707   -20786317.17049 -16174655.01649  19557631.9414   19557640.0064
  19900963.960   -23316422.73849 -18148362.57349  19900966.8484   19900973.5044
  19324584.368   -16961440.29049 -13202480.03949  19324587.7684   19324595.3624
 95  2  4 19 41 29.9910000  0  6 28 29 18 19 22 14
  21858409.906    -1869934.22349  -1445109.21549  21858412.3694   21858421.3994
  18045471.745   -31313211.16949 -24384645.33949  18045474.1194   18045479.4324
  18615082.566   -30234793.27549 -23535618.56849  18615085.4504   18615091.5764
  19541500.296   -20871069.07749 -16240695.41749  19541504.2264   19541512.1384
  19910432.329   -23266672.35049 -18109596.05249  19910433.7514   19910441.0254
  19336026.015   -16901315.42349 -13155629.55249  19336029.0484   19336036.8384
 95  2  4 19 41 59.9910000  0  6 28 29 18 19 22 14
  21840356.907    -1964804.76949  -1519034.21849  21840359.3584   21840367.2784
  18038917.093   -31347648.52049 -24411479.63549  18038920.7584   18038926.2844
  18598593.136   -30321443.36949 -23603138.10149  18598596.4014   18598602.6334
  19525399.686   -20955676.44449 -16306623.18149  19525404.1534   19525412.3154
  19919965.744   -23216579.35649 -18070562.56349  19919966.3374   19919973.2574
  19347528.272   -16840881.16649 -13108537.98349  19347529.4994   19347537.2724
 95  2  4 19 42 29.9910000  0  6 28 29 18 19 22 14
  21822328.811    -2059528.56249  -1592844.82649  21822331.8654   21822341.1464
  18032412.366   -31381826.75849 -24438112.02649  18032416.7584   18032422.4274
  18582140.567   -30407908.70249 -23670513.66349  18582142.5964   18582148.9284
  19509328.771   -21040138.33649 -16372437.59249  19509331.6054   19509339.2304
  19929564.092   -23166133.20849 -18031253.88349  19929565.8004   19929573.1374
  19359082.604   -16780149.02549 -13061214.29149  19359086.5304   19359094.0164
 95  2  4 19 42 59.9910000  0  6 28 29 18 19 22 14
  21804341.108    -2154052.30249  -1666499.51349  21804346.0784   21804355.9744
  18025966.055   -31415707.12849 -24464512.30649  18025969.5514   18025975.1724
  18565728.446   -30494154.27949 -23737717.98649  18565730.9394   18565737.0474
  19493296.386   -21124383.52549 -16438083.14449  19493300.5124   19493307.8034
  19939241.160   -23115278.18549 -17991626.60949  19939243.2904   19939250.4904
  19370705.893   -16719077.59849 -13013626.21849  19370707.9554   19370715.6164
 95  2  4 19 43 29.9910000  0  6 28 29 18 19 22 14
  21786386.753    -2248371.84849  -1739995.13749  21786396.2224   21786404.6834
  18019579.113   -31449275.99349 -24490669.85649  18019581.6374   18019587.2674
  18549356.648   -30580189.01549 -23804758.01849  18549358.8864   18549365.0924
  19477312.364   -21208395.54549 -16503547.00849  19477313.2824   19477321.1514
  19948992.725   -23064033.05949 -17951695.35449  19948994.6074   19949002.0764
  19382391.778   -16657664.64849 -12965772.03249  19382394.3584   19382402.1134
 95  2  4 19 43 59.9910000  0  6 28 29 18 19 22 14
  21768485.653    -2342477.79149  -1813324.26949  21768488.4514   21768498.8004
  18013254.600   -31482509.98649 -24516566.46649  18013257.3544   18013263.0444
  18533027.036   -30666008.04449 -23871629.96249  18533027.9164   18533034.0524
  19461368.614   -21292160.64649 -16568818.45849  19461373.1054   19461380.9204
  19958816.028   -23012410.27149 -17911469.82049  19958818.3834   19958825.3914
  19394140.287   -16595922.82849 -12917661.57649  19394143.5224   19394151.4504
 95  2  4 19 44 29.9910000  0  6 28 29 18 19 22 14
  21750612.501    -2436426.19149  -1886530.58249  21750612.4844   21750621.7064
  18006983.943   -31515461.62049 -24542243.05849  18006986.9154   18006992.4964
  18516726.760   -30751659.96049 -23938371.69049  18516728.7404   18516734.8784
  19445461.911   -21375742.75449 -16633947.32749  19445467.9424   19445475.5884
  19968698.776   -22960480.24149 -17871004.87449  19968700.5004   19968707.4494
  19405938.003   -16533923.17049 -12869350.21049  19405941.6494   19405949.4374
 95  2  4 19 44 59.9910000  0  6 28 29 18 19 22 14
  21732770.333    -2530160.03249  -1959569.84249  21732774.1424   21732783.1924
  18000775.877   -31548084.42749 -24567663.41449  18000778.9414   18000784.5014
  18500469.457   -30837083.75949 -24004935.65949  18500473.1884   18500479.2914
  19429605.279   -21459090.18349 -16698893.32549  19429607.5874   19429615.6444
  19978646.755   -22908197.48849 -17830265.08249  19978649.6354   19978656.4364
  19417795.725   -16471601.76449 -12820788.12749  19417800.9164   19417808.6074
 95  2  4 19 45 29.9910000  0  6 28 29 18 19 22 14
  21714962.537    -2623735.66449  -2032485.70449  21714967.5744   21714975.5054
  17994618.732   -31580436.59049 -24592872.88149  17994622.6264   17994628.2034
  18484249.927   -30922319.93949 -24071353.43449  18484253.4094   18484259.4634
  19413771.813   -21542277.62649 -16763714.66149  19413777.6014   19413785.3154
  19988647.897   -22855637.42549 -17789309.20149  19988651.3064   19988658.4144
  19429708.079   -16409011.14349 -12772016.27649  19429711.7334   19429719.4644
 95  2  4 19 45 59.9910000  0  6 28 29 18 19 22 14
  21697181.730    -2717182.42549  -2105301.27649  21697186.0674   21697194.1634
  17988507.687   -31612555.00649 -24617900.21049  17988510.6324   17988516.2394
  18468062.794   -31007392.85649 -24137643.99249  18468064.4714   18468070.4914
  19397967.336   -21625341.05049 -16828439.36149  19397971.1414   19397978.4504
  19998697.949   -22802831.36749 -17748161.64249  19998699.8834   19998707.0194
  19441662.599   -16346188.78449 -12723063.85249  19441666.4484   19441674.2594
 95  2  4 19 46 29.9910000  0  6 28 29 18 19 22 14
  21679422.396    -2810462.42749  -2177986.84649  21679433.2874   21679443.0034
  17982445.670   -31644409.28749 -24642721.72349  17982448.9514   17982454.4914
  18451910.876   -31092266.48349 -24203779.25849  18451913.6664   18451919.6484
  19382194.119   -21708246.73149 -16893041.14949  19382194.9504   19382202.3924
  20008799.483   -22749739.66349 -17706791.50349  20008803.0944   20008810.0144
  19453671.399   -16283088.55149 -12673894.90349  19453674.0524   19453681.5014
 95  2  4 19 46 59.9910000  0  6 28 29 18 19 22 14
  21661724.532    -2903511.76549  -2250492.65049  21661727.3224   21661735.6484
  17976444.586   -31675938.46449 -24667289.90349  17976448.9934   17976454.7104
  18435813.724   -31176866.58449 -24269701.38349  18435814.7484   18435820.9344
  19366458.142   -21790927.56349 -16957467.72349  19366460.9204   19366468.6634
  20018969.749   -22696303.97749 -17665153.32449  20018971.2044   20018978.6094
  19465744.025   -16219642.50549 -12624456.47849  19465747.3074   19465754.9804
 95  2  4 19 47 29.9910000  0  6 28 29 18 19 22 14
  21644057.478    -2996346.16849  -2322831.04949  21644062.0574   21644071.4224
  17970503.546   -31707156.98449 -24691616.01349  17970508.3204   17970514.0984
  18419764.128   -31261198.03749 -24335414.17649  18419766.9664   18419773.3444
  19350762.029   -21873396.06649 -17021728.85249  19350767.5004   19350775.2884
  20029196.049   -22642536.71849 -17623256.78049  20029202.6524   20029210.0814
  19477879.568   -16155880.78249 -12574772.07649  19477880.8634   19477888.9334
 95  2  4 19 47 59.9910000  0  6 28 29 18 19 22 14
  21626440.198    -3088919.24349  -2394965.67549  21626444.1654   21626454.6524
  17964633.019   -31738015.30449 -24715661.44849  17964636.2604   17964642.0074
  18403776.139   -31345215.56949 -24400882.35549  18403778.9194   18403785.2444
  19335119.329   -21955613.62049 -17085794.43849  19335122.0334   19335129.8244
  20039505.702   -22588383.64349 -17581059.60349  20039507.5044   20039515.3064
  19490078.525   -16091766.84249 -12524813.21849  19490081.4074   19490089.5934
 95  2  4 19 48 29.9910000  0  6 28 29 18 19 22 14
  21608878.254    -3181223.47349  -2466890.97849  21608881.1674   21608888.7384
  17958830.904   -31768498.38949 -24739414.49249  17958835.4674   17958841.2884
  18387850.337   -31428904.87149 -24466094.77249  18387853.4204   18387859.5654
  19319520.198   -22037586.97149 -17149669.72949  19319522.9774   19319530.8214
  20049884.486   -22533835.30149 -17538554.42349  20049888.0904   20049895.6054
  19502346.748   -16027304.02349 -12474582.50949  19502348.4814   19502356.5474
 95  2  4 19 48 59.9910000  0  7 28 29 18 19 22 31 14
  21591352.256    -3273316.87449  -2538651.99749  21591355.3924   21591364.6774
  17953091.450   -31798664.90849 -24762920.86349  17953095.1004   17953100.7084
  18371975.325   -31512334.71449 -24531105.01449  18371977.2964   18371983.4314
  19303951.726   -22119390.16649 -17213412.43449  19303955.9344   19303963.8074
  20060328.722   -22478952.36849 -17495788.52349  20060331.8874   20060339.4454
  22085320.225    -3757017.26259  -2905658.10859  22085325.0044   22085336.8154
  19514663.818   -15962564.96949 -12424136.55549  19514667.8804   19514675.7144
 95  2  4 19 49 29.9910000  0  7 28 29 18 19 22 31 14
  21573878.286    -3365140.80249  -2610202.94349  21573880.2314   21573891.7174
  17947422.464   -31828459.00849 -24786137.04149  17947425.4844   17947431.1024
  18356154.689   -31595466.58549 -24595883.07149  18356157.5644   18356163.8554
  19288427.241   -22200976.40049 -17276986.08649  19288430.4994   19288438.4234
  20070845.744   -22423684.72849 -17452722.85249  20070849.1294   20070856.8864
  22063135.929    -3873595.79349  -2996498.26549  22063140.3084   22063152.6954
  19527048.115   -15897502.98349 -12373438.96849  19527048.6324   19527056.8034
 95  2  4 19 49 59.9910000  0  7 28 29 18 19 22 31 14
  21556450.114    -3456732.49249  -2681572.90949  21556452.9274   21556461.1464
  17941818.324   -31857911.38749 -24809086.93749  17941820.7934   17941826.4914
  18340379.612   -31678359.58849 -24660474.99349  18340383.5154   18340389.7664
  19272936.400   -22282389.05549 -17340424.47549  19272938.3614   19272946.3174
  20081428.742   -22368078.18949 -17409393.11149  20081430.5284   20081438.2724
  22040940.816    -3990243.82749  -3087392.61749  22040942.3964   22040955.1264
  19539479.082   -15832163.09549 -12322524.83749  19539482.8434   19539490.8814
 95  2  4 19 50 29.9910000  0  7 28 29 18 19 22 31 14
  21539073.946    -3548035.24849  -2752717.94949  21539078.6314   21539084.5504
  17936288.001   -31886969.58649 -24831729.68349  17936291.1314   17936296.8424
  18324661.385   -31760965.50649 -24724843.21449  18324664.2334   18324670.3024
  19257489.840   -22363552.35049 -17403668.55849  19257493.7844   19257501.3444
  20092083.962   -22312084.41949 -17365761.62249  20092085.7974   20092093.5434
  22018741.036    -4106898.12049  -3178291.87549  22018744.3664   22018755.4864
  19551975.946   -15766495.35249 -12271355.23449  19551978.8034   19551987.0974
 95  2  4 19 50 59.9910000  0  7 28 29 18 19 22 31 14
  21521757.951    -3639045.64049  -2823634.96349  21521758.6144   21521768.6044
  17930829.818   -31915647.54549 -24854076.13949  17930833.9184   17930839.6054
  18308995.511   -31843286.42549 -24788989.35949  18308999.0004   18309004.9914
  19242096.223   -22444458.54849 -17466712.30249  19242097.6554   19242105.1544
  20102812.956   -22255706.86149 -17321831.08549  20102814.2594   20102822.0824
  21996545.336    -4223547.70349  -3269187.44649  21996545.5344   21996557.4574
  19564533.408   -15700502.04649 -12219931.95049  19564537.1574   19564545.1194
 95  2  4 19 51 29.9910000  0  7 28 29 18 19 22 31 14
  21504476.538    -3729848.00949  -2894389.92549  21504480.7044   21504490.1404
  17925429.972   -31944027.89149 -24876190.68949  17925433.4344   17925439.0984
  18293371.676   -31925395.96849 -24852970.79749  18293374.0294   18293380.0824
  19226732.539   -22525181.86749 -17529613.53649  19226736.5284   19226744.2284
  20113597.449   -22199036.65049 -17277672.50949  20113598.0324   20113605.6334
  21974328.838    -4340278.33049  -3360146.17849  21974332.5394   21974344.9984
  19577141.071   -15634258.29449 -12168313.51049  19577142.9884   19577150.7134
 95  2  4 19 51 59.9910000  0  7 28 29 18 19 22 31 14
  21487251.237    -3820377.10349  -2964932.00249  21487252.3794   21487260.9774
  17920100.195   -31972038.31349 -24898016.98849  17920103.2394   17920108.9854
  18277798.320   -32007234.43649 -24916741.00549  18277800.7534   18277806.7934
  19211420.693   -22605648.98549 -17592315.13749  19211424.1014   19211431.8614
  20124449.174   -22142000.22149 -17233228.56749  20124451.9864   20124459.6374
  21952118.205    -4457016.76349  -3451110.94249  21952118.1114   21952130.5284
  19589806.612   -15567690.28149 -12116442.39849  19589810.6784   19589818.4574
 95  2  4 19 52 29.9910000  0  7 28 29 18 19 22 31 14
  21470069.845    -3910679.74749  -3035297.56949  21470068.8644   21470076.3794
  17914828.795   -31999739.34849 -24919602.20949  17914831.6754   17914837.5004
  18262265.318   -32088852.11949 -24980339.16949  18262269.3044   18262275.2934
  19196146.995   -22685919.93049 -17654863.87449  19196149.0334   19196156.4374
  20135360.600   -22084659.69349 -17188547.66949  20135363.9604   20135371.1054
  21929894.272    -4573801.81449  -3542112.03749  21929894.7404   21929906.5084
  19602528.681   -15500845.52549 -12064355.64249  19602530.7554   19602538.6954
 95  2  4 19 52 59.9910000  0  7 28 29 18 19 22 31 14
  21452925.056    -4000767.13849  -3105495.44549  21452926.4324   21452935.7354
  17909614.755   -32027140.70149 -24940953.91049  17909617.4194   17909623.2394
  18246773.390   -32170269.27449 -25043781.07749  18246775.9974   18246782.1054
  19180901.846   -22766023.57649 -17717282.24949  19180905.4044   19180913.2924
  20146322.893   -22027040.74249 -17143649.81749  20146328.2064   20146335.5284
  21907654.272    -4690647.24449  -3633160.20549  21907658.3834   21907670.5994
  19615297.095   -15433736.51749 -12012062.98049  19615301.2014   19615309.2384
 95  2  4 19 53 29.9910000  0  8 28 29 18 19 27 22 31 14
  21435820.252    -4090643.21649  -3175528.62949  21435822.7874   21435831.7794
  17904457.151   -32054239.91149 -24962070.17749  17904460.6734   17904466.2634
  18231316.252   -32251497.34249 -25107075.64649  18231318.7954   18231324.8744
  19165691.676   -22845957.22449 -17779568.15849  19165694.6954   19165702.2514
  22348246.517    -2391309.42259  -1852344.10359  22348243.4934   22348254.9164
  20157340.477   -21969162.24649 -17098549.72949  20157342.5154   20157349.0584
  21885404.364    -4807561.72449  -3724262.15749  21885410.9354   21885422.9144
  19628119.394   -15366367.48749 -11959567.71049  19628121.0934   19628129.1064
 95  2  4 19 53 59.9910000  0  8 28 29 18 19 27 22 31 14
  21418763.205    -4180280.42749  -3245375.72549  21418764.2814   21418772.4974
  17899361.754   -32081016.55449 -24982935.08749  17899365.3814   17899370.9584
  18215899.013   -32332512.33149 -25170204.17949  18215902.0834   18215908.2724
  19150517.956   -22925701.17149 -17841706.25349  19150520.0604   19150527.4424
  22327289.528    -2501397.48749  -1938126.90349  22327295.0724   22327306.5114
  20168407.758   -21911008.21949 -17053234.94149  20168408.5344   20168415.9004
  21863151.806    -4924520.91149  -3815398.91949  21863153.4664   21863165.8924
  19640987.996   -15298736.21149 -11906868.08749  19640990.8794   19640999.0564
 95  2  4 19 54 29.9910000  0  8 28 29 18 19 27 22 31 14
  21401753.791    -4269673.62249  -3315032.68649  21401754.6104   21401762.8944
  17894325.572   -32107480.56049 -25003556.38949  17894329.4414   17894335.0364
  18200529.450   -32413285.47049 -25233144.25649  18200531.5954   18200537.7474
  19135376.995   -23005260.00549 -17903700.10049  19135380.4744   19135388.0604
  22306343.218    -2611442.30349  -2023875.96149  22306353.5504   22306365.4004
  20179523.653   -21852589.87849 -17007714.19049  20179525.3864   20179532.3444
  21840885.135    -5041523.82549  -3906569.75049  21840887.8664   21840900.9074
  19653906.600   -15230853.60149 -11853972.62249  19653908.2734   19653916.4934
 95  2  4 19 54 59.9910000  0  8 28 29 18 19 27 22 31 14
  21384796.156    -4358775.11249  -3384462.30049  21384797.3934   21384807.6284
  17889359.814   -32133577.21949 -25023891.44649  17889363.3534   17889368.9894
  18185217.355   -32493752.32149 -25295845.67049  18185219.0794   18185225.3664
  19120285.415   -23084574.11549 -17965503.25349  19120287.5044   19120294.9654
  22285423.312    -2721377.67349  -2109539.78049  22285434.3874   22285444.7574
  20190697.032   -21793861.06249 -16961951.50649  20190701.0684   20190708.4204
  21818616.288    -5158530.11049  -3997743.19449  21818622.2754   21818634.6674
  19666879.978   -15162672.75949 -11800844.77049  19666882.7554   19666891.2624
 95  2  4 19 55 29.9910000  0  8 28 29 18 19 27 22 31 14
  21367905.094    -4447560.78149  -3453645.80549  21367903.2994   21367912.3514
  17884466.995   -32159286.98049 -25043925.02349  17884471.1604   17884476.6414
  18169968.662   -32573874.80949 -25358278.74949  18169972.3464   18169978.6104
  19105244.582   -23163623.12549 -18027099.83349  19105244.9684   19105252.3924
  22264533.485    -2831177.74249  -2195098.12049  22264539.4164   22264550.3824
  20201938.359   -21734797.86149 -16915928.26549  20201940.4304   20201947.4164
  21796355.699    -5275520.26549  -4088904.14449  21796360.3094   21796371.4694
  19679914.141   -15094172.62849 -11747468.12749  19679917.5844   19679926.1094
 95  2  4 19 55 59.9910000  0  8 28 29 18 19 27 22 31 14
  21351064.293    -4536023.09349  -3522577.44149  21351070.0584   21351076.2544
  17879650.321   -32184603.73349 -25063652.36249  17879653.4214   17879658.7804
  18154789.584   -32653644.27149 -25420436.74349  18154792.7584   18154798.9804
  19090250.624   -23242413.77549 -18088495.09949  19090251.5384   19090258.8154
  22243664.928    -2940843.47149  -2280551.80649  22243670.3884   22243681.9504
  20213240.692   -21675392.57649 -16869638.46449  20213244.7104   20213252.3624
  21774104.899    -5392483.95749  -4180044.40549  21774102.3274   21774113.1134
  19693012.399   -15025346.55049 -11693837.49749  19693015.0434   19693023.4714
 95  2  4 19 56 29.9910000  0  8 28 29 18 19 27 22 31 14
  21334277.284    -4624234.00249  -3591313.10149  21334282.1354   21334292.7244
  17874893.391   -32209600.49149 -25083130.35049  17874896.6584   17874902.1064
  18139662.970   -32733133.83049 -25482376.63349  18139666.3424   18139672.5294
  19075291.518   -23321021.26349 -18149747.64249  19075293.1334   19075300.5344
  22222814.875    -3050437.35449  -2365949.50749  22222814.7334   22222827.0524
  20224598.607   -21615722.06049 -16823141.99249  20224600.1334   20224606.9864
  21751832.023    -5509480.82249  -4271210.53549  21751838.6464   21751849.6204
  19706158.177   -14956265.48749 -11640008.17249  19706160.8754   19706169.1324
 95  2  4 19 56 59.9910000  0  8 28 29 18 19 27 22 31 14
  21317562.284    -4712087.47249  -3659770.23749  21317566.2114   21317575.0894
  17870219.735   -32234160.36549 -25102267.91349  17870223.1104   17870228.6264
  18124608.142   -32812251.60449 -25544026.81749  18124610.7044   18124616.8724
  19060386.975   -23399344.65749 -18210778.80449  19060388.4574   19060396.1074
  22201987.538    -3159869.08449  -2451220.83649  22201991.0634   22202002.7524
  20236025.865   -21555677.89949 -16776354.35649  20236025.8534   20236033.7674
  21729582.646    -5626406.84349  -4362321.48249  21729588.3184   21729599.8394
  19719366.612   -14886840.32249 -11585910.71949  19719372.1484   19719380.3194
 95  2  4 19 57 29.9910000  0  8 28 29 18 19 27 22 31 14
  21300913.823    -4799548.86549  -3727921.94249  21300920.6024   21300929.1454
  17865634.838   -32258252.31449 -25121040.85749  17865638.4384   17865644.0784
  18109627.470   -32890974.00049 -25605368.91349  18109630.3294   18109636.4694
  19045539.104   -23477359.25449 -18271569.35249  19045542.7344   19045550.3614
  22181196.023    -3269121.18749  -2536352.21749  22181201.1554   22181211.7664
  20247526.587   -21495228.40449 -16729250.88949  20247528.7854   20247536.3794
  21707350.004    -5743222.47849  -4453346.43449  21707358.1734   21707369.1334
  19732647.329   -14817059.57849 -11531536.18949  19732651.0254   19732659.2644
 95  2  4 19 57 59.9910000  0  8 28 29 18 19 27 22 31 14
  21284345.240    -4886621.08449  -3795770.30149  21284351.9634   21284361.2724
  17861138.553   -32281881.64449 -25139453.31749  17861141.7184   17861147.5954
  18094723.038   -32969299.91649 -25666402.06049  18094725.3474   18094731.5794
  19030753.454   -23555065.11849 -18332119.32649  19030755.9634   19030763.5914
  22160439.437    -3378195.62349  -2621345.17549  22160444.6664   22160455.5224
  20259104.062   -21434382.15749 -16681838.25149  20259107.4154   20259115.2604
  21685147.346    -5859924.61049  -4544282.92449  21685152.0774   21685161.7424
  19745992.126   -14746950.23149 -11476905.60049  19745992.5774   19746000.7904
 95  2  4 19 58 29.9910000  0  8 28 29 18 19 27 22 31 14
  21267857.569    -4973297.16049  -3863310.01549  21267859.1064   21267868.6044
  17856730.761   -32305046.65749 -25157503.97049  17856733.5134   17856739.3224
  18079896.591   -33047218.00849 -25727117.41849  18079897.7174   18079904.1364
  19016024.697   -23632451.62149 -18392420.43949  19016029.4544   19016037.3914
  22139720.010    -3487093.73649  -2706200.71449  22139721.6024   22139732.5584
  20270759.740   -21373138.29849 -16634115.79449  20270761.7824   20270770.0174
  21662964.943    -5976511.97349  -4635130.03649  21662965.3464   21662976.0234
  19759392.767   -14676517.40249 -11422022.94549  19759395.2984   19759403.5354
 95  2  4 19 58 59.9910000  0  8 28 29 18 19 27 22 31 14
  21251436.951    -5059570.45849  -3930535.86649  21251439.4584   21251448.7324
  17852409.981   -32327745.09949 -25175191.06549  17852414.1714   17852419.8864
  18065144.629   -33124730.49949 -25787516.72849  18065147.6624   18065153.9684
  19001359.715   -23709515.74049 -18452470.34949  19001364.3864   19001372.1244
  22119022.410    -3595826.67549  -2790927.55349  22119030.8434   22119041.6224
  20282493.012   -21311494.93449 -16586082.02849  20282491.9114   20282499.7674
  21640794.377    -6092994.57749  -4725895.50149  21640799.3934   21640810.6534
  19772856.108   -14605756.30949 -11366884.51049  19772860.7894   19772869.2374
 95  2  4 19 59 29.9910000  0  8 28 29 18 19 27 22 31 14
  21235104.140    -5145409.83049  -3997423.65849  21235107.2314   21235114.1704
  17848183.719   -32349952.90449 -25192495.84349  17848188.4094   17848194.0804
  18050476.849   -33201812.96849 -25847580.95349  18050479.3804   18050485.6764
  18986762.516   -23786231.31649 -18512248.66649  18986766.1514   18986773.8804
  22098365.477    -3704356.83749  -2875496.38149  22098377.6124   22098388.2274
  20294299.610   -21249437.08949 -16537725.29449  20294301.3274   20294308.4754
  21618656.621    -6209343.41749  -4816556.77249  21618658.9174   21618669.1434
  19786396.115   -14534615.05449 -11311449.84849  19786398.2404   19786407.1364
 95  2  4 19 59 59.9910000  0  8 28 29 18 19 27 22 31 14
  21218834.320    -5230887.35449  -4064029.45649  21218839.5684   21218849.5844
  17844036.734   -32371751.69049 -25209481.90949  17844040.2824   17844045.8284
  18035876.685   -33278538.01049 -25907366.66549  18035879.1054   18035885.2914
  18972216.492   -23862677.44949 -18571817.02149  18972218.8344   18972226.3654
  22077739.748    -3812760.64349  -2959966.72149  22077750.0894   22077760.6894
  20306175.513   -21187030.92749 -16489097.14049  20306176.6824   20306184.4204
  21596526.392    -6325636.84149  -4907174.83949  21596528.6504   21596539.1464
  19799996.219   -14463151.36649 -11255763.95049  19799997.4664   19800006.2664
 95  2  4 20  0 29.9910000  0  8 28 29 18 19 27 22 31 14
  21202635.208    -5316049.90449  -4130389.76349  21202634.8794   21202643.2114
  17839956.722   -32393190.26649 -25226187.29749  17839960.8484   17839966.2604
  18021330.222   -33354977.82949 -25966930.13249  18021333.1474   18021339.1344
  18957710.092   -23938914.46049 -18631222.43249  18957711.5314   18957718.8154
  22057122.056    -3921081.24549  -3044372.21749  22057137.2784   22057147.2174
  20318106.205   -21124329.89949 -16440239.23249  20318108.6024   20318115.9534
  21574396.280    -6441930.19249  -4997792.86049  21574398.5904   21574409.1934
  19813647.406   -14391398.47149 -11199852.69249  19813651.9764   19813660.7314
 95  2  4 20  0 59.9910000  0  8 28 29 18 19 27 22 31 14
  21186488.517    -5400874.22949  -4196486.59949  21186492.9344   21186501.5964
  17835952.225   -32414242.08149 -25242591.30449  17835954.8024   17835960.1314
  18006841.816   -33431111.54849 -26026255.07749  18006845.2874   18006851.3794
  18943244.042   -24014928.54849 -18690454.13149  18943246.5604   18943253.9894
  22036548.506    -4029291.80249  -3128692.01049  22036544.5284   22036555.4874
  20330100.520   -21061316.30149 -16391137.74549  20330099.5254   20330107.2654
  21552268.970    -6558190.70849  -5088385.27149  21552275.0644   21552285.8654
  19827360.775   -14319334.30349 -11143698.88149  19827365.6234   19827374.1714
 95  2  4 20  1 29.9910000  0  8 28 29 18 19 27 22 31 14
  21170405.817    -5485422.60849  -4262368.36349  21170402.8144   21170412.9054
  17832007.129   -32434968.09149 -25258741.44049  17832010.6054   17832015.9564
  17992399.789   -33506995.24149 -26085385.19649  17992405.4684   17992411.4654
  18928812.472   -24090781.70649 -18749560.44149  18928812.3104   18928819.6684
  22015951.214    -4137457.60049  -3212976.86249  22015961.1414   22015972.0484
  20342135.790   -20998051.62049 -16341840.61849  20342138.6714   20342146.4034
  21530147.915    -6674462.91849  -5178986.78349  21530149.0884   21530159.2104
  19841119.135   -14247035.82749 -11087362.49049  19841123.5564   19841132.0574
 95  2  4 20  1 59.9910000  0  8 28 29 18 19 27 22 31 14
  21154369.100    -5569670.79649  -4328016.21549  21154372.9824   21154380.5474
  17828130.543   -32455345.24149 -25274619.73849  17828132.9724   17828138.5244
  17978013.799   -33582606.83749 -26144303.29849  17978017.1464   17978022.9374
  18914413.319   -24166434.20949 -18808510.38449  18914415.8074   18914423.0544
  21995387.398    -4245556.96249  -3297209.98449  21995389.9294   21995400.7464
  20354225.599   -20934511.76449 -16292329.06549  20354229.9864   20354237.1314
  21508029.019    -6790712.17949  -5269570.43449  21508027.5584   21508036.8604
  19854924.568   -14174506.18849 -11030845.96949  19854925.6724   19854934.1574
 95  2  4 20  2 29.9910000  0  8 28 29 18 19 27 22 31 14
  21138391.647    -5653598.58849  -4393414.47149  21138399.7634   21138408.4534
  17824323.745   -32475336.85249 -25290197.61549  17824328.6394   17824334.2464
  17963682.029   -33657920.69749 -26202989.39649  17963685.4004   17963691.3064
  18900063.327   -24241852.11649 -18867277.53449  18900064.2704   18900071.5874
  21974837.489    -4353571.46349  -3381376.95349  21974836.6474   21974845.8834
  20366374.183   -20870689.94049 -16242597.80749  20366375.0394   20366382.2604
  21485915.029    -6906902.55149  -5360108.18049  21485916.1934   21485927.4264
  19868767.054   -14101743.69849 -10974148.00549  19868771.8394   19868780.3994
 95  2  4 20  2 59.9910000  0  8 28 29 18 19 27 22 31 14
  21122487.770    -5737206.25549  -4458563.15649  21122490.8774   21122500.4494
  17820594.944   -32494939.80449 -25305472.64549  17820598.5454   17820603.8944
  17949410.383   -33732915.77049 -26261427.09149  17949414.1584   17949420.0564
  18885754.457   -24317032.17949 -18925859.34849  18885757.8344   18885765.2244
  21954290.420    -4461519.17049  -3465491.90649  21954294.2304   21954303.1014
  20378569.779   -20806586.17949 -16192646.84049  20378573.3924   20378580.7164
  21463821.739    -7023025.20449  -5450593.10149  21463819.8054   21463830.1234
  19882655.192   -14028767.07949 -10917283.19149  19882658.7874   19882667.4314
 95  2  4 20  3 29.9910000  0  8 28 29 18 19 27 22 31 14
  21106617.876    -5820607.19249  -4523550.83149  21106620.5924   21106628.8174
  17816917.380   -32514267.11949 -25320532.88749  17816920.6274   17816926.1784
  17935180.087   -33807705.94349 -26319705.12049  17935182.0334   17935187.9754
  18871471.599   -24392088.81749 -18984344.98649  18871474.8004   18871482.3574
  21933742.404    -4569511.46849  -3549641.59249  21933743.7994   21933753.4284
  20390801.219   -20742316.12649 -16142566.30949  20390803.5834   20390811.4764
  21441706.698    -7139202.97949  -5541120.99949  21441710.8414   21441721.9574
  19896557.157   -13955702.47949 -10860349.82549  19896562.7634   19896571.4364
 95  2  4 20  3 59.9910000  0  8 28 29 18 19 27 22 31 14
  21090800.966    -5903694.01649  -4588293.73849  21090808.0724   21090816.4694
  17813313.725   -32533207.94549 -25335291.97249  17813316.2914   17813321.7754
  17921008.269   -33882171.88049 -26377730.49949  17921011.4114   17921017.4174
  18857231.972   -24466920.90949 -19042655.65949  18857235.0294   18857242.0744
  21913201.751    -4677438.82149  -3633740.67649  21913205.6284   21913216.0414
  20403081.909   -20677784.81049 -16092282.20149  20403084.1104   20403091.2704
  21419611.443    -7255339.20649  -5631616.52049  21419611.0684   21419621.0234
  19910504.178   -13882432.29549 -10803256.26849  19910505.3734   19910514.2904
 95  2  4 20  4 29.9910000  0  8 28 29 18 19 27 22 31 14
  21075049.275    -5986511.09949  -4652826.45749  21075050.3104   21075058.7494
  17809772.240   -32551815.55249 -25349791.40949  17809775.3044   17809780.8844
  17906893.421   -33956345.54949 -26435528.13949  17906896.6534   17906902.7654
  18843019.790   -24541603.42149 -19100849.77749  18843023.1994   18843030.3834
  21892660.018    -4785349.71849  -3717826.93949  21892669.5754   21892680.7644
  20415398.788   -20613050.06149 -16041839.56949  20415402.1834   20415409.6754
  21397499.959    -7371493.36649  -5722126.01449  21397507.1124   21397517.2314
  19924476.284   -13809001.71849 -10746037.73949  19924478.9144   19924487.9054
 95  2  4 20  4 59.9910000  0  8 28 29 18 19 27 22 31 14
  21059337.314    -6069044.76949  -4717138.28749  21059342.0594   21059352.1844
  17806293.981   -32570092.45649 -25364033.15549  17806297.3224   17806302.8924
  17892834.744   -34030226.90249 -26493097.99949  17892837.3754   17892843.3274
  18828835.163   -24616144.53449 -19158933.70649  18828838.5464   18828845.7274
  21872144.878    -4893223.03549  -3801883.91649  21872142.8664   21872154.0494
  20427757.248   -20548113.19349 -15991239.43249  20427759.7164   20427767.2624
  21375400.168    -7487673.82849  -5812655.99549  21375399.3234   21375409.4274
  19938482.256   -13735390.22849 -10688678.23449  19938486.7554   19938495.7934
 95  2  4 20  5 29.9910000  0  8 28 29 18 19 27 22 31 14
  21043690.787    -6151298.22749  -4781231.80649  21043692.5684   21043698.7094
  17802876.889   -32588046.85949 -25378023.60449  17802880.7264   17802886.1924
  17878827.480   -34103833.99749 -26550454.15749  17878830.5534   17878836.4714
  18814680.107   -24690541.78749 -19216905.54549  18814681.3304   18814688.3604
  21851618.836    -5001056.94249  -3885910.18449  21851623.2164   21851633.2864
  20440152.189   -20482987.30749 -15940492.03049  20440152.3464   20440159.8154
  21353285.447    -7603887.11149  -5903211.52649  21353283.9094   21353294.5604
  19952525.593   -13661596.47549 -10631176.71349  19952529.3084   19952538.4774
 95  2  4 20  5 59.9900000  0  8 28 29 18 19 27 22 31 14
  21028081.721    -6233320.68049  -4845145.34049  21028083.5934   21028092.6054
  17799511.342   -32605739.93549 -25391810.41949  17799513.9794   17799519.2734
  17864861.639   -34177223.74049 -26607640.94849  17864864.9334   17864870.9144
  18800537.444   -24764845.56749 -19274804.54749  18800541.6834   18800548.9994
  21831095.149    -5108909.71549  -3969951.17449  21831098.7764   21831108.4314
  20452567.712   -20417733.56149 -15889644.97549  20452569.8294   20452576.6074
  21331153.183    -7720179.80549  -5993828.95349  21331154.2504   21331162.9594
  19966592.427   -13587677.61749 -10573577.70449  19966595.9174   19966604.9384
 95  2  4 20  6 29.9900000  0  8 28 29 18 19 27 22 31 14
  21012534.229    -6315016.98049  -4908804.64649  21012536.6254   21012545.4174
  17796211.332   -32623079.69949 -25405321.92449  17796214.3044   17796219.6474
  17850951.734   -34250324.57849 -26664602.61549  17850954.2934   17850960.2864
  18786435.595   -24838958.46449 -19332554.80449  18786438.4304   18786445.7734
  21810581.986    -5216696.21049  -4053940.48849  21810587.7234   21810598.3854
  20465027.304   -20352248.49049 -15838617.67049  20465031.4984   20465038.7254
  21309026.842    -7836452.24649  -6084430.64849  21309027.8134   21309037.0464
  19980698.298   -13513549.93849 -10515815.97149  19980702.1994   19980711.0914
 95  2  4 20  6 59.9900000  0  8 28 29 18 19 27 22 31 14
  20997039.155    -6396452.14349  -4972260.57849  20997040.3094   20997047.2694
  17792967.221   -32640129.48649 -25418607.48349  17792969.7314   17792975.2164
  17837083.305   -34323206.98849 -26721394.08149  17837085.0544   17837091.0854
  18772358.935   -24912931.81149 -19390196.33149  18772361.6964   18772369.0144
  21790072.634    -5324488.59649  -4137934.40249  21790075.3034   21790085.2274
  20477523.799   -20286599.34349 -15787462.53849  20477523.6264   20477531.1534
  21286892.232    -7952751.76049  -6175053.38849  21286896.3714   21286906.3094
  19994833.365   -13439280.77449 -10457943.99649  19994835.3084   19994843.8634
 95  2  4 20  7 29.9900000  0  8 28 29 18 19 27 22 31 14
  20981595.498    -6477585.92849  -5035481.60649  20981599.2084   20981609.3724
  17789783.470   -32656854.11149 -25431639.66749  17789787.1094   17789792.6914
  17823265.475   -34395817.27649 -26777973.49949  17823267.7014   17823273.8224
  18758315.882   -24986725.39949 -19447697.78249  18758319.3034   18758326.8044
  21769561.268    -5432259.52249  -4221911.61249  21769567.4974   21769577.5044
  20490055.108   -20220737.54849 -15736141.68149  20490057.2094   20490064.1844
  21264760.626    -8069018.88549  -6265650.88449  21264771.5204   21264782.1114
  20008997.099   -13364845.95549 -10399942.93149  20008999.6354   20009008.7094
 95  2  4 20  7 59.9900000  0  8 28 29 18 19 27 22 31 14
  20966219.608    -6558403.00749  -5098455.84749  20966223.0214   20966230.3134
  17786665.265   -32673244.51249 -25444411.41349  17786668.0244   17786673.5454
  17809502.886   -34468140.27649 -26834329.05749  17809505.2444   17809511.2084
  18744307.488   -25060336.50149 -19505057.03649  18744311.5484   18744318.9094
  21749066.106    -5540002.40649  -4305866.97149  21749063.3644   21749074.5104
  20502629.598   -20154657.71849 -15684650.94349  20502631.0274   20502639.2534
  21242655.414    -8185231.90549  -6356206.27049  21242657.2224   21242665.8864
  20023193.405   -13290238.57349 -10341807.40949  20023197.0174   20023205.9274
 95  2  4 20  8 29.9900000  0  8 28 29 18 19 27 22 31 14
  20950899.963    -6638899.44749  -5161180.29449  20950902.3024   20950911.0874
  17783608.257   -32689298.78649 -25456921.24349  17783612.8594   17783618.4684
  17795794.403   -34540171.29849 -26890457.10049  17795798.2674   17795804.0804
  18730334.390   -25133766.10649 -19562274.87249  18730338.1844   18730345.3514
  21728565.800    -5647712.32449  -4389796.63549  21728567.8494   21728578.2784
  20515243.450   -20088368.32449 -15632996.90149  20515246.0274   20515253.3064
  21220549.349    -8301381.40349  -6446712.15549  21220553.6374   21220563.3534
  20037422.451   -13215458.70949 -10283537.48949  20037426.9124   20037436.1384
 95  2  4 20  8 59.9900000  0  8 28 29 18 19 27 22 31 14
  20935646.397    -6719071.35749  -5223651.81049  20935648.2064   20935656.2274
  17780619.242   -32705016.57249 -25469168.87449  17780621.9854   17780627.5884
  17782145.869   -34611899.15749 -26946348.90949  17782148.8424   17782154.6374
  18716394.584   -25207019.94149 -19619355.74049  18716398.4604   18716405.4744
  21708077.179    -5755382.73349  -4473695.49149  21708078.0204   21708088.6214
  20527895.183   -20021866.48049 -15581177.31149  20527900.8024   20527908.6944
  21198459.882    -8417474.38249  -6537173.98249  21198462.2224   21198472.2294
  20051688.945   -13140501.93049 -10225129.71349  20051690.6174   20051699.8344
 95  2  4 20  9 29.9900000  0  8 28 29 18 19 27 22 31 14
  20920460.107    -6798858.44449  -5285823.50849  20920463.2244   20920472.1944
  17777703.258   -32720336.10749 -25481106.19149  17777706.8674   17777712.5784
  17768564.083   -34683277.66249 -27001968.50249  17768565.9134   17768571.7704
  18702498.957   -25280042.01449 -19676256.02049  18702502.5494   18702509.9224
  21687607.379    -5862957.27649  -4557519.70849  21687607.8224   21687617.8234
  20540606.918   -19955101.58949 -15529152.76449  20540605.7064   20540612.9494
  21176386.764    -8533460.19649  -6627552.33249  21176390.5264   21176400.9544
  20065991.867   -13065323.17949 -10166548.98549  20065996.6824   20066006.0194
 95  2  4 20  9 59.9900000  0  8 28 29 18 19 27 22 31 14
  20905354.874    -6878258.29149  -5347693.45449  20905355.0764   20905362.9384
  17774863.883   -32735252.77149 -25492729.56549  17774868.2594   17774873.9784
  17755045.074   -34754314.47349 -27057321.82449  17755047.9444   17755054.0234
  18688647.158   -25352829.32049 -19732973.35449  18688651.6864   18688658.9054
  21667151.566    -5970436.55549  -4641269.66249  21667154.7184   21667164.9244
  20553356.343   -19888078.51249 -15476927.00949  20553360.0774   20553367.2074
  21154334.519    -8649347.40649  -6717853.87349  21154337.2864   21154347.2404
  20080339.692   -12989929.18549 -10107800.51649  20080343.7684   20080353.2624
 95  2  4 20 10 29.9900000  0  8 28 29 18 19 27 22 31 14
  20890306.570    -6957320.43649  -5409300.24649  20890309.6554   20890318.2214
  17772093.701   -32749815.05949 -25504076.80549  17772097.1284   17772102.8424
  17741585.419   -34825044.22749 -27112435.88949  17741588.3854   17741594.4684
  18674833.182   -25425433.09249 -19789547.68149  18674835.6194   18674842.8914
  21646710.334    -6077864.61749  -4724979.69649  21646711.5464   21646722.0534
  20566154.566   -19820841.62249 -15424534.66349  20566154.3924   20566162.3584
  21132286.393    -8765200.08949  -6808128.51549  21132291.7574   21132301.4274
  20094719.053   -12914384.04049 -10048934.27349  20094719.9534   20094729.1724
 95  2  4 20 10 59.9900000  0  8 28 29 18 19 27 22 31 14
  20875339.084    -7035974.72349  -5470589.20449  20875340.9394   20875350.3014
  17769403.888   -32763946.90949 -25515088.64449  17769407.7974   17769413.5924
  17728199.183   -34895389.09349 -27167250.04349  17728202.3094   17728208.3634
  18661062.489   -25497786.55949 -19845926.96449  18661067.1464   18661074.5734
  21626286.834    -6185174.65749  -4808597.80449  21626291.9364   21626301.4794
  20579001.285   -19753318.70749 -15371919.43549  20579004.0474   20579011.1994
  21110261.419    -8880952.22149  -6898324.77649  21110264.6264   21110274.6954
  20109131.753   -12838629.86049  -9989905.13949  20109135.6514   20109144.7234
 95  2  4 20 11 29.9900000  0  8 28 29 18 19 27 22 31 14
  20860457.838    -7114174.40449  -5531523.98849  20860461.5074   20860469.4084
  17766806.827   -32777599.48649 -25525727.01949  17766809.8124   17766815.6084
  17714896.361   -34965299.80749 -27221725.89849  17714898.6574   17714904.7034
  18647353.315   -25569837.71249 -19902070.67749  18647356.2594   18647363.6354
  21605900.948    -6292322.00249  -4892089.11149  21605901.3884   21605912.4154
  20591908.310   -19685481.51149 -15319059.29849  20591912.8454   20591920.3824
  21088267.866    -8996534.82949  -6988388.96749  21088269.7424   21088280.3004
  20123595.674   -12762625.99649  -9930681.44849  20123598.5954   20123607.9484
 95  2  4 20 11 59.9900000  0  8 28 29 18 19 27 22 31 14
  20845657.366    -7191958.47849  -5592134.85449  20845659.1214   20845667.9994
  17764291.153   -32790816.24249 -25536025.79149  17764294.9104   17764300.6454
  17701670.214   -35034800.72549 -27275882.42949  17701673.3094   17701679.1754
  18633692.545   -25641625.85449 -19958009.44049  18633695.3884   18633702.5134
  21585538.502    -6399328.58249  -4975470.74349  21585539.1494   21585549.5864
  20604874.314   -19617374.23649 -15265988.73949  20604872.7764   20604881.2774
  21066298.600    -9111978.83949  -7078345.18549  21066301.1394   21066311.0714
  20138096.742   -12686412.59349  -9871294.47149  20138101.6644   20138111.0224
 95  2  4 20 12 29.9900000  0  8 28 29 18 19 27 22 31 14
  20830928.519    -7269358.05849  -5652446.15749  20830931.5504   20830938.3864
  17761854.528   -32803623.81049 -25546005.71249  17761857.5724   17761863.3744
  17688519.052   -35103912.48949 -27329735.72849  17688521.7724   17688527.5724
  18620074.372   -25713187.35849 -20013771.60449  18620077.8324   18620084.7224
  21565194.691    -6506221.92149  -5058764.14049  21565198.3034   21565208.0114
  20617874.587   -19549039.12849 -15212740.63249  20617877.0944   20617884.0294
  21044358.784    -9227298.64749  -7168204.62349  21044356.8884   21044366.3684
  20152634.542   -12610013.28349  -9811762.64049  20152640.1464   20152649.6044
 95  2  4 20 12 59.9900000  0  8 28 29 18 19 27 22 31 14
  20816270.404    -7346377.16749  -5712460.98049  20816273.9084   20816282.6414
  17759496.460   -32816015.10749 -25555661.27049  17759499.7544   17759505.6184
  17675437.902   -35172656.83849 -27383302.73349  17675440.1184   17675445.9094
  18606498.947   -25784528.20949 -20069361.83149  18606502.0794   18606509.0284
  21544873.796    -6613017.57849  -5141981.43549  21544875.4734   21544885.4064
  20630918.466   -19480495.15749 -15159329.76549  20630920.2644   20630928.2824
  21022436.182    -9342473.35949  -7257950.99749  21022439.6604   21022448.7734
  20167212.752   -12533424.12949  -9752082.89049  20167214.5924   20167224.3654
 95  2  4 20 13 29.9900000  0  8 28 29 18 19 27 22 31 14
  20801676.982    -7423081.71749  -5772230.66449  20801678.7844   20801686.1994
  17757203.407   -32828065.90249 -25565051.49749  17757206.2894   17757212.2144
  17662411.095   -35241112.34949 -27436644.66549  17662413.3764   17662419.2334
  18592951.941   -25855727.02149 -20124841.37349  18592953.1574   18592960.2114
  21524555.692    -6719789.84449  -5225180.48749  21524557.2454   21524566.4354
  20643990.970   -19411806.45949 -15105806.13749  20643991.8574   20643998.8724
  21000541.417    -9457566.87849  -7347634.09449  21000537.7064   21000546.8874
  20181808.542   -12456708.30549  -9692304.43749  20181813.1304   20181822.6714
 95  2  4 20 13 59.9900000  0  8 28 29 18 19 27 22 31 14
  20787157.268    -7499387.47949  -5831689.62749  20787156.2454   20787164.6414
  17754989.111   -32839699.85949 -25574116.91849  17754992.4434   17754998.3614
  17649455.316   -35309194.64149 -27489695.78049  17649457.6834   17649463.7424
  18579442.558   -25926713.65949 -20180155.59149  18579444.8254   18579451.9714
  21504259.407    -6826463.73649  -5308302.90149  21504257.7704   21504267.7814
  20657102.729   -19342880.85449 -15052097.90449  20657108.0204   20657115.4824
  20978662.220    -9572521.50749  -7437208.97949  20978663.1004   20978671.9984
  20196444.936   -12379788.95249  -9632367.40149  20196450.0964   20196459.6924
 95  2  4 20 14 29.9900000  0  8 28 29 18 19 27 22 31 14
  20772708.151    -7575319.63049  -5890857.44049  20772709.2914   20772716.6724
  17752850.246   -32850941.88249 -25582876.94349  17752853.4244   17752858.9984
  17636564.764   -35376935.08049 -27542480.52349  17636566.8684   17636572.9414
  18565967.083   -25997515.68649 -20235325.96749  18565971.7254   18565978.7684
  21483961.933    -6933083.25449  -5391382.96949  21483968.0314   21483978.8014
  20670262.470   -19273742.35249 -14998223.78349  20670264.4404   20670271.9004
  20956801.779    -9687366.28249  -7526698.25449  20956807.0684   20956816.9254
  20211116.093   -12302701.22549  -9572299.18349  20211119.7034   20211129.5534
 95  2  4 20 14 59.9900000  0  8 28 29 18 19 27 22 31 14
  20758315.703    -7650922.90649  -5949769.01249  20758320.6914   20758328.9844
  17750773.968   -32861842.29849 -25591370.76949  17750779.0764   17750784.6214
  17623727.514   -35444392.99549 -27595045.10849  17623730.0914   17623736.1114
  18552521.726   -26068174.01449 -20290384.35649  18552526.1064   18552532.8444
  21463680.175    -7039696.33749  -5474458.00149  21463681.3874   21463690.4014
  20683450.026   -19204430.32149 -14944214.43049  20683454.0364   20683461.4014
  20934959.749    -9802163.81149  -7616150.68949  20934962.9204   20934972.2574
  20225807.862   -12225503.73249  -9512145.42449  20225810.1594   20225819.7544
 95  2  4 20 15 29.9900000  0  8 28 29 18 19 27 22 31 14
  20744004.706    -7726145.57149  -6008383.98149  20744006.7214   20744014.1084
  17748770.600   -32872373.87449 -25599577.19849  17748775.1974   17748780.8054
  17610957.599   -35511502.14449 -27647337.93549  17610959.6294   17610965.7454
  18539118.241   -26138630.96349 -20345285.83449  18539118.5684   18539125.4144
  21443403.446    -7146233.82149  -5557474.13949  21443407.6684   21443417.3744
  20696687.608   -19134889.35649 -14890026.71749  20696687.5634   20696695.3064
  20913129.148    -9916882.20849  -7705541.50049  20913133.3014   20913141.3814
  20240526.169   -12148159.09049  -9451877.01849  20240528.3344   20240538.0924
 95  2  4 20 15 59.9900000  0  8 28 29 18 19 27 22 31 14
  20729762.814                                    20729764.095    20729774.0764
  17746838.869   -32882526.31249 -25607488.20949  17746843.1664   17746848.8834
  17598254.240   -35578251.86949 -27699350.71249  17598257.4864   17598263.6874
  18525753.053   -26208863.04749 -20400012.10949  18525753.7444   18525760.7814
  21423153.736    -7252675.94749  -5640415.96949  21423152.0994   21423162.3814
  20709957.332   -19065138.18649 -14835675.21249  20709960.6724   20709968.2114
  20891315.907   -10031516.30749  -7794866.62049  20891318.0904   20891327.4094
  20255270.125   -12070674.25449  -9391499.38249  20255273.4384   20255283.4044
 95  2  4 20 16 29.9900000  0  8 28 29 18 19 27 22 31 14
  20715590.384    -7875482.19859  -6124750.22549  20715590.0234   20715595.2304
  17744972.624   -32892335.43549 -25615131.64649  17744976.3584   17744981.9964
  17585613.007   -35644686.68349 -27751118.04749  17585615.6174   17585621.5754
  18512422.824   -26278902.51849 -20454588.23949  18512425.8724   18512432.4314
  21402903.885    -7359058.97349  -5723311.72649  21402908.9224   21402917.7024
  20723262.183   -18995228.04649 -14781199.76949  20723264.3524   20723270.7434
  20869515.224   -10146083.25449  -7884139.34149  20869516.7994   20869525.7324
  20270032.600   -11993093.99749  -9331047.33849  20270036.5894   20270046.2044
 95  2  4 20 16 59.9900000  0  8 28 29 18 19 27 22 31 14
  20701480.298    -7949608.01549  -6182510.54249  20701482.5814   20701490.2614
  17743174.984   -32901783.49949 -25622493.77449  17743178.5054   17743184.2774
  17573033.901   -35710786.07849 -27802624.05349  17573037.4924   17573043.4394
  18499134.354   -26348733.93349 -20509002.28649  18499137.1964   18499144.0154
  21382674.660    -7465360.22149  -5806143.75449  21382679.6624   21382688.9584
  20736599.014   -18925155.86649 -14726598.10349  20736598.4514   20736606.5494
  20847730.655   -10260556.14049  -7973338.81749  20847733.2374   20847742.6404
  20284820.357   -11915392.90949  -9270501.17049  20284823.0964   20284832.3704
 95  2  4 20 17 29.9900000  0  8 28 29 18 19 27 22 31 14
  20687446.521    -8023353.17349  -6239974.20149  20687450.4844   20687457.9704
  17741446.045   -32910867.11149 -25629571.91649  17741450.1284   17741455.7104
  17560522.648   -35776536.33549 -27853858.00649  17560525.5224   17560531.4644
  18485885.634   -26418355.54949 -20563252.85849  18485888.7804   18485895.4664
  21362466.135    -7571573.26049  -5888907.07449  21362467.3354   21362477.3844
  20749957.093   -18854932.38549 -14671878.54749  20749961.2974   20749969.1504
  20825966.920   -10374904.32949  -8062441.15549  20825973.6064   20825982.3714
  20299633.042   -11837553.99049  -9209847.60249  20299635.0084   20299644.7854
 95  2  4 20 17 59.9900000  0  8 28 29 18 19 27 22 31 14
  20673478.343    -8096738.85649  -6297157.83249  20673484.6144   20673492.8454
  17739786.984   -32919590.76549 -25636369.60449  17739789.8104   17739795.6714
  17548070.727   -35841971.42349 -27904846.40949  17548073.6654   17548079.7344
  18472668.957   -26487811.04149 -20617374.02149  18472671.7944   18472678.6754
  21342258.918    -7677755.97049  -5971646.78849  21342261.8944   21342270.8694
  20763346.588   -18784594.29049 -14617069.70149  20763346.8224   20763353.5224
  20804232.457   -10489132.67449  -8151450.09849  20804236.4654   20804245.7494
  20314465.047   -11759602.20149  -9149106.11849  20314468.7594   20314478.8134
 95  2  4 20 18 29.9900000  0  8 28 29 18 19 27 22 31 14
  20659581.654    -8169772.94549  -6354067.39949  20659586.8594   20659594.9354
  17738192.792   -32927964.45749 -25642894.52149  17738196.3904   17738201.9604
  17535676.017   -35907103.52449 -27955598.64849  17535679.2814   17535685.0244
  18459476.714   -26557132.08149 -20671390.34249  18459480.2344   18459486.8614
  21322047.449    -7783948.35549  -6054393.97549  21322053.5954   21322063.4064
  20776753.306   -18714146.91549 -14562175.63749  20776752.5294   20776760.3084
  20782516.814   -10603254.66449  -8240376.11249  20782519.3024   20782528.6864
  20329322.354   -11681545.01949  -9088282.43749  20329322.8064   20329332.2554
 95  2  4 20 18 59.9900000  0  8 28 29 18 19 27 22 31 14
  20645761.201    -8242424.40449  -6410678.84549  20645762.7954   20645769.8734
  17736671.141   -32935960.60049 -25649125.27349  17736674.7944   17736680.6114
  17523346.884   -35971894.53049 -28006085.12349  17523349.7914   17523355.8224
  18446315.850   -26626296.49049 -20725284.64349  18446318.6074   18446325.7194
  21301845.936    -7890124.29149  -6137128.34349  21301848.7934   21301858.4054
  20790182.807   -18643565.34949 -14507177.06149  20790183.6154   20790190.7724
  20760819.481   -10717258.53949  -8329210.15149  20760825.0544   20760834.6484
  20344200.582   -11603345.66449  -9027347.99649  20344204.0344   20344213.4444
 95  2  4 20 19 29.9900000  0  8 28 29 18 19 27 22 31 14
  20632004.946    -8314708.88449  -6467004.35949  20632005.9824   20632014.1244
  17735218.936   -32943596.84949 -25655075.59249  17735221.6394   17735227.4464
  17511081.487   -36036348.17149 -28056308.72349  17511084.8154   17511090.6904
  18433178.904   -26695322.41049 -20779071.03849  18433183.3134   18433190.3024
  21281641.495    -7996295.62149  -6219859.13749  21281645.2134   21281655.4364
  20803638.908   -18572847.35949 -14452072.15049  20803640.6014   20803648.3224
  20739145.879   -10831173.55449  -8417974.93549  20739147.1274   20739156.1794
  20359103.303   -11525026.89549  -8966320.51949  20359107.5814   20359117.3004
 95  2  4 20 19 59.9900000  0  8 28 29 18 19 27 22 31 14
  20618308.868    -8386659.64449  -6523069.81249  20618315.4814   20618323.0074
  17733829.167   -32950898.58449 -25660765.25349  17733832.1254   17733838.0504
  17498875.536   -36100492.34749 -28106291.17749  17498878.6114   17498884.5734
  18420065.346   -26764244.67849 -20832776.66549  18420067.9974   18420074.8484
  21261431.807    -8102500.50449  -6302616.08849  21261434.7084   21261443.5044
  20817116.204   -18502015.94549 -14396878.88249  20817119.7034   20817127.6384
  20717473.848   -10945057.25049  -8506715.31549  20717475.6344   20717484.6904
  20374020.172   -11446640.95349  -8905240.69549  20374024.1904   20374033.7874
 95  2  4 20 20 29.9900000  0  8 28 29 18 19 27 22 31 14
  20604688.455    -8458248.38749  -6578853.20749  20604692.0114   20604699.3964
  17732505.442   -32957850.44749 -25666182.29949  17732509.2324   17732515.0744
  17486734.262   -36164294.66749 -28156007.26249  17486737.2594   17486743.2114
  18406977.937   -26833015.59849 -20886364.36949  18406981.1154   18406988.2494
  21241225.103    -8208676.71349  -6385350.69049  21241230.8244   21241240.1874
  20830622.654   -18431041.58349 -14341574.23249  20830625.5464   20830633.4894
  20695809.828   -11058891.06049  -8595416.85149  20695814.1114   20695823.3694
  20388954.501   -11368166.78549  -8844092.13649  20388957.6134   20388967.3014
 95  2  4 20 20 59.9900000  0  8 28 29 18 19 27 22 31 14
  20591142.997    -8529432.34249  -6634321.18549  20591145.4554   20591152.8284
  17731257.160   -32964415.78649 -25671298.15249  17731259.9514   17731265.7504
  17474667.067   -36227711.16349 -28205422.69849  17474669.5624   17474675.6984
  18393929.909   -26901590.46449 -20939799.30149  18393931.6124   18393938.7644
  21221041.478    -8314753.43149  -6468007.75149  21221044.9334   21221054.8994
  20844164.276   -18359877.36349 -14286121.62649  20844167.9004   20844174.6334
  20674166.617   -11172618.25449  -8684035.29549  20674171.8094   20674181.5754
  20403910.198   -11289579.23749  -8782855.23449  20403912.5964   20403922.0794
 95  2  4 20 21 29.9900000  0  8 28 29 18 19 27 22 31 14
  20577682.003    -8600174.65349  -6689445.00149  20577685.1844   20577691.9694
  17730088.829   -32970552.03249 -25676079.64849  17730092.1444   17730098.0484
  17462677.411   -36290716.41149 -28254517.68249  17462679.8874   17462685.9574
  18380923.664   -26969930.52349 -20993051.26049  18380926.9284   18380933.9894
  21200883.958    -8420694.15549  -6550558.88449  21200884.7344   21200893.6314
  20857749.772   -18288489.75849 -14230494.96549  20857751.9684   20857760.6914
  20652559.451   -11286173.63249  -8772519.85649  20652562.8994   20652571.9424
  20418889.298   -11210862.03449  -8721517.29649  20418891.6084   20418901.5454
 95  2  4 20 21 59.9900000  0  8 28 29 18 19 27 22 31 14
  20564302.170    -8670480.33649  -6744228.62849  20564306.5374   20564312.4204
  17729003.186   -32976259.57049 -25680527.08049  17729006.0044   17729011.8434
  17450760.295   -36353337.72149 -28303313.48849  17450763.4904   17450769.5204
  18367963.773   -27038033.66149 -21046118.60449  18367967.4534   18367974.3994
  21180745.730    -8526516.46549  -6633017.70649  21180747.6474   21180756.4404
  20871368.408   -18216918.18849 -14174724.94649  20871371.2974   20871379.4314
  20630987.049   -11399538.28749  -8860855.81049  20630990.8894   20630999.0774
  20433888.282   -11132021.61949  -8660083.35349  20433894.6464   20433904.1104
 95  2  4 20 22 29.9900000  0  8 28 29 18 19 27 22 31 14
  20551000.409    -8740396.70449  -6798708.86549  20551000.9544   20551008.1104
  17727990.138   -32981588.21149 -25684679.27149  17727992.2214   17727997.9694
  17438908.230   -36415628.90749 -28351852.05949  17438909.8384   17438915.8304
  18355040.828   -27105943.45349 -21099035.29349  18355044.4764   18355051.4284
  21160621.468    -8632254.58649  -6715410.94749  21160625.6924   21160635.3514
  20885009.586   -18145229.52249 -14118863.67749  20885013.9304   20885020.9414
  20609443.503   -11512735.39049  -8949061.21149  20609449.8524   20609459.1384
  20448911.057   -11053105.12249  -8598590.13649  20448912.2374   20448921.5464
 95  2  4 20 22 59.9900000  0  8 28 29 18 19 27 22 31 14
  20537772.276    -8809895.19749  -6852863.49649  20537776.3854   20537783.7534
  17727051.816   -32986510.21849 -25688514.60949  17727055.3784   17727061.2834
  17427121.992   -36477557.86549 -28400108.37749  17427125.0684   17427131.2914
  18342155.693   -27173647.70549 -21151791.82849  18342160.8244   18342167.6934
  21140525.459    -8737905.31149  -6797736.08249  21140521.2234   21140530.8094
  20898681.896   -18073412.43149 -14062902.35349  20898680.0934   20898687.1004
  20587945.220   -11625734.97749  -9037112.69649  20587947.0124   20587955.6094
  20463946.011   -10974081.10149  -8537013.12449  20463949.7694   20463959.9214
 95  2  4 20 23 29.9900000  0  8 28 29 18 19 27 22 31 14
  20524636.014    -8878940.82949  -6906665.25249  20524636.9904   20524643.6504
  17726198.331   -32990993.96049 -25692008.44149  17726202.1454   17726208.0044
  17415413.552   -36539088.78249 -28448054.53249  17415416.1254   17415422.3204
  18329321.387   -27241099.38249 -21204351.54549  18329325.0274   18329332.1134
  21120434.309    -8843455.30149  -6879982.70349  21120435.8654   21120444.2274
  20912371.004   -18001453.69849 -14006830.63649  20912373.7164   20912380.9714
  20566489.203   -11738513.06049  -9124991.58949  20566485.6124   20566494.5994
  20479011.623   -10894904.10149  -8475316.91049  20479017.0084   20479026.5784
 95  2  4 20 23 59.9900000  0  8 28 29 18 19 27 22 31 14
  20511569.549    -8947597.83849  -6960164.17249  20511571.1484   20511579.4034
  17725415.317   -32995114.02649 -25695218.89149  17725418.1594   17725424.1004
  17403769.567   -36600273.14549 -28495730.64649  17403773.1054   17403779.3034
  18316520.410   -27308364.40549 -21256765.81949  18316524.9334   18316532.0604
  21100354.955    -8948959.26549  -6962193.49349  21100358.7624   21100367.6624
  20926085.160   -17929402.25649 -13950686.71249  20926084.7034   20926092.2674
  20545045.829   -11851149.43849  -9212760.05849  20545050.6514   20545060.3954
  20494097.025   -10815634.27349  -8413548.35549  20494101.8904   20494111.1934
 95  2  4 20 24 29.9900000  0  8 28 29 18 19 27 22 31 14
  20498586.439    -9015821.68449  -7013325.57149  20498589.0334   20498595.7324
  17724705.366   -32998844.73949 -25698125.94849  17724708.2554   17724714.1844
  17392205.802   -36661045.75949 -28543085.91849  17392208.6184   17392214.7784
  18303763.336   -27375409.36949 -21309008.62349  18303766.8344   18303773.9134
  21080301.194    -9054364.52049  -7044327.33749  21080300.3954   21080309.9674
  20939827.076   -17857173.04049 -13894404.23249  20939828.7084   20939837.0234
  20523644.058   -11963615.44749  -9300395.77349  20523649.3064   20523659.1014
  20509208.419   -10736234.50349  -8351678.54749  20509211.5044   20509220.6964
 95  2  4 20 24 59.9900000  0  8 28 29 18 19 27 22 31 14
  20485666.807    -9083702.86449  -7066219.96049  20485670.9674   20485679.0524
  17724050.412   -33002286.64249 -25700807.95749  17724053.4104   17724059.0294
  17380701.343   -36721499.75549 -28590192.91749  17380704.7044   17380710.4694
  18291028.770   -27442331.55449 -21361155.74849  18291031.7034   18291038.8434
  21060238.268    -9159787.47949  -7126474.99749  21060239.5994   21060249.2334
  20953586.060   -17784843.24949 -13838043.40249  20953592.8964   20953600.1394
  20502266.126   -12076010.51649  -9387976.22749  20502261.5694   20502270.0764
  20524321.791   -10656806.82749  -8289786.99449  20524326.0114   20524335.1034
 95  2  4 20 25 29.9900000  0  8 28 29 18 19 27 22 31 14
  20472811.473    -9151278.09449  -7118875.95349  20472811.9024   20472819.4544
  17723441.530   -33005484.57449 -25703299.85849  17723444.8754   17723450.3804
  17369248.604   -36781683.07149 -28637088.99449  17369252.2994   17369257.9554
  18278308.981   -27509174.52649 -21413241.15749  18278312.1484   18278318.8274
  21040166.953    -9265262.83649  -7208663.45949  21040167.8884   21040177.2234
  20967372.515   -17712428.30949 -13781616.21949  20967372.9274   20967381.2184
  20480875.945   -12188370.12849  -9475529.04849  20480880.1004   20480888.9354
  20539431.688   -10577407.81949  -8227917.76849  20539435.2744   20539444.8124
 95  2  4 20 25 59.9900000  0  8 28 29 18 19 27 22 31 14
  20460007.454    -9218564.27749  -7171306.69649  20460008.5154   20460015.9614
  17722876.503   -33008455.24549 -25705614.67449  17722879.5114   17722885.2544
  17357844.485   -36841615.42249 -28683789.51249  17357847.3834   17357853.1844
  18265596.872   -27575971.03849 -21465290.36149  18265601.0564   18265607.8344
  21020077.835    -9370810.10349  -7290907.97249  21020082.3904   21020091.8284
  20981160.833   -17639940.73449 -13725132.43249  20981166.6134   20981175.0634
  20459500.741   -12300703.86649  -9563061.71249  20459503.3794   20459512.6174
  20554530.704   -10498070.48749  -8166096.60449  20554532.6384   20554542.1104
 95  2  4 20 26 29.9900000  0  8 28 29 18 19 27 22 31 14
  20447270.556    -9285492.93649  -7223458.86949  20447272.1724   20447280.3204
  17722368.518   -33011120.94649 -25707691.87049  17722372.2114   17722377.9184
  17346499.110   -36901241.16649 -28730251.13549  17346500.9034   17346506.8484
  18252906.523   -27642659.94949 -21517255.73449  18252910.6904   18252917.6914
  20999991.224    -9476382.42549  -7373172.02149  20999993.7934   21000002.5134
  20994975.716   -17567352.43349 -13668570.17449  20994980.7924   20994987.6834
  20438141.112   -12412943.44949  -9650521.03549  20438145.0094   20438153.2444
  20569625.769   -10418734.93949  -8104276.84749  20569630.2674   20569638.9844
 95  2  4 20 26 59.9900000  0  8 28 29 18 19 27 22 31 14
  20434611.663    -9351998.89449  -7275281.63249  20434616.7354   20434623.7654
  17721935.554   -33013401.48349 -25709468.89749  17721938.3784   17721943.9894
  17335218.775   -36960510.19349 -28776434.75549  17335222.3924   17335228.3074
  18240250.614   -27709180.67349 -21569090.01049  18240252.1604   18240258.9044
  20979905.123    -9581918.43549  -7455407.73649  20979909.9674   20979918.5764
  21008814.196   -17494642.79649 -13611913.31649  21008816.2174   21008824.3374
  20416810.654   -12525012.18849  -9737847.19049  20416818.9794   20416826.9074
  20584731.666   -10339339.95549  -8042410.72649  20584738.2524   20584747.6704
 95  2  4 20 27 29.9900000  0  8 28 29 18 19 27 22 31 14
  20422033.278    -9418109.83349  -7326796.61849  20422035.9434   20422042.9294
  17721571.705   -33015312.80849 -25710958.25249  17721574.6874   17721580.4994
  17324003.663   -37019446.05249 -28822358.79149  17324007.4704   17324013.1934
  18227615.485   -27775566.22049 -21620818.98349  18227619.4274   18227626.2264
  20959832.081    -9687434.68349  -7537628.08849  20959830.5444   20959839.4844
  21022667.078   -17421848.51049 -13555190.55749  21022668.2344   21022675.9304
  20395522.165   -12636937.29149  -9825061.44049  20395519.8294   20395528.9844
  20599853.133   -10259898.55249  -7980508.47549  20599855.4044   20599864.7594
 95  2  4 20 27 59.9900000  0  8 28 29 18 19 27 22 31 14
  20409531.407    -9483821.61849  -7378000.55349  20409531.1234   20409539.1704
  17721281.175   -33016833.54449 -25712143.24949  17721285.2394   17721291.1304
  17312854.315   -37078043.48049 -28868019.11349  17312856.8354   17312862.5214
  18215012.897   -27841802.92249 -21672431.96849  18215015.0784   18215021.7074
  20939748.925    -9792918.74749  -7619823.35749  20939758.3094   20939765.6654
  21036529.273   -17348994.57849 -13498421.28049  21036532.9234   21036540.3294
  20374247.881   -12748710.36149  -9912157.22649  20374251.3674   20374259.5384
  20614981.691   -10180393.56649  -7918556.68449  20614984.7484   20614994.5344
 95  2  4 20 28 29.9900000  0  8 28 29 18 19 27 22 31 14
  20397109.104    -9549086.38749  -7428856.16349  20397111.4334   20397119.7864
  17721075.138   -33017919.07749 -25712989.12949  17721078.5584   17721084.2284
  17301776.077   -37136259.42149 -28913382.17249  17301778.6944   17301784.3604
  18202444.561   -27907851.64449 -21723898.47549  18202446.2794   18202453.0324
  20919697.226    -9898311.26149  -7701947.26849  20919702.4804   20919711.0494
  21050416.434   -17276041.31849 -13441574.62849  21050415.1504   21050422.5614
  20353018.209   -12860285.89049  -9999099.10349  20353019.4344   20353026.5844
  20630133.141   -10100781.82549  -7856521.72149  20630134.4024   20630144.5604
 95  2  4 20 28 59.9900000  0  8 28 29 18 19 27 22 31 14
  20384751.536    -9614026.57349  -7479458.85949  20384753.7154   20384761.0144
  17720927.593   -33018693.05249 -25713592.23149  17720931.3394   17720937.0414
  17290748.610   -37194207.95749 -28958536.85949  17290751.3364   17290757.0354
  18189887.703   -27973829.04749 -21775309.40249  18189891.0714   18189897.7514
  20899640.253   -10003730.65049  -7784092.14049  20899641.9164   20899650.3054
  21064297.044   -17203086.80849 -13384727.01549  21064298.4024   21064304.9654
  20331800.958   -12971777.16249 -10085975.31049  20331802.2744   20331810.7304
  20645275.592   -10021184.16249  -7794497.73849  20645281.2824   20645291.6904
 95  2  4 20 29 29.9900000  0  8 28 29 18 19 27 22 31 14
  20372470.136    -9678566.14149  -7529749.37749  20372472.9754   20372480.0434
  17720854.429   -33019078.91249 -25713892.90949  17720857.8784   17720863.8114
  17279787.006   -37251810.78649 -29003422.17149  17279789.7014   17279795.5324
  18177359.471   -28039653.58549 -21826601.21849  18177365.0344   18177371.7324
  20879587.961   -10109107.42249  -7866203.78549  20879589.3584   20879597.9364
  21078196.808   -17130048.39749 -13327813.96949  21078196.5024   21078204.3244
  20310616.570   -13083112.85349 -10172730.29749  20310616.9844   20310624.7944
  20660432.265    -9941529.53549  -7732429.37849  20660439.3454   20660450.0354
 95  2  4 20 29 59.9900000  0  8 28 29 18 19 27 22 31 14
  20360288.174    -9742571.72949  -7579623.81149  20360293.0624   20360300.1974
  17720875.653   -33018960.78849 -25713800.87249  17720880.3204   17720886.3164
  17268915.824   -37308935.08649 -29047934.59849  17268919.4054   17268925.2184
  18164888.278   -28105190.39549 -21877668.83349  18164893.6454   18164900.6754
  20859565.003   -10214310.52549  -7948180.12249  20859569.1034   20859577.9644
  21092134.070   -17056805.35049 -13270741.53449  21092134.4214   21092143.3434
  20289484.655   -13194155.70049 -10259257.10549  20289484.4764   20289492.7194
  20675625.442    -9861708.41749  -7670231.28749  20675628.9124   20675639.4334
 95  2  4 20 30 29.9900000  0  8 28 29 18 19 27 22 31 14
  20348206.964    -9806074.70449  -7629106.57749  20348208.2774   20348216.5234
  17720986.493   -33018387.20349 -25713353.93649  17720989.4624   17720995.4074
  17258132.757   -37365600.79449 -29092089.68549  17258136.1354   17258142.0914
  18152467.345   -28170477.87349 -21928542.16349  18152469.7704   18152476.8394
  20839573.230   -10319392.25149  -8030061.85249  20839573.2104   20839581.7854
  21106098.904   -16983380.79549 -13213527.65549  21106107.1754   21106114.1094
  20268397.875   -13304937.95949 -10345580.86249  20268403.5724   20268411.6264
  20690836.878    -9781766.30349  -7607938.90849  20690841.2604   20690852.4974
 95  2  4 20 30 59.9900000  0  8 28 29 18 19 27 22 31 14
  20336215.910    -9869088.27849  -7678207.99349  20336218.0754   20336224.8774
  17721178.818   -33017376.72249 -25712566.55649  17721181.8984   17721187.6484
  17247436.209   -37421817.25749 -29135894.70849  17247438.4044   17247444.4644
  18140090.019   -28235517.54349 -21979222.39649  18140093.2604   18140100.1314
  20819591.633   -10424384.60249  -8111873.95149  20819594.1074   20819601.9754
  21120111.579   -16909790.82249 -13156184.83349  21120110.7074   21120118.3474
  20247369.442   -13415470.86849 -10431710.30749  20247369.8404   20247378.1764
  20706074.216    -9701719.32049  -7545564.81949  20706074.0054   20706084.7044
 95  2  4 20 31 29.9900000  0  8 28 29 18 19 27 22 31 14
  20324310.927    -9931637.93549  -7726947.94749  20324314.4724   20324321.7834
  17721446.173   -33015973.59849 -25711473.23349  17721448.8684   17721454.3494
  17236819.241   -37477604.31449 -29179365.13949  17236822.5604   17236828.4124
  18127754.197   -28300339.30249 -22029732.83549  18127758.0554   18127764.7704
  20799628.313   -10529304.97349  -8193629.95749  20799628.4614   20799635.6594
  21134135.237   -16836085.00249 -13098751.80049  21134136.2504   21134144.0284
  20226374.123   -13525783.03149 -10517667.74649  20226378.1744   20226386.0024
  20721314.783    -9621613.49649  -7483144.88349  20721318.1814   20721328.3284
 95  2  4 20 31 59.9890000  0  8 28 29 18 19 27 22 31 14
  20312504.417    -9993698.25749  -7775306.55449  20312504.4614   20312511.9724
  17721792.004   -33014157.36249 -25710057.98149  17721794.6744   17721800.4344
  17226291.735   -37532928.46249 -29222474.84149  17226294.7694   17226300.8024
  18115465.738   -28364916.82249 -22080052.93749  18115469.4124   18115476.3154
  20779676.867   -10634126.76849  -8275309.13949  20779680.1714   20779689.9744
  21148187.575   -16762246.81449 -13041215.59249  21148187.5494   21148195.9284
  20205430.281   -13635849.81949 -10603433.97749  20205432.6784   20205441.1474
  20736572.749    -9541431.30849  -7420665.42249  20736576.0044   20736586.9484
 95  2  4 20 32 29.9890000  0  8 28 29 18 19 27 22 31 14
  20300791.034   -10055254.03549  -7823272.03249  20300790.9454   20300797.9564
  17722220.646   -33011898.07849 -25708297.51449  17722224.4514   17722230.2614
  17215854.453   -37587774.35549 -29265211.89249  17215857.9294   17215863.9034
  18103227.571   -28429232.29149 -22130168.85849  18103230.4634   18103237.1274
  20759748.537   -10738839.47649  -8356903.35549  20759755.0174   20759762.4554
  21162270.587   -16688252.03749 -12983557.38049  21162268.0544   21162276.3614
  20184529.671   -13745661.44549 -10689001.39949  20184536.4784   20184544.5134
  20751849.739    -9461154.13249  -7358111.95749  20751852.9224   20751863.2654
 95  2  4 20 32 59.9890000  0  8 28 29 18 19 27 22 31 14
  20289177.047   -10116259.91549  -7870809.02049  20289181.2634   20289187.9294
  17722745.165   -33009148.75849 -25706155.20149  17722747.5624   17722753.3024
  17205516.087   -37642102.91849 -29307545.82749  17205519.2924   17205525.3704
  18091045.262   -28493244.70749 -22180048.63149  18091049.2754   18091056.1154
  20739858.574   -10843380.78849  -8438363.99749  20739860.9554   20739868.4114
  21176377.252   -16614064.36149 -12925748.85449  21176386.2314   21176393.2504
  20163691.920   -13855179.71649 -10774340.19249  20163695.3944   20163704.3604
  20767146.922    -9380756.44949  -7295464.59349  20767151.9214   20767162.9024
 95  2  4 20 33 29.9890000  0  8 28 29 18 19 27 22 31 14
  20277674.009   -10176734.96649  -7917932.37549  20277674.2424   20277681.7394
  17723358.357   -33005921.60449 -25703640.54349  17723361.6704   17723367.4854
  17195274.376   -37695930.86249 -29349489.66949  17195276.2394   17195282.1424
  18078915.683   -28556990.50849 -22229720.65049  18078918.8554   18078925.7114
  20719991.264   -10947769.73149  -8519705.90149  20719996.4764   20720004.7904
  21190526.143   -16539707.85549 -12867808.78649  21190535.0314   21190543.5134
  20142906.203   -13964426.99449 -10859467.82449  20142906.4824   20142914.3594
  20782465.957    -9300262.56149  -7232742.26149  20782469.6234   20782480.1114
 95  2  4 20 33 59.9890000  0  8 28 29 18 19 27 22 31 14
  20266257.296   -10236713.79049  -7964669.06149  20266260.0104   20266267.1304
  17724056.746   -33002247.30349 -25700777.45449  17724060.7494   17724066.8104
  17185114.629   -37749314.12849 -29391087.00849  17185117.6684   17185123.7544
  18066828.000   -28620513.01749 -22279218.68149  18066830.9504   18066837.6934
  20700142.931   -11052060.25049  -8600971.13949  20700149.9994   20700158.4734
  21204716.628   -16465205.25149 -12809754.86649  21204712.2164   21204720.1984
  20122157.083   -14073432.79649 -10944407.30349  20122163.1564   20122171.5194
  20797801.241    -9219703.43849  -7169969.09449  20797799.1004   20797810.0304
 95  2  4 20 34 29.9890000  0  8 28 29 18 19 27 22 31 14
  20254958.223   -10296086.43849  -8010933.40549  20254961.1954   20254968.6374
  17724860.892   -32998025.66649 -25697487.87249  17724864.0524   17724870.1544
  17175059.347   -37802148.66149 -29432256.76749  17175063.4704   17175069.7274
  18054802.997   -28683708.49749 -22328461.88049  18054805.0674   18054811.8244
  20680343.471   -11156143.86849  -8682075.13449  20680343.2004   20680352.0704
  21218936.496   -16390450.75449 -12751504.69049  21218938.6324   21218945.7694
  20101489.903   -14182070.29049 -11029059.77649  20101489.9184   20101498.7124
  20813160.542    -9138976.41849  -7107065.09949  20813161.1174   20813172.1644
 95  2  4 20 34 59.9890000  0  8 28 29 18 19 27 22 31 14
  20243738.626   -10355031.89149  -8056864.87049  20243744.7254   20243752.4004
  17725734.508   -32993435.02549 -25693910.75849  17725737.8564   17725743.8674
  17165076.184   -37854614.07549 -29473138.89749  17165079.6654   17165085.7974
  18042803.983   -28746762.85749 -22377595.12049  18042806.5784   18042813.0594
  20660537.946   -11260203.59349  -8763160.51949  20660541.9634   20660550.1624
  21233165.460   -16315631.45249 -12693203.97149  21233175.4894   21233183.2524
  20080855.811   -14290497.58249 -11113548.43849  20080857.6394   20080865.4844
  20828521.875    -9058248.76949  -7044160.62149  20828523.2744   20828534.4024
